[[{"header":{"parameterUnit":"m.s-1","parameterCategory":1,"la1":31.0,"la2":29.5877,"lo1":-88.7671,"lo2":-86.6584,"dy":0.0162,"dx":0.0185,"nx":115,"ny":88,"refTime":"2024-02-25T12:00:00:Z","depth":0,"parameterNumber":2,"parameterNumberName":"U-component_of_WINDS"},"data":[0.0,0.0,0.0,0.0,0.0,0.0,0.0,0.0,0.0,0.0,0.0,0.0,0.0,0.0,0.0,0.0,0.0,0.0,0.0,0.0,0.0,0.0,0.0,0.0,0.0,0.0,0.0,0.0,0.0,0.0,0.0,0.0,0.0,0.0,0.0,0.0,0.0,0.0,0.0,0.0,0.0,0.0,0.0,0.0,0.0,0.0,0.0,0.0,0.0,0.0,0.0,0.0,0.0,0.0,0.0,0.0,0.0,0.0,0.0,0.0,0.0,0.0,0.0,0.0,0.0,0.0,0.0,0.0,0.0,0.0,0.0,0.0,0.0,0.0,0.0,0.0,0.0,0.0,0.0,0.0,0.0,0.0,0.0,0.0,0.0,0.0,0.0,0.0,0.0,0.0,0.0,0.0,0.0,0.0,0.0,0.0,0.0,0.0,0.0,0.0,0.0,0.0,0.0,0.0,0.0,0.0,0.0,0.0,0.0,0.0,0.0,0.0,0.0,0.0,0.0,0.0,0.0,0.0,0.0,0.0,0.0,0.0,0.0,0.0,0.0,0.0,0.0,0.0,0.0,0.0,0.0,0.0,0.0,0.0,0.0,0.0,0.0,0.0,0.0,0.0,0.0,0.0,0.0,0.0,0.0,0.0,0.0,0.0,0.0,0.0,0.0,0.0,0.0,0.0,0.0,0.0,0.0,0.0,0.0,0.0,0.0,0.0,0.0,0.0,0.0,0.0,0.0,0.0,0.0,0.0,0.0,0.0,0.0,0.0,0.0,0.0,0.0,0.0,0.0,0.0,0.0,0.0,0.0,0.0,0.0,0.0,0.0,0.0,0.0,0.0,0.0,0.0,0.0,0.0,0.0,0.0,0.0,0.0,0.0,0.0,0.0,0.0,0.0,0.0,0.0,0.0,0.0,0.0,0.0,0.0,0.0,0.0,0.0,0.0,0.0,0.0,0.0,0.0,0.0,0.0,0.0,0.0,0.0,0.0,0.0,0.0,0.0,0.0,0.0,0.0,0.0,0.0,0.0,0.0,0.0,0.0,0.0,0.0,0.0,0.0,0.0,0.0,0.0,0.0,0.0,0.0,0.0,0.0,0.0,0.0,0.0,0.0,0.0,0.0,0.0,0.0,0.0,0.0,0.0,0.0,0.0,0.0,0.0,0.0,0.0,0.0,0.0,0.0,0.0,0.0,0.0,0.0,0.0,0.0,0.0,0.0,0.0,0.0,0.0,0.0,0.0,0.0,0.0,0.0,0.0,0.0,0.0,0.0,0.0,0.0,0.0,0.0,0.0,0.0,0.0,0.0,0.0,0.0,0.0,0.0,0.0,0.0,0.0,0.0,0.0,0.0,0.0,0.0,0.0,0.0,0.0,0.0,0.0,0.0,0.0,0.0,0.0,0.0,0.0,0.0,0.0,0.0,0.0,0.0,0.0,0.0,0.0,0.0,0.0,0.0,0.0,0.0,0.0,0.0,0.0,0.0,0.0,0.0,0.0,0.0,0.0,0.0,0.0,0.0,0.0,0.0,0.0,0.0,0.0,0.0,0.0,0.0,0.0,0.0,0.0,0.0,0.0,0.0,0.0,0.0,0.0,0.0,0.0,0.0,0.0,0.0,0.0,0.0,0.0,0.0,0.0,0.0,0.0,0.0,0.0,0.0,0.0,0.0,0.0,0.0,0.0,0.0,0.0,0.0,0.0,0.0,0.0,0.0,0.0,0.0,0.0,0.0,0.0,0.0,0.0,0.0,0.0,0.0,0.0,0.0,0.0,0.0,0.0,0.0,0.0,0.0,0.0,0.0,0.0,0.0,0.0,0.0,0.0,0.0,0.0,0.0,0.0,0.0,0.0,0.0,0.0,0.0,0.0,0.0,0.0,0.0,0.0,0.0,0.0,0.0,0.0,0.0,0.0,0.0,0.0,0.0,0.0,0.0,0.0,0.0,0.0,0.0,0.0,0.0,0.0,0.0,0.0,0.0,0.0,0.0,0.0,0.0,0.0,0.0,0.0,0.0,0.0,0.0,0.0,0.0,0.0,0.0,0.0,0.0,0.0,0.0,0.0,0.0,0.0,0.0,0.0,0.0,0.0,0.0,0.0,0.0,0.0,0.0,0.0,0.0,0.0,0.0,0.0,0.0,0.0,0.0,0.0,0.0,0.0,0.0,0.0,0.0,0.0,0.0,0.0,0.0,0.0,0.0,0.0,0.0,0.0,0.0,0.0,0.0,0.0,0.0,0.0,0.0,0.0,0.0,0.0,0.0,0.0,0.0,0.0,0.0,0.0,0.0,0.0,0.0,0.0,0.0,0.0,0.0,0.0,0.0,0.0,0.0,0.0,0.0,0.0,0.0,0.0,0.0,0.0,0.0,0.0,0.0,0.0,0.0,0.0,0.0,0.0,0.0,0.0,0.0,0.0,0.0,0.0,0.0,0.0,0.0,0.0,0.0,0.0,0.0,0.0,0.0,0.0,0.0,0.0,0.0,0.0,0.0,0.0,0.0,0.0,0.0,0.0,0.0,0.0,0.0,0.0,0.0,0.0,0.0,0.0,0.0,0.0,0.0,0.0,0.0,0.0,0.0,0.0,0.0,0.0,0.0,0.0,0.0,0.0,0.0,0.0,0.0,0.0,0.0,0.0,0.0,0.0,0.0,0.0,0.0,0.0,0.0,0.0,0.0,0.0,0.0,0.0,0.0,0.0,0.0,0.0,0.0,0.0,0.0,0.0,0.0,0.0,0.0,0.0,0.0,0.0,0.0,0.0,0.0,0.0,0.0,0.0,0.0,0.0,0.0,0.0,0.0,0.0,0.0,0.0,0.0,0.0,0.0,0.0,0.0,0.0,0.0,0.0,0.0,0.0,0.0,0.0,0.0,0.0,0.0,0.0,0.0,0.0,0.0,0.0,0.0,0.0,0.0,0.0,0.0,0.0,0.0,0.0,0.0,0.0,0.0,0.0,0.0,0.0,0.0,0.0,0.0,0.0,0.0,0.0,0.0,0.0,0.0,0.0,0.0,0.0,0.0,0.0,0.0,0.0,0.0,0.0,0.0,0.0,0.0,0.0,0.0,0.0,0.0,0.0,0.0,0.0,0.0,0.0,0.0,0.0,0.0,0.0,0.0,0.0,0.0,0.0,0.0,0.0,0.0,0.0,0.0,0.0,0.0,0.0,0.0,0.0,0.0,0.0,0.0,0.0,0.0,0.0,0.0,0.0,0.0,0.0,0.0,0.0,0.0,0.0,0.0,0.0,0.0,0.0,0.0,0.0,0.0,0.0,0.0,0.0,0.0,0.0,0.0,0.0,0.0,0.0,0.0,0.0,0.0,0.0,0.0,0.0,0.0,0.0,0.0,0.0,0.0,0.0,0.0,0.0,0.0,0.0,0.0,0.0,0.0,0.0,0.0,0.0,0.0,0.0,0.0,0.0,0.0,0.0,0.0,0.0,0.0,0.0,0.0,0.0,0.0,0.0,0.0,0.0,0.0,0.0,0.0,0.0,0.0,0.0,0.0,0.0,0.0,0.0,0.0,0.0,0.0,0.0,0.0,0.0,0.0,0.0,0.0,0.0,0.0,0.0,0.0,0.0,0.0,0.0,0.0,0.0,0.0,0.0,0.0,0.0,0.0,0.0,0.0,0.0,0.0,0.0,0.0,0.0,0.0,0.0,0.0,0.0,0.0,0.0,0.0,0.0,0.0,0.0,0.0,0.0,0.0,0.0,0.0,0.0,0.0,0.0,0.0,0.0,0.0,0.0,0.0,0.0,0.0,0.0,0.0,0.0,0.0,0.0,0.0,0.0,0.0,0.0,0.0,0.0,0.0,0.0,0.0,0.0,0.0,0.0,0.0,0.0,0.0,0.0,0.0,0.0,0.0,0.0,0.0,0.0,0.0,0.0,0.0,0.0,0.0,0.0,0.0,0.0,0.0,0.0,0.0,0.0,0.0,0.0,0.0,0.0,0.0,0.0,0.0,0.0,0.0,0.0,0.0,0.0,0.0,0.0,0.0,0.0,0.0,0.0,0.0,0.0,0.0,0.0,0.0,0.0,0.0,0.0,0.0,0.0,0.0,0.0,0.0,0.0,0.0,0.0,0.0,0.0,0.0,0.0,0.0,0.0,0.0,0.0,0.0,0.0,0.0,0.0,0.0,0.0,0.0,0.0,0.0,0.0,0.0,0.0,0.0,0.0,0.0,0.0,0.0,0.0,0.0,0.0,0.0,0.0,0.0,0.0,0.0,0.0,0.0,0.0,0.0,0.0,0.0,0.0,0.0,-1.0139,0.0,0.0,0.0,0.0,0.0,0.0,0.0,0.0,0.0,0.0,0.0,0.0,0.0,0.0,0.0,0.0,0.0,0.0,0.0,0.0,0.0,0.0,0.0,0.0,0.0,0.0,0.0,0.0,0.0,0.0,0.0,0.0,0.0,0.0,0.0,0.0,0.0,0.0,0.0,0.0,0.0,0.0,0.0,0.0,0.0,0.0,0.0,0.0,0.0,0.0,0.0,0.0,0.0,0.0,0.0,0.0,0.0,0.0,0.0,0.0,0.0,0.0,0.0,0.0,0.0,0.0,0.0,0.0,0.0,0.0,0.0,0.0,0.0,0.0,0.0,0.0,0.0,0.0,0.0,0.0,0.0,0.0,0.0,0.0,0.0,0.0,0.0,0.0,0.0,0.0,0.0,0.0,0.0,0.0,0.0,0.0,0.0,0.0,0.0,0.0,0.0,0.0,0.0,0.0,0.0,0.0,0.0,0.0,0.0,0.0,-1.0285,-1.0195,-1.0195,-1.0384,-1.084,0.0,0.0,0.0,0.0,0.0,0.0,0.0,0.0,0.0,0.0,0.0,0.0,0.0,0.0,0.0,0.0,0.0,0.0,0.0,0.0,0.0,0.0,0.0,0.0,0.0,0.0,0.0,0.0,0.0,0.0,0.0,0.0,0.0,0.0,0.0,0.0,0.0,0.0,0.0,0.0,0.0,0.0,0.0,0.0,0.0,0.0,0.0,0.0,0.0,0.0,0.0,0.0,0.0,0.0,0.0,0.0,0.0,0.0,0.0,0.0,0.0,0.0,0.0,0.0,0.0,0.0,0.0,0.0,0.0,0.0,0.0,0.0,0.0,0.0,0.0,0.0,0.0,0.0,0.0,0.0,0.0,0.0,0.0,0.0,0.0,0.0,0.0,0.0,0.0,0.0,0.0,0.0,0.0,0.0,0.0,0.0,0.0,0.0,0.0,0.0,0.0,0.0,0.0,0.0,0.0,0.0,0.0,0.0,0.0,0.0,0.0,0.0,-1.0476,-1.0946,-1.1935,0.0,0.0,0.0,0.0,0.0,0.0,0.0,0.0,0.0,0.0,0.0,0.0,0.0,0.0,0.0,0.0,0.0,0.0,0.0,0.0,0.0,0.0,0.0,0.0,0.0,0.0,0.0,0.0,0.0,0.0,0.0,0.0,0.0,0.0,0.0,0.0,0.0,0.0,0.0,0.0,0.0,0.0,0.0,0.0,0.0,0.0,0.0,0.0,0.0,0.0,0.0,0.0,0.0,0.0,0.0,0.0,0.0,0.0,0.0,0.0,0.0,0.0,0.0,0.0,0.0,0.0,0.0,0.0,0.0,0.0,0.0,0.0,0.0,0.0,0.0,0.0,0.0,0.0,0.0,0.0,0.0,0.0,0.0,0.0,0.0,0.0,0.0,0.0,0.0,0.0,0.0,0.0,0.0,0.0,0.0,0.0,0.0,0.0,0.0,0.0,0.0,0.0,0.0,0.0,0.0,0.0,0.0,0.0,0.0,0.0,-1.0645,-1.1348,-1.133,0.0,-1.3468,0.0,0.0,0.0,0.0,0.0,0.0,0.0,0.0,0.0,0.0,0.0,0.0,0.0,0.0,0.0,0.0,0.0,0.0,0.0,0.0,0.0,0.0,0.0,0.0,0.0,0.0,0.0,0.0,0.0,0.0,0.0,0.0,0.0,0.0,0.0,0.0,0.0,0.0,0.0,0.0,0.0,0.0,0.0,0.0,0.0,0.0,0.0,0.0,0.0,0.0,0.0,0.0,0.0,0.0,0.0,0.0,0.0,0.0,0.0,0.0,0.0,0.0,0.0,0.0,0.0,0.0,0.0,0.0,0.0,0.0,0.0,0.0,0.0,0.0,0.0,0.0,0.0,0.0,0.0,0.0,0.0,0.0,0.0,0.0,0.0,0.0,0.0,0.0,0.0,0.0,0.0,0.0,0.0,0.0,0.0,0.0,0.0,0.0,0.0,0.0,0.0,0.0,0.0,0.0,0.0,0.0,0.0,0.0,0.0,0.0,-1.1173,-1.1508,-1.2395,-1.2938,0.0,0.0,0.0,0.0,0.0,0.0,0.0,0.0,0.0,0.0,0.0,0.0,0.0,0.0,0.0,0.0,0.0,0.0,0.0,0.0,0.0,0.0,0.0,0.0,0.0,0.0,0.0,0.0,0.0,0.0,0.0,0.0,0.0,0.0,0.0,0.0,0.0,0.0,0.0,0.0,0.0,0.0,0.0,0.0,0.0,0.0,0.0,0.0,0.0,0.0,0.0,0.0,0.0,0.0,0.0,0.0,0.0,0.0,0.0,0.0,0.0,0.0,0.0,0.0,0.0,0.0,0.0,0.0,0.0,0.0,0.0,0.0,0.0,0.0,0.0,0.0,0.0,0.0,0.0,0.0,0.0,0.0,0.0,0.0,0.0,0.0,0.0,0.0,0.0,0.0,0.0,0.0,0.0,0.0,0.0,0.0,0.0,0.0,0.0,0.0,0.0,0.0,0.0,0.0,0.0,0.0,0.0,0.0,0.0,0.0,-1.121,-1.1719,-1.2232,-1.3523,-1.3846,-1.2985,0.0,0.0,0.0,0.0,0.0,0.0,0.0,0.0,0.0,0.0,0.0,0.0,0.0,0.0,0.0,0.0,0.0,0.0,0.0,0.0,0.0,0.0,0.0,0.0,0.0,0.0,0.0,0.0,0.0,0.0,0.0,0.0,0.0,0.0,0.0,0.0,0.0,0.0,0.0,0.0,0.0,0.0,0.0,0.0,0.0,0.0,0.0,0.0,0.0,0.0,0.0,0.0,0.0,0.0,0.0,0.0,0.0,0.0,0.0,0.0,0.0,0.0,0.0,0.0,0.0,0.0,0.0,0.0,0.0,0.0,0.0,0.0,0.0,0.0,0.0,0.0,0.0,0.0,0.0,0.0,0.0,0.0,0.0,0.0,0.0,0.0,0.0,0.0,0.0,0.0,0.0,0.0,0.0,0.0,0.0,0.0,0.0,0.0,0.0,0.0,0.0,0.0,0.0,0.0,0.0,0.0,0.0,0.0,-1.1497,-1.1523,-1.2277,-1.3833,-1.4702,-1.4736,0.0,0.0,0.0,0.0,0.0,0.0,0.0,0.0,0.0,0.0,0.0,0.0,0.0,0.0,0.0,0.0,0.0,0.0,0.0,0.0,0.0,0.0,0.0,0.0,0.0,0.0,0.0,0.0,0.0,0.0,0.0,0.0,0.0,0.0,0.0,0.0,0.0,0.0,0.0,0.0,0.0,0.0,0.0,0.0,0.0,0.0,0.0,0.0,0.0,0.0,0.0,0.0,0.0,0.0,0.0,0.0,0.0,0.0,0.0,0.0,0.0,0.0,0.0,0.0,0.0,0.0,0.0,0.0,0.0,0.0,0.0,0.0,0.0,0.0,0.0,0.0,0.0,0.0,0.0,0.0,0.0,0.0,0.0,0.0,0.0,0.0,0.0,0.0,0.0,0.0,0.0,0.0,0.0,0.0,0.0,0.0,0.0,0.0,0.0,0.0,0.0,0.0,0.0,0.0,0.0,0.0,0.0,0.0,0.0,-1.159,-1.2615,-1.3714,-1.4778,-1.4569,-1.4016,0.0,0.0,0.0,0.0,0.0,0.0,0.0,0.0,0.0,0.0,0.0,0.0,0.0,0.0,0.0,0.0,0.0,0.0,0.0,0.0,0.0,0.0,0.0,0.0,0.0,0.0,0.0,0.0,0.0,0.0,0.0,0.0,0.0,0.0,0.0,0.0,0.0,0.0,0.0,0.0,0.0,0.0,0.0,0.0,0.0,0.0,0.0,0.0,0.0,0.0,0.0,0.0,0.0,0.0,0.0,0.0,0.0,0.0,0.0,0.0,0.0,0.0,0.0,0.0,0.0,0.0,0.0,0.0,0.0,0.0,0.0,0.0,0.0,0.0,0.0,0.0,0.0,0.0,0.0,0.0,0.0,0.0,0.0,0.0,0.0,0.0,0.0,0.0,0.0,0.0,0.0,0.0,0.0,0.0,0.0,0.0,0.0,0.0,0.0,0.0,0.0,0.0,0.0,0.0,0.0,0.0,0.0,0.0,0.0,-1.2394,0.0,-1.4766,-1.526,-1.4704,-1.3817,0.0,0.0,0.0,0.0,0.0,0.0,0.0,0.0,0.0,0.0,0.0,0.0,0.0,0.0,0.0,0.0,0.0,0.0,0.0,0.0,0.0,0.0,0.0,0.0,0.0,0.0,0.0,0.0,0.0,0.0,0.0,0.0,0.0,0.0,0.0,0.0,0.0,0.0,0.0,0.0,0.0,0.0,0.0,0.0,0.0,0.0,0.0,0.0,0.0,0.0,0.0,0.0,0.0,0.0,0.0,0.0,0.0,0.0,0.0,0.0,0.0,0.0,0.0,0.0,0.0,0.0,0.0,0.0,0.0,0.0,0.0,0.0,0.0,0.0,0.0,0.0,0.0,0.0,0.0,0.0,0.0,0.0,0.0,0.0,0.0,0.0,0.0,0.0,0.0,0.0,0.0,0.0,0.0,0.0,0.0,0.0,0.0,0.0,0.0,0.0,0.0,0.0,0.0,0.0,0.0,0.0,0.0,0.0,-1.2361,-1.4022,-1.4917,-1.5318,-1.5299,-1.5168,-1.4342,0.0,0.0,0.0,0.0,0.0,0.0,0.0,0.0,0.0,0.0,0.0,0.0,0.0,0.0,0.0,0.0,0.0,0.0,0.0,0.0,0.0,0.0,0.0,0.0,0.0,0.0,0.0,0.0,0.0,0.0,0.0,0.0,0.0,0.0,0.0,0.0,0.0,0.0,0.0,0.0,0.0,0.0,0.0,0.0,0.0,0.0,0.0,0.0,0.0,0.0,0.0,0.0,0.0,0.0,0.0,0.0,0.0,0.0,0.0,0.0,0.0,0.0,0.0,0.0,0.0,0.0,0.0,0.0,0.0,0.0,0.0,0.0,0.0,0.0,0.0,0.0,0.0,0.0,0.0,0.0,0.0,0.0,0.0,0.0,0.0,0.0,0.0,0.0,0.0,0.0,0.0,0.0,0.0,0.0,0.0,0.0,0.0,0.0,0.0,0.0,0.0,0.0,0.0,0.0,0.0,0.0,0.0,0.0,0.0,-1.4081,-1.4956,-1.5376,-1.528,-1.4704,-1.3798,0.0,0.0,0.0,0.0,0.0,0.0,0.0,0.0,0.0,0.0,0.0,0.0,0.0,0.0,0.0,0.0,0.0,0.0,0.0,0.0,0.0,0.0,0.0,0.0,0.0,0.0,0.0,0.0,0.0,0.0,0.0,0.0,0.0,0.0,0.0,0.0,0.0,0.0,0.0,0.0,0.0,0.0,0.0,0.0,0.0,0.0,0.0,0.0,0.0,0.0,0.0,0.0,0.0,0.0,0.0,0.0,0.0,0.0,0.0,0.0,0.0,0.0,0.0,0.0,0.0,0.0,0.0,0.0,0.0,0.0,0.0,0.0,0.0,0.0,0.0,0.0,0.0,0.0,0.0,0.0,0.0,0.0,0.0,0.0,0.0,0.0,0.0,0.0,0.0,0.0,0.0,0.0,0.0,0.0,0.0,0.0,0.0,0.0,0.0,0.0,0.0,0.0,0.0,0.0,0.0,0.0,0.0,0.0,0.0,-1.5019,-1.5265,-1.5371,-1.5286,-1.4748,-1.4019,-1.3114,0.0,0.0,0.0,0.0,0.0,0.0,0.0,0.0,0.0,0.0,0.0,0.0,0.0,0.0,0.0,0.0,0.0,0.0,0.0,0.0,0.0,0.0,0.0,0.0,0.0,0.0,0.0,0.0,0.0,0.0,0.0,0.0,0.0,0.0,0.0,0.0,0.0,0.0,0.0,0.0,0.0,0.0,0.0,0.0,0.0,0.0,0.0,0.0,0.0,0.0,0.0,0.0,0.0,0.0,0.0,0.0,0.0,0.0,0.0,0.0,0.0,0.0,0.0,0.0,0.0,0.0,0.0,0.0,0.0,0.0,0.0,0.0,0.0,0.0,0.0,0.0,0.0,0.0,0.0,0.0,0.0,0.0,0.0,0.0,0.0,0.0,0.0,0.0,0.0,0.0,0.0,0.0,0.0,0.0,0.0,0.0,0.0,0.0,0.0,0.0,0.0,0.0,0.0,0.0,0.0,0.0,0.0,0.0,-1.6576,-1.5898,-1.5491,-1.5397,-1.5305,-1.4824,0.0,0.0,0.0,0.0,0.0,0.0,0.0,0.0,0.0,0.0,0.0,0.0,0.0,0.0,0.0,0.0,0.0,0.0,0.0,0.0,0.0,0.0,0.0,0.0,0.0,0.0,0.0,0.0,0.0,0.0,0.0,0.0,0.0,0.0,0.0,0.0,0.0,0.0,0.0,0.0,0.0,0.0,0.0,0.0,0.0,0.0,0.0,0.0,0.0,0.0,0.0,0.0,0.0,0.0,0.0,0.0,0.0,0.0,0.0,0.0,0.0,0.0,0.0,0.0,0.0,0.0,0.0,0.0,0.0,0.0,0.0,0.0,0.0,0.0,0.0,0.0,0.0,0.0,0.0,0.0,0.0,0.0,0.0,0.0,0.0,0.0,0.0,0.0,0.0,0.0,0.0,0.0,0.0,0.0,0.0,0.0,0.0,0.0,0.0,0.0,0.0,0.0,0.0,0.0,0.0,0.0,0.0,0.0,0.0,-1.6601,-1.6981,-1.6863,-1.6223,-1.6135,-1.536,0.0,0.0,0.0,0.0,0.0,0.0,0.0,0.0,0.0,0.0,0.0,0.0,0.0,0.0,0.0,0.0,0.0,0.0,0.0,0.0,0.0,0.0,0.0,0.0,0.0,0.0,0.0,0.0,0.0,0.0,0.0,0.0,0.0,0.0,0.0,0.0,0.0,0.0,0.0,0.0,0.0,0.0,0.0,0.0,0.0,0.0,0.0,0.0,0.0,0.0,0.0,0.0,0.0,0.0,0.0,0.0,0.0,0.0,0.0,0.0,0.0,0.0,0.0,0.0,0.0,0.0,0.0,0.0,0.0,0.0,0.0,0.0,0.0,0.0,0.0,0.0,0.0,0.0,0.0,0.0,0.0,0.0,0.0,0.0,0.0,0.0,0.0,0.0,0.0,0.0,0.0,0.0,0.0,0.0,0.0,0.0,0.0,0.0,0.0,0.0,0.0,0.0,0.0,0.0,0.0,0.0,0.0,0.0,-1.6796,-1.71,-1.7898,-1.8046,-1.7479,-1.6747,-1.5869,0.0,0.0,0.0,0.0,0.0,0.0,0.0,0.0,0.0,0.0,0.0,0.0,0.0,0.0,0.0,0.0,0.0,0.0,0.0,0.0,0.0,0.0,0.0,0.0,0.0,0.0,0.0,0.0,0.0,0.0,0.0,0.0,0.0,0.0,0.0,0.0,0.0,0.0,0.0,0.0,0.0,0.0,0.0,0.0,0.0,0.0,0.0,0.0,0.0,0.0,0.0,0.0,0.0,0.0,0.0,0.0,0.0,0.0,0.0,0.0,0.0,0.0,0.0,0.0,0.0,0.0,0.0,0.0,0.0,0.0,0.0,0.0,0.0,0.0,0.0,0.0,0.0,0.0,0.0,0.0,0.0,0.0,0.0,0.0,0.0,0.0,0.0,0.0,0.0,0.0,0.0,0.0,0.0,0.0,0.0,0.0,0.0,0.0,0.0,0.0,0.0,0.0,0.0,0.0,0.0,0.0,0.0,0.0,-1.7061,-1.7769,-1.857,-1.8977,-1.8868,-1.7308,-1.6356,0.0,0.0,0.0,0.0,0.0,0.0,0.0,0.0,0.0,0.0,0.0,0.0,0.0,0.0,0.0,0.0,0.0,0.0,0.0,0.0,0.0,0.0,0.0,0.0,0.0,0.0,0.0,0.0,0.0,0.0,0.0,0.0,0.0,0.0,0.0,0.0,0.0,0.0,0.0,0.0,0.0,0.0,0.0,0.0,0.0,0.0,0.0,0.0,0.0,0.0,0.0,0.0,0.0,0.0,0.0,0.0,0.0,0.0,0.0,0.0,0.0,0.0,0.0,0.0,0.0,0.0,0.0,0.0,0.0,0.0,0.0,0.0,0.0,0.0,0.0,0.0,0.0,0.0,0.0,0.0,0.0,0.0,0.0,0.0,0.0,0.0,0.0,0.0,0.0,0.0,0.0,0.0,0.0,0.0,0.0,0.0,0.0,0.0,0.0,0.0,0.0,0.0,0.0,0.0,0.0,0.0,0.0,0.0,-1.7056,-1.7799,-1.8548,-1.9172,-1.972,-1.8118,-1.6913,0.0,0.0,0.0,0.0,0.0,0.0,0.0,0.0,0.0,0.0,0.0,0.0,0.0,0.0,0.0,0.0,0.0,0.0,0.0,0.0,0.0,0.0,0.0,0.0,0.0,0.0,0.0,0.0,0.0,0.0,0.0,0.0,0.0,0.0,0.0,0.0,0.0,0.0,0.0,0.0,0.0,0.0,0.0,0.0,0.0,0.0,0.0,0.0,-1.2055,0.0,0.0,0.0,0.0,0.0,0.0,0.0,0.0,0.0,0.0,0.0,0.0,0.0,0.0,0.0,0.0,0.0,0.0,0.0,0.0,0.0,0.0,0.0,0.0,0.0,0.0,0.0,0.0,0.0,0.0,0.0,0.0,0.0,0.0,0.0,0.0,0.0,0.0,0.0,0.0,0.0,0.0,0.0,0.0,0.0,0.0,0.0,0.0,0.0,0.0,0.0,0.0,0.0,0.0,0.0,0.0,0.0,0.0,0.0,-1.683,-1.7206,-1.831,-1.8867,-1.8792,-1.7923,-1.725,0.0,0.0,0.0,0.0,0.0,0.0,0.0,0.0,0.0,0.0,0.0,0.0,0.0,0.0,0.0,0.0,0.0,0.0,0.0,0.0,0.0,0.0,0.0,0.0,0.0,0.0,0.0,0.0,0.0,0.0,0.0,0.0,0.0,0.0,0.0,0.0,0.0,0.0,0.0,0.0,0.0,0.0,0.0,0.0,0.0,0.0,0.0,0.0,0.0,0.0,0.0,0.0,0.0,0.0,0.0,0.0,0.0,0.0,0.0,0.0,0.0,0.0,0.0,0.0,0.0,0.0,0.0,0.0,0.0,0.0,0.0,0.0,0.0,0.0,0.0,0.0,0.0,0.0,0.0,0.0,0.0,0.0,0.0,0.0,0.0,0.0,0.0,0.0,0.0,0.0,0.0,0.0,0.0,0.0,0.0,0.0,0.0,0.0,0.0,0.0,0.0,0.0,0.0,0.0,0.0,0.0,0.0,-1.5623,-1.6448,-1.6558,-1.7812,-1.8158,-1.7511,-1.7316,-1.7197,-1.7163,0.0,0.0,0.0,0.0,0.0,0.0,0.0,0.0,0.0,0.0,0.0,0.0,0.0,0.0,0.0,0.0,0.0,0.0,0.0,0.0,0.0,0.0,0.0,0.0,0.0,0.0,0.0,0.0,0.0,0.0,0.0,0.0,0.0,0.0,0.0,0.0,0.0,0.0,-1.185,-1.2571,0.0,0.0,0.0,0.0,0.0,0.0,0.0,0.0,-1.2993,0.0,0.0,0.0,0.0,0.0,0.0,0.0,0.0,0.0,0.0,0.0,0.0,0.0,0.0,0.0,0.0,0.0,0.0,0.0,0.0,0.0,0.0,0.0,0.0,0.0,0.0,0.0,0.0,0.0,0.0,0.0,0.0,0.0,0.0,0.0,0.0,0.0,0.0,0.0,0.0,0.0,0.0,0.0,0.0,0.0,0.0,0.0,0.0,0.0,0.0,0.0,0.0,0.0,0.0,0.0,0.0,-1.4092,-1.5077,-1.5904,-1.6493,-1.6641,-1.6968,-1.7454,-1.6725,-1.6324,-1.6281,0.0,0.0,0.0,0.0,0.0,0.0,0.0,0.0,0.0,0.0,0.0,0.0,0.0,0.0,0.0,0.0,0.0,0.0,0.0,0.0,0.0,0.0,0.0,0.0,0.0,0.0,0.0,0.0,0.0,0.0,0.0,0.0,0.0,0.0,0.0,0.0,0.0,0.0,0.0,-1.3806,-1.4157,0.0,0.0,0.0,0.0,0.0,0.0,0.0,0.0,-1.4411,0.0,0.0,0.0,0.0,0.0,0.0,0.0,0.0,0.0,0.0,0.0,0.0,0.0,0.0,0.0,0.0,0.0,0.0,0.0,0.0,0.0,0.0,0.0,0.0,0.0,0.0,0.0,0.0,0.0,0.0,0.0,0.0,0.0,0.0,0.0,0.0,0.0,0.0,0.0,0.0,0.0,0.0,0.0,0.0,0.0,0.0,0.0,0.0,0.0,0.0,0.0,0.0,0.0,0.0,0.0,-1.3412,-1.4294,-1.5102,-1.5846,-1.6175,-1.6304,-1.6215,-1.6176,-1.5965,0.0,0.0,0.0,0.0,0.0,0.0,0.0,0.0,0.0,0.0,0.0,0.0,0.0,0.0,0.0,0.0,0.0,0.0,0.0,0.0,0.0,0.0,0.0,0.0,0.0,0.0,0.0,0.0,0.0,0.0,0.0,0.0,0.0,0.0,0.0,0.0,0.0,0.0,0.0,0.0,-1.4883,-1.5605,-1.6014,0.0,0.0,0.0,0.0,0.0,0.0,-1.6124,-1.5701,0.0,0.0,0.0,0.0,0.0,0.0,0.0,0.0,0.0,0.0,0.0,0.0,0.0,0.0,0.0,0.0,0.0,0.0,0.0,0.0,0.0,0.0,0.0,0.0,0.0,0.0,0.0,0.0,0.0,0.0,0.0,0.0,0.0,0.0,0.0,0.0,0.0,0.0,0.0,0.0,0.0,0.0,0.0,0.0,0.0,0.0,0.0,0.0,0.0,0.0,0.0,0.0,0.0,0.0,0.0,-1.279,-1.3647,-1.4495,-1.5295,-1.5868,-1.5797,-1.5049,-1.5643,-1.566,0.0,0.0,0.0,0.0,0.0,0.0,0.0,0.0,0.0,0.0,0.0,0.0,0.0,0.0,0.0,0.0,0.0,0.0,0.0,0.0,0.0,0.0,0.0,0.0,0.0,0.0,0.0,0.0,0.0,0.0,0.0,0.0,0.0,0.0,0.0,0.0,0.0,0.0,0.0,0.0,0.0,-1.6777,-1.6934,-1.7556,0.0,0.0,0.0,0.0,-1.7815,-1.7241,0.0,0.0,0.0,0.0,0.0,0.0,0.0,0.0,0.0,0.0,0.0,0.0,0.0,0.0,0.0,0.0,0.0,0.0,0.0,0.0,0.0,0.0,0.0,0.0,0.0,0.0,0.0,0.0,0.0,0.0,0.0,0.0,0.0,0.0,0.0,0.0,0.0,0.0,0.0,0.0,0.0,0.0,0.0,0.0,0.0,0.0,0.0,0.0,0.0,0.0,0.0,0.0,0.0,0.0,0.0,0.0,-1.2791,-1.3666,-1.4495,-1.5239,-1.5325,-1.522,-1.5011,-1.5083,-1.5082,0.0,0.0,0.0,0.0,0.0,0.0,0.0,0.0,0.0,0.0,0.0,0.0,0.0,0.0,0.0,0.0,0.0,0.0,0.0,0.0,0.0,0.0,0.0,0.0,0.0,0.0,0.0,0.0,0.0,0.0,0.0,0.0,0.0,0.0,0.0,0.0,0.0,0.0,0.0,0.0,0.0,-1.697,-1.7754,-1.7929,-1.8002,0.0,0.0,-1.7893,-1.7879,-1.7794,0.0,0.0,0.0,0.0,0.0,0.0,0.0,0.0,0.0,0.0,0.0,0.0,0.0,0.0,0.0,0.0,0.0,0.0,0.0,0.0,0.0,0.0,0.0,0.0,0.0,0.0,0.0,0.0,0.0,0.0,0.0,0.0,0.0,0.0,0.0,0.0,0.0,0.0,0.0,0.0,0.0,0.0,0.0,0.0,0.0,0.0,0.0,0.0,0.0,0.0,0.0,0.0,0.0,0.0,0.0,-1.1919,-1.2792,-1.3647,-1.4476,-1.5264,-1.5224,-1.5152,-1.5078,-1.5023,-1.5019,0.0,0.0,0.0,0.0,0.0,0.0,0.0,0.0,0.0,0.0,0.0,0.0,0.0,0.0,0.0,0.0,0.0,0.0,0.0,0.0,0.0,0.0,0.0,0.0,0.0,0.0,0.0,0.0,0.0,0.0,0.0,0.0,0.0,0.0,0.0,0.0,0.0,0.0,0.0,0.0,0.0,0.0,-1.9275,-1.9902,0.0,0.0,0.0,-2.0693,-2.0175,0.0,0.0,0.0,0.0,0.0,0.0,0.0,0.0,0.0,0.0,0.0,0.0,0.0,0.0,0.0,0.0,0.0,0.0,0.0,0.0,0.0,0.0,0.0,0.0,0.0,0.0,0.0,0.0,0.0,0.0,0.0,0.0,0.0,0.0,0.0,0.0,0.0,0.0,0.0,0.0,0.0,0.0,0.0,0.0,0.0,0.0,0.0,0.0,0.0,0.0,0.0,0.0,0.0,0.0,0.0,0.0,0.0,-1.2773,-1.3646,-1.4497,-1.5267,-1.5236,-1.5176,-1.5117,-1.5045,0.0,0.0,0.0,0.0,0.0,0.0,0.0,0.0,0.0,0.0,0.0,0.0,0.0,0.0,0.0,0.0,0.0,0.0,0.0,0.0,0.0,0.0,0.0,0.0,0.0,0.0,0.0,-0.6825,0.0,0.0,0.0,0.0,0.0,0.0,0.0,0.0,0.0,0.0,0.0,0.0,0.0,0.0,-1.8931,-2.0656,-2.1463,-2.2168,0.0,0.0,-2.2877,-2.2215,-2.1399,-2.0525,0.0,0.0,0.0,0.0,0.0,0.0,0.0,0.0,0.0,0.0,0.0,0.0,0.0,0.0,0.0,0.0,0.0,0.0,0.0,0.0,0.0,0.0,0.0,0.0,0.0,0.0,0.0,0.0,0.0,0.0,0.0,0.0,0.0,0.0,0.0,0.0,0.0,0.0,0.0,0.0,0.0,0.0,0.0,0.0,0.0,0.0,0.0,0.0,0.0,0.0,0.0,0.0,0.0,0.0,0.0,-1.2812,-1.3664,-1.4514,-1.526,-1.5238,-1.5163,-1.5097,-1.5108,-1.5109,0.0,0.0,0.0,0.0,0.0,0.0,0.0,0.0,0.0,0.0,0.0,0.0,0.0,0.0,0.0,0.0,0.0,0.0,0.0,0.0,0.0,0.0,0.0,0.0,0.0,0.0,0.0,0.0,0.0,0.0,0.0,0.0,0.0,0.0,0.0,0.0,0.0,0.0,0.0,0.0,0.0,-1.9753,-2.1488,-2.177,-2.2128,0.0,0.0,-2.3086,-2.302,-2.2283,-2.1434,-2.0546,0.0,0.0,0.0,0.0,0.0,0.0,0.0,0.0,0.0,0.0,0.0,0.0,0.0,0.0,0.0,0.0,0.0,0.0,0.0,0.0,0.0,0.0,0.0,0.0,0.0,0.0,0.0,0.0,0.0,0.0,0.0,0.0,0.0,0.0,0.0,0.0,0.0,0.0,0.0,0.0,0.0,0.0,0.0,0.0,0.0,0.0,0.0,0.0,0.0,0.0,0.0,0.0,0.0,-1.275,-1.3574,-1.4443,-1.504,-1.5297,-1.5768,-1.5719,-1.5124,-1.5618,-1.5654,0.0,0.0,0.0,0.0,0.0,0.0,0.0,0.0,0.0,0.0,0.0,0.0,0.0,0.0,0.0,0.0,0.0,0.0,0.0,0.0,0.0,0.0,0.0,0.0,0.0,0.0,0.0,0.0,-0.9437,-0.9863,-1.0234,0.0,0.0,0.0,0.0,0.0,0.0,0.0,0.0,0.0,0.0,-2.0623,-2.2355,-2.305,0.0,0.0,-2.4687,-2.4526,-2.3995,-2.3618,-2.2931,-2.1529,-2.058,0.0,0.0,0.0,0.0,0.0,0.0,0.0,0.0,0.0,0.0,0.0,0.0,0.0,0.0,0.0,0.0,0.0,0.0,0.0,0.0,0.0,0.0,0.0,0.0,0.0,0.0,0.0,0.0,0.0,0.0,0.0,0.0,0.0,0.0,0.0,0.0,0.0,0.0,0.0,0.0,0.0,0.0,0.0,0.0,0.0,0.0,0.0,0.0,0.0,0.0,0.0,0.0,-1.3495,-1.41,-1.5179,-1.5734,-1.5697,-1.6479,-1.6569,-1.5926,-1.6455,-1.6357,0.0,0.0,0.0,0.0,0.0,0.0,0.0,0.0,0.0,0.0,0.0,0.0,0.0,0.0,0.0,0.0,0.0,0.0,0.0,0.0,0.0,0.0,0.0,0.0,0.0,0.0,0.0,0.0,-0.9892,-1.0361,-1.0646,0.0,0.0,0.0,0.0,0.0,0.0,0.0,0.0,0.0,0.0,-2.151,-2.3238,-2.4013,-2.4709,-2.5578,-2.5701,-2.5488,-2.4883,-2.457,-2.3983,-2.2773,0.0,0.0,0.0,0.0,0.0,0.0,0.0,0.0,0.0,0.0,0.0,0.0,0.0,0.0,0.0,0.0,0.0,0.0,0.0,0.0,0.0,0.0,0.0,0.0,0.0,0.0,0.0,0.0,0.0,0.0,-1.2786,0.0,0.0,0.0,0.0,0.0,0.0,0.0,0.0,0.0,0.0,0.0,0.0,0.0,0.0,0.0,0.0,0.0,0.0,0.0,0.0,0.0,0.0,-1.4101,-1.4155,-1.577,-1.6569,-1.6609,-1.7352,-1.7722,-1.7611,-1.76,-1.7195,-1.6411,0.0,0.0,0.0,0.0,0.0,0.0,0.0,0.0,0.0,0.0,0.0,0.0,0.0,0.0,0.0,0.0,0.0,0.0,0.0,0.0,0.0,0.0,0.0,0.0,0.0,0.0,-1.0225,-1.0305,-1.0685,0.0,0.0,0.0,0.0,0.0,0.0,0.0,0.0,0.0,0.0,-2.1208,-2.2405,-2.4099,-2.439,-2.4754,-2.5563,-2.5689,-2.5694,-2.5655,-2.4955,-2.4408,0.0,0.0,0.0,0.0,0.0,0.0,0.0,0.0,0.0,0.0,0.0,0.0,0.0,0.0,0.0,0.0,0.0,0.0,0.0,0.0,0.0,0.0,0.0,0.0,0.0,0.0,0.0,-1.415,-1.3689,0.0,0.0,0.0,0.0,0.0,0.0,0.0,0.0,0.0,0.0,0.0,-1.7146,-1.772,0.0,0.0,0.0,0.0,0.0,0.0,0.0,0.0,0.0,0.0,0.0,0.0,-1.5234,-1.5868,-1.6901,-1.7464,-1.743,-1.8222,-1.8365,-1.7718,-1.8225,-1.8122,-1.7282,0.0,0.0,0.0,0.0,0.0,0.0,0.0,0.0,0.0,0.0,0.0,0.0,0.0,0.0,0.0,0.0,0.0,0.0,0.0,0.0,0.0,0.0,0.0,0.0,0.0,-1.1638,0.0,0.0,0.0,0.0,0.0,0.0,0.0,0.0,0.0,0.0,0.0,-1.9196,-2.0349,-2.1718,-2.3008,-2.4187,-2.4875,-2.5379,0.0,0.0,0.0,0.0,0.0,0.0,0.0,0.0,0.0,0.0,0.0,0.0,0.0,0.0,-2.1683,-1.9933,-1.9618,-1.9634,-1.9623,0.0,0.0,0.0,0.0,0.0,0.0,0.0,0.0,0.0,0.0,0.0,0.0,0.0,0.0,0.0,0.0,-1.5447,0.0,0.0,0.0,0.0,0.0,0.0,0.0,0.0,-1.8343,-1.8879,-1.8929,-1.9499,-1.9778,0.0,-1.9197,-1.8025,0.0,0.0,0.0,0.0,0.0,0.0,0.0,0.0,-1.6579,-1.7169,-1.7963,-1.8329,-1.8294,-1.9072,-1.9219,-1.8593,-1.8832,-1.8693,-1.8122,-1.6797,-1.5808,0.0,0.0,0.0,0.0,0.0,0.0,0.0,0.0,0.0,0.0,0.0,0.0,0.0,0.0,0.0,0.0,0.0,0.0,0.0,0.0,0.0,0.0,0.0,-1.2786,0.0,0.0,0.0,0.0,0.0,0.0,0.0,0.0,0.0,-1.7507,-1.8781,-2.0091,-2.1238,-2.2567,-2.376,-2.4632,0.0,0.0,0.0,0.0,0.0,0.0,0.0,-2.5942,-2.5396,-2.5546,-2.5715,-2.5758,-2.6197,-2.6539,-2.6533,0.0,0.0,-2.2331,-2.1609,-2.1414,-2.1409,-2.1407,-2.1504,-2.1796,-2.2286,-2.2795,0.0,0.0,0.0,0.0,0.0,0.0,0.0,0.0,-1.8043,-1.808,0.0,-1.809,0.0,0.0,0.0,0.0,0.0,-1.8042,0.0,0.0,-1.9838,-2.0626,-2.0791,-2.2273,-2.3059,-2.3007,-2.1424,-2.0663,-2.0527,-1.8963,0.0,0.0,0.0,0.0,0.0,0.0,-1.8057,-1.8058,-1.884,-1.9219,-1.9162,-1.9893,-2.0249,-2.0157,-1.9376,-1.8961,-1.8923,-1.8156,-1.6996,-1.5424,-1.5225,0.0,0.0,0.0,0.0,0.0,0.0,0.0,0.0,0.0,0.0,0.0,0.0,0.0,0.0,0.0,0.0,0.0,0.0,0.0,0.0,-1.2939,0.0,0.0,0.0,0.0,0.0,0.0,0.0,0.0,0.0,0.0,-1.9284,-2.0009,-2.1165,-2.2809,0.0,0.0,0.0,0.0,-2.5604,-2.5607,-2.5654,-2.5718,-2.5757,-2.6402,-2.693,-2.7002,0.0,0.0,-2.8304,-2.8345,-2.8364,-2.8384,-2.8306,-2.7539,-2.5038,-2.3951,-2.3369,-2.333,-2.3371,-2.3585,-2.4285,-2.456,-2.4815,-2.3079,0.0,0.0,0.0,0.0,-2.0237,-2.0544,-2.0646,-2.1257,-2.1188,-2.0631,-2.0683,0.0,0.0,0.0,0.0,0.0,0.0,-2.0111,-2.0754,-2.1856,-2.2367,-2.241,-2.2866,-2.3103,-2.3065,-2.2617,-2.2422,-2.2441,-2.1914,-2.0409,-1.8063,0.0,0.0,0.0,0.0,-1.8914,-1.8906,-1.971,-2.0095,-2.0017,-2.0205,-2.0295,-2.0265,-2.0027,-1.9907,-1.9884,-1.9069,-1.8404,-1.7907,-1.6169,0.0,0.0,0.0,0.0,0.0,0.0,0.0,0.0,0.0,0.0,0.0,0.0,0.0,0.0,0.0,0.0,0.0,0.0,0.0,-1.5431,-1.609,-1.6461,0.0,0.0,0.0,0.0,0.0,0.0,0.0,0.0,0.0,-2.0989,-2.1278,-2.2055,0.0,0.0,-2.4608,-2.5464,-2.5595,-2.5604,-2.5604,0.0,0.0,0.0,-2.6823,-2.7197,-2.7812,-2.8594,-2.9122,-2.9148,-2.9677,-3.0088,-3.0054,-2.959,-2.8947,-2.8281,-2.7415,-2.6824,-2.6805,-2.681,-2.6873,-2.7107,-2.7185,-2.7243,-2.6648,-2.4134,-2.3389,-2.2798,-2.2377,-2.2871,-2.2936,-2.2722,-2.324,-2.2997,-2.2208,-2.2263,-2.1708,-2.0738,-2.0793,0.0,0.0,0.0,-2.182,-2.2348,-2.3212,-2.3605,-2.3646,-2.3982,-2.412,-2.4121,-2.3769,-2.3652,-2.3672,-2.3281,-2.209,-2.0116,0.0,0.0,-2.0019,-2.0191,-2.0452,-2.0752,-2.1221,-2.1451,-2.1397,-2.102,-2.0827,-2.0801,-2.0469,-2.0296,-2.0296,-1.9799,-1.9363,-1.9032,-1.7578,-1.6279,0.0,0.0,0.0,0.0,0.0,0.0,0.0,0.0,0.0,0.0,0.0,-0.8957,-0.9492,0.0,0.0,0.0,-1.4145,-1.5696,-1.7057,-1.7617,0.0,0.0,0.0,0.0,0.0,0.0,0.0,-1.9707,-2.0564,-2.1536,-2.2665,-2.2843,-2.321,-2.4222,-2.4609,-2.4996,-2.5517,0.0,-2.5636,-2.5636,-2.5666,-2.5889,-2.6403,-2.7066,-2.7929,-2.9111,-2.9704,-3.0039,-3.0062,-3.0511,-3.0825,-3.0769,-3.044,-3.0109,-3.0109,-2.9677,-2.9069,-2.8444,-2.8289,-2.8389,-2.8721,-2.8818,-2.8897,-2.9866,-2.8272,-2.6617,-2.5807,-2.561,-2.5614,-2.5193,-2.4505,-2.452,-2.4093,-2.3406,-2.3417,-2.3379,-2.3299,-2.3222,0.0,-2.3195,-2.3215,-2.3236,-2.3336,-2.4118,-2.451,-2.455,-2.5312,-2.5703,-2.5684,-2.4883,-2.4512,-2.4473,-2.3711,-2.332,-2.3379,-2.2519,-2.2441,-2.3004,-2.2295,-2.23,-2.307,-2.3026,-2.2979,-2.2885,-2.2121,-2.1671,-2.159,-2.0838,-2.0371,-2.0294,-2.0294,-1.9969,-1.9239,-1.9143,-1.7994,-1.5678,0.0,0.0,0.0,0.0,0.0,0.0,0.0,0.0,0.0,0.0,0.0,0.0,0.0,0.0,0.0,-1.5841,0.0,-1.7934,-1.807,0.0,0.0,0.0,-1.8298,-1.8293,-1.9082,-1.991,-2.0717,0.0,0.0,-2.4197,0.0,-2.4487,-2.4503,-2.5138,-2.5601,-2.5611,-2.5664,-2.5694,-2.5696,-2.5702,-2.5729,-2.6005,-2.7312,-2.8916,-3.0372,-3.087,-3.0855,-3.0855,-3.0875,-3.0894,-3.0914,-3.0914,-3.0895,-3.0895,-3.0798,-3.0409,-2.8865,-2.8572,-2.8786,-2.9528,-2.9703,-2.9899,-3.1988,-3.1052,-3.061,-2.9288,-2.747,-2.745,-2.735,-2.7175,-2.7164,-2.7066,-2.6883,-2.694,-2.6269,-2.5039,-2.4379,-2.4093,-2.4094,-2.4097,-2.4449,-2.5075,-2.5311,-2.539,-2.5409,-2.5605,-2.5703,-2.5684,-2.5488,-2.5391,-2.5391,-2.5195,-2.5078,-2.5059,-2.4238,-2.3574,-2.3102,-2.2901,-2.2885,-2.3109,-2.3026,-2.2968,-2.2889,-2.2701,-2.2265,-2.1613,-2.1397,-2.0973,-2.0336,-2.0294,-2.0208,-2.0009,-1.9439,-1.8526,-1.726,-1.6002,0.0,0.0,0.0,0.0,0.0,0.0,0.0,0.0,0.0,-1.149,-1.2155,0.0,-1.4872,0.0,-1.7221,-1.8671,-1.8856,-1.9489,0.0,0.0,-2.0496,-2.0898,-2.0901,-2.1656,-2.2269,-2.2492,-2.327,-2.3942,-2.4354,-2.498,-2.5406,-2.5401,-2.5542,-2.5663,-2.5681,-2.5683,-2.5689,-2.5694,-2.5696,-2.5935,-2.6625,-2.8153,-2.96,-3.0696,-3.0874,-3.0914,-3.0916,-3.0916,-3.0916,-3.0917,-3.0918,-3.0918,-3.0918,-3.0918,-3.0801,-3.0371,-3.0273,-3.0332,-3.0566,-3.0586,-3.0644,-3.333,-3.2554,-3.2201,-3.1193,-2.9826,-2.9408,-2.9036,-2.8691,-2.8671,-2.8454,-2.8106,-2.8176,-2.7712,-2.6844,-2.6354,-2.6127,-2.6129,-2.6131,-2.6385,-2.6835,-2.6855,-2.6855,-2.6855,-2.6855,-2.6855,-2.6855,-2.6855,-2.6855,-2.6836,-2.6484,-2.6289,-2.625,-2.541,-2.4746,-2.4274,-2.3876,-2.3841,-2.4199,-2.4141,-2.41,-2.406,-2.3686,-2.306,-2.2209,-2.1819,-2.1223,-2.0382,-2.0363,-2.0347,-2.034,-1.9939,-1.9289,-1.8467,-1.7549,-1.6303,0.0,0.0,0.0,0.0,0.0,0.0,0.0,0.0,0.0,0.0,0.0,-1.6671,0.0,-1.8692,-1.9886,-2.0284,-2.1094,-2.1618,-2.1614,-2.2037,-2.234,-2.2326,-2.2749,-2.3209,-2.3591,-2.4085,-2.4532,-2.4931,-2.5408,-2.5703,-2.5702,-2.5697,-2.5688,-2.5703,-2.5705,-2.5688,-2.5691,-2.5691,-2.6004,-2.6868,-2.8121,-2.9314,-3.0154,-3.0643,-3.0917,-3.0917,-3.0917,-3.0918,-3.0918,-3.0918,-3.0918,-3.0918,-3.0918,-3.0918,-3.0918,-3.0918,-3.0918,-3.0918,-3.0918,-3.0918,-3.4265,-3.3429,-3.2742,-3.2323,-3.2116,-3.1239,-3.0369,-2.9566,-2.9567,-2.9154,-2.844,-2.85,-2.8514,-2.8473,-2.8465,-2.8394,-2.83,-2.83,-2.8301,-2.8281,-2.8281,-2.8281,-2.8281,-2.8281,-2.8281,-2.8281,-2.8281,-2.8281,-2.8262,-2.7539,-2.7168,-2.7129,-2.6289,-2.5859,-2.5837,-2.5009,-2.4911,-2.5593,-2.5543,-2.5524,-2.5499,-2.4764,-2.3917,-2.2927,-2.2227,-2.1381,-2.0449,-2.0394,-2.0396,-2.0377,-2.0377,-2.0033,-1.925,-1.9195,-1.8132,0.0,-1.5704,0.0,0.0,0.0,0.0,0.0,0.0,0.0,0.0,-1.7248,-1.8638,-1.9607,-2.0316,-2.1016,-2.1797,-2.2549,-2.2979,-2.2991,-2.3094,-2.3159,-2.3154,-2.3245,-2.3608,-2.4387,-2.4518,-2.4856,-2.5556,-2.5691,-2.57,-2.5703,-2.5703,-2.5701,-2.5698,-2.5698,-2.5699,-2.57,-2.5701,-2.6013,-2.6853,-2.7753,-2.8652,-2.9472,-3.0332,-3.0898,-3.0918,-3.0918,-3.0918,-3.0918,-3.0918,-3.0918,-3.0918,-3.0918,-3.0918,-3.0918,-3.0918,-3.0918,-3.0918,-3.0918,-3.0918,-3.5231,-3.4433,-3.4269,-3.3797,-3.3072,-3.2196,-3.1304,-3.0451,-3.0448,-3.0396,-3.0302,-3.0304,-2.9959,-2.9377,-2.9348,-2.8961,-2.83,-2.8301,-2.8301,-2.8281,-2.8281,-2.8281,-2.8281,-2.8281,-2.8281,-2.8281,-2.8281,-2.8281,-2.8281,-2.8144,-2.8066,-2.8008,-2.7187,-2.6757,-2.6716,0.0,0.0,0.0,-2.5544,-2.5505,-2.5499,-2.5345,-2.4493,-2.2969,-2.2753,0.0,-2.0491,-2.0394,-2.038,-2.0393,-2.0393,0.0,0.0,0.0,0.0,0.0,0.0,0.0,0.0,0.0,0.0,0.0,-1.9134,-1.8889,-1.762,-1.8957,-2.059,-2.2116,-2.2378,-2.2474,-2.2648,-2.2808,-2.2917,-2.294,-2.3542,-2.3985,-2.4002,-2.4584,-2.5127,-2.5329,-2.5354,-2.5437,-2.5646,-2.5692,-2.5688,-2.5696,-2.5701,-2.5703,-2.5703,-2.5701,-2.57,-2.5702,-2.5703,-2.6015,-2.6855,-2.7715,-2.8594,-2.9473,-3.0332,-3.0859,-3.0918,-3.0918,-3.0918,-3.0918,-3.0918,-3.0918,-3.0918,-3.0918,-3.0918,-3.0918,-3.0918,-3.0918,-3.0918,-3.0918,-3.0918,-3.5745,0.0,-3.4884,-3.445,0.0,-3.3113,-3.2471,-3.1973,-3.1112,-3.0767,-3.0793,-3.0794,-3.0578,-3.0182,-3.0229,-2.9998,-2.9609,-2.959,-2.957,-2.959,-2.959,-2.959,-2.957,-2.959,-2.959,-2.957,-2.957,-2.957,-2.957,-2.916,-2.8926,-2.8945,-2.8086,-2.7421,-2.6989,-2.6113,-2.5629,-2.5595,-2.5544,-2.5511,-2.5517,-2.5503,-2.488,-2.3605,0.0,0.0,0.0,0.0,0.0,0.0,0.0,0.0,0.0,0.0,0.0,-1.9158,-1.9151,-1.9323,-1.9736,-1.9789,-2.0125,-2.0903,-2.1375,-2.1278,-2.0413,-2.1149,-2.2001,-2.2865,-2.3265,-2.3485,-2.3505,-2.3883,-2.4126,-2.4164,-2.4524,-2.4791,-2.4838,-2.5221,-2.5515,-2.5547,-2.557,-2.5626,-2.5661,-2.5673,-2.5694,-2.5689,-2.5698,-2.5702,-2.5703,-2.5703,-2.5703,-2.5703,-2.5703,-2.5859,-2.6367,-2.75,-2.8418,-2.8965,-3.0039,-3.0801,-3.0918,-3.0918,-3.0918,-3.0918,-3.0918,-3.0918,-3.0918,-3.0918,-3.0918,-3.0918,-3.0918,-3.0918,-3.0918,-3.0918,-3.0918,-3.6011,-3.5933,-3.523,-3.4935,-3.4873,-3.399,-3.3556,-3.3315,0.0,0.0,0.0,-3.1262,-3.1255,-3.1261,-3.1325,-3.1328,-3.1348,-3.1328,-3.1348,-3.1348,-3.1348,-3.1348,-3.1328,-3.1348,-3.1348,-3.1348,-3.1191,-3.1133,-3.1094,-3.0254,-2.9824,-2.9746,-2.8945,-2.8027,-2.7026,-2.6235,-2.5747,-2.5603,-2.555,-2.5515,-2.5508,-2.5511,-2.5093,-2.4221,-2.3508,-2.274,-2.1939,-2.1244,-2.0856,-2.0876,-2.0837,-2.0859,-2.0859,-2.0856,-2.085,-2.0845,-2.0839,-2.1165,-2.1849,-2.1923,-2.2262,-2.3058,-2.3242,-2.3273,-2.3132,-2.3121,-2.3184,-2.3342,-2.3944,-2.4345,-2.4341,-2.4954,-2.5378,-2.5378,-2.5378,-2.5378,-2.5387,-2.5451,-2.5495,-2.5492,-2.555,-2.5585,-2.56,-2.5634,-2.5701,-2.5703,-2.5696,-2.5701,-2.5702,-2.5703,-2.5703,-2.5703,-2.5703,-2.5703,-2.5937,-2.7187,-2.8184,-2.8398,-2.9785,-3.0859,-3.0918,-3.0918,-3.0918,-3.0918,-3.0918,-3.0918,-3.0918,-3.0918,-3.0918,-3.0918,-3.0918,-3.0918,-3.0918,-3.0918,-3.0918,-3.6014,-3.5975,-3.5875,-3.5834,-3.5756,-3.4876,-3.4075,-3.3391,-3.3132,-3.3049,-3.3024,-3.3028,-3.3036,-3.3045,-3.3045,-3.3046,-3.3047,-3.3047,-3.3027,0.0,-3.3047,-3.3047,-3.3066,-3.3047,-3.3047,-3.3008,-3.2344,-3.2012,-3.1934,-3.1152,-3.0723,-3.0605,-2.9844,-2.8592,-2.7115,-2.6814,-2.6349,-2.5626,-2.5541,-2.5505,-2.5503,-2.5519,-2.5089,-2.426,-2.4066,-2.3628,-2.2846,-2.2672,-2.2636,-2.2636,-2.2633,-2.2633,-2.2636,-2.254,-2.2549,-2.2549,-2.2541,-2.2601,-2.2736,-2.274,-2.308,-2.3875,-2.4604,-2.4739,-2.3991,-2.3913,-2.4237,-2.4947,-2.5103,-2.5206,-2.5225,-2.526,-2.5322,-2.5322,-2.5317,-2.5332,-2.5379,-2.5407,-2.5434,-2.5503,-2.5511,-2.5538,-2.5577,-2.56,-2.5632,-2.5677,-2.5694,-2.5701,-2.5703,-2.5703,-2.5703,-2.5703,-2.5703,-2.5703,-2.5879,-2.7168,-2.8144,-2.8281,-2.9746,-3.0918,-3.0918,-3.0918,-3.0918,-3.0918,-3.0918,-3.0918,-3.0918,-3.0918,-3.0918,-3.0918,-3.0918,-3.0918,-3.0918,-3.0918,-3.0918,-3.6015,-3.6015,-3.6015,-3.6014,-3.5956,-3.5564,-3.5172,-3.4819,-3.4811,-3.4263,-3.3408,-3.3391,-3.3394,-3.3378,-3.3378,-3.3379,-3.3379,-3.3379,-3.3379,-3.3379,-3.3379,-3.3379,-3.3379,-3.3379,-3.3379,-3.3359,-3.3047,-3.2851,-3.2773,-3.2012,-3.1601,-3.1504,-3.0273,-2.9194,-2.8357,-2.7397,-2.6697,-2.6251,-2.5748,-2.552,-2.5503,-2.5464,-2.524,-2.4853,-2.4409,-2.3968,-2.3605,-2.3176,-2.2944,-2.2944,-2.2944,-2.2944,-2.294,-2.2917,-2.3103,-2.3512,-2.3555,-2.3755,-2.4242,-2.4259,-2.4424,-2.4795,-2.5124,-2.5192,-2.4787,-2.4786,-2.496,-2.5307,-2.5356,-2.5351,-2.5332,-2.5313,-2.5308,-2.5308,-2.5308,-2.5313,-2.5332,-2.5389,-2.5412,-2.5432,-2.5484,-2.551,-2.5553,-2.5581,-2.5634,-2.5684,-2.569,-2.5701,-2.5703,-2.5703,-2.5703,-2.5703,-2.5703,-2.5703,-2.5801,-2.7168,-2.8144,-2.8281,-2.9766,-3.0762,-3.0918,-3.0918,-3.0918,-3.0918,-3.0918,-3.0918,-3.0918,-3.0918,-3.0918,-3.0918,-3.0918,-3.0918,-3.0918,-3.0918,-3.0918,-3.6016,-3.6016,-3.6016,-3.6016,-3.6016,-3.6015,-3.6014,-3.6012,-3.5993,-3.5251,-3.4099,-3.3983,-3.3983,-3.3984,-3.3984,-3.3984,-3.3984,-3.4004,-3.4004,-3.3984,-3.3984,-3.3984,-3.3984,-3.3984,-3.3984,-3.3945,-3.3789,-3.3711,-3.3594,-3.2871,-3.2363,-3.2051,-3.0642,-2.9755,-2.9484,-2.7959,-2.7082,-2.6773,-2.5942,-2.5475,-2.5484,-2.5429,-2.5393,-2.5352,-2.4754,-2.4388,-2.4349,-2.3801,-2.3469,-2.3469,-2.3469,-2.3469,-2.3449,-2.3465,-2.3734,-2.4302,-2.4375,-2.4656,-2.5292,-2.5379,-2.5365,-2.5384,-2.5322,-2.5308,-2.5288,-2.5351,-2.5356,-2.5313,-2.5308,-2.5308,-2.5308,-2.5308,-2.5308,-2.5308,-2.5308,-2.5308,-2.5288,-2.5351,-2.5379,-2.5406,-2.544,-2.5488,-2.5512,-2.5563,-2.5628,-2.5684,-2.569,-2.5701,-2.5703,-2.5703,-2.5703,-2.5703,-2.5703,-2.5703,-2.5781,-2.6934,-2.793,-2.8242,-2.9551,-3.0469,-3.0781,-3.0918,-3.0918,-3.0918,-3.0918,-3.0918,-3.0918,-3.0918,-3.0918,-3.0918,-3.0918,-3.0918,-3.0918,-3.0918,-3.0918,-3.6016,-3.6016,-3.6016,-3.6016,-3.6016,-3.6016,-3.6016,-3.6016,-3.6016,-3.5937,-3.5684,-3.5741,-3.5722,-3.5762,-3.5703,-3.5664,-3.5684,-3.5762,-3.5723,-3.5703,-3.5762,-3.5762,-3.5664,-3.5723,-3.5762,-3.5605,-3.4941,-3.459,-3.4531,-3.373,-3.289,-3.2089,-3.1208,-3.0361,-2.9503,-2.8562,-2.7668,-2.6808,-2.5939,-2.5467,-2.541,-2.5401,-2.5393,-2.5391,-2.5314,-2.5275,-2.5213,-2.5198,-2.5155,-2.5179,-2.5117,-2.5136,-2.5136,-2.5138,-2.5167,-2.5225,-2.5197,-2.5255,-2.5317,-2.5293,-2.5313,-2.5313,-2.5293,-2.5308,-2.5308,-2.5327,-2.5313,-2.5346,-2.5327,-2.5308,-2.5308,-2.5346,-2.5385,-2.5442,-2.5442,-2.5308,-2.5423,-2.5313,-2.5332,-2.5382,-2.5601,-2.5437,-2.568,-2.5699,-2.5697,-2.5839,-2.5734,-2.5702,-2.5703,-2.5703,-2.5703,-2.5703,-2.5703,-2.5703,-2.582,-2.6465,-2.7441,-2.8203,-2.9082,-3.0,-3.0625,-3.0918,-3.0918,-3.0918,-3.0918,-3.0918,-3.0918,-3.0918,-3.0918,-3.0918,-3.0918,-3.0918,-3.0918,-3.0918,-3.0918,-3.6016,-3.6016,-3.6016,-3.6016,-3.6016,-3.6016,-3.6016,-3.6016,-3.6016,-3.6016,-3.6016,-3.6015,-3.6015,-3.6016,-3.6016,-3.6016,-3.6016,-3.6016,-3.6016,-3.6016,-3.6016,-3.6016,-3.6016,-3.6016,-3.6016,-3.5996,-3.5625,-3.5469,-3.5332,-3.459,-3.3475,-3.2201,-3.1767,-3.1152,-3.0287,-2.9405,-2.851,-2.7576,-2.672,-2.5991,-2.5466,-2.5385,-2.5387,-2.5346,-2.5341,-2.5341,-2.5341,-2.5341,-2.5341,-2.5341,-2.5322,-2.5341,-2.5341,-2.5351,-2.5327,-2.5346,-2.5313,-2.5308,-2.5308,-2.5308,-2.5308,-2.5308,-2.5308,-2.5308,-2.5327,-2.5774,-2.6058,-2.6,-2.5596,-2.5308,-2.5365,-2.5769,-2.6077,-2.6135,-2.6524,-2.6813,-2.6827,-2.6813,-2.6847,-2.6882,-2.6872,-2.6878,-2.69,-2.6615,-2.6445,-2.6367,-2.6086,-2.574,-2.5703,-2.5703,-2.5703,-2.5703,-2.5703,-2.5703,-2.5781,-2.6426,-2.7285,-2.8164,-2.9023,-2.9883,-3.0644,-3.0918,-3.0918,-3.0918,-3.0918,-3.0918,-3.0918,-3.0918,-3.0918,-3.0918,-3.0918,-3.0918,-3.0918,-3.0918,-3.0918,-3.6348,-3.6387,-3.6621,-3.6699,-3.6699,-3.6445,-3.6348,-3.6309,-3.6113,-3.6016,-3.6016,-3.6016,-3.6133,-3.6309,-3.6113,-3.6016,-3.6035,-3.625,-3.6348,-3.6387,-3.6582,-3.6719,-3.6719,-3.6719,-3.6582,-3.6387,-3.6367,-3.623,-3.5937,-3.5135,-3.4037,-3.2915,-3.2342,-3.1781,-3.1109,-3.009,-2.9154,-2.842,-2.7361,-2.6435,-2.582,-2.5517,-2.5379,-2.5293,-2.5308,-2.5308,-2.5308,-2.5308,-2.5308,-2.5308,-2.5308,-2.5308,-2.5308,-2.5308,-2.5308,-2.5308,-2.5308,-2.5308,-2.5308,-2.5308,-2.5308,-2.5327,-2.55,-2.5654,-2.5808,-2.6447,-2.6928,-2.6928,-2.6365,-2.6058,-2.6077,-2.6582,-2.6928,-2.7005,-2.7563,-2.789,-2.7852,-2.789,-2.7843,-2.7888,-2.7726,-2.7936,-2.7923,-2.7554,-2.7213,-2.6912,-2.6456,-2.5897,-2.5742,-2.5703,-2.5703,-2.5703,-2.5703,-2.5703,-2.5742,-2.6133,-2.7031,-2.8047,-2.8887,-2.9551,-3.0605,-3.0879,-3.0918,-3.0918,-3.0918,-3.0918,-3.0918,-3.0918,-3.0918,-3.0918,-3.0918,-3.0918,-3.0918,-3.0918,-3.0918,-3.7246,-3.7363,-3.8125,-3.8379,-3.8418,-3.7578,-3.7246,-3.7187,-3.6445,-3.6055,-3.6133,-3.6113,-3.6504,-3.7168,-3.6504,-3.6055,-3.6172,-3.6914,-3.7246,-3.7324,-3.8008,-3.8457,-3.8476,-3.8476,-3.8027,-3.7285,-3.7246,-3.6855,-3.6033,-3.5169,-3.4673,-3.4471,-3.2991,-3.2134,-3.1778,-3.0375,-2.9421,-2.9108,-2.7691,-2.6704,-2.6515,-2.5817,-2.5418,-2.5308,-2.5308,-2.5308,-2.5308,-2.5308,-2.5308,-2.5308,-2.5308,-2.5308,-2.5308,-2.5308,-2.5308,-2.5308,-2.5308,-2.5308,-2.5308,-2.5346,-2.5365,-2.5442,-2.612,-2.6544,-2.6577,-2.7332,-2.7794,-2.7832,-2.7813,-2.778,-2.7755,-2.7775,-2.7832,-2.7838,-2.7915,-2.8025,-2.7992,-2.8159,-2.792,-2.8023,-2.813,-2.8268,-2.82,-2.8135,-2.7835,-2.7358,-2.7022,-2.6658,-2.5996,-2.5762,-2.5703,-2.5703,-2.5703,-2.5703,-2.5703,-2.5879,-2.6621,-2.7617,-2.8379,-2.8965,-3.0078,-3.0918,-3.0898,-3.0918,-3.0918,-3.0918,-3.0918,-3.0918,-3.0918,-3.0918,-3.0918,-3.0918,-3.0918,-3.0918,-3.0918,-3.8125,-3.8164,-3.8457,-3.8613,-3.8574,-3.8242,-3.8144,-3.8105,-3.7812,-3.7656,-3.7656,-3.7656,-3.7851,-3.8105,-3.7812,-3.7656,-3.7676,-3.8008,-3.8125,-3.8164,-3.8476,-3.8613,-3.8613,-3.8613,-3.8476,-3.8184,-3.8144,-3.7672,-3.6824,-3.596,-3.5207,-3.4659,-3.405,-3.3187,-3.2104,-3.1361,-3.0482,-2.9384,-2.8586,-2.7788,-2.6752,-2.6343,-2.5919,-2.5346,-2.5308,-2.5308,-2.5308,-2.5308,-2.5308,-2.5308,-2.5308,-2.5308,-2.5308,-2.5308,-2.5308,-2.5308,-2.5308,-2.5308,-2.5365,-2.5827,-2.6135,-2.6192,-2.6928,-2.7428,-2.7563,-2.8165,-2.8665,-2.8742,-2.9217,-2.9481,-2.939,-2.9006,-2.8646,-2.8723,-2.914,-2.9423,-2.9506,-2.95,-2.9506,-2.9509,-2.9534,-2.961,-2.953,-2.9347,-2.8928,-2.8589,-2.7705,-2.695,-2.6562,-2.6094,-2.5703,-2.5703,-2.5703,-2.5703,-2.5703,-2.5703,-2.6133,-2.709,-2.793,-2.875,-2.9746,-3.0566,-3.0742,-3.0898,-3.0918,-3.0918,-3.0918,-3.0918,-3.0918,-3.0918,-3.0918,-3.0918,-3.0918,-3.0918,-3.0918,-3.9199,-3.9414,-3.9453,-3.9453,-3.9394,-3.9141,-3.9023,-3.8984,-3.873,-3.8613,-3.8613,-3.8613,-3.873,-3.8984,-3.9023,-3.9199,-3.9375,-3.916,-3.9023,-3.9062,-3.9316,-3.9434,-3.9434,-3.9453,-3.9297,-3.9004,-3.8709,-3.8157,-3.7322,-3.6668,-3.5908,-3.5076,-3.4753,-3.4017,-3.2893,-3.2205,-3.1224,-3.0196,-2.9516,-2.8565,-2.7522,-2.7169,-2.6601,-2.5865,-2.5712,-2.5577,-2.5327,-2.5308,-2.5308,-2.5327,-2.5558,-2.5846,-2.6096,-2.5865,-2.5846,-2.6077,-2.5885,-2.5865,-2.6154,-2.6697,-2.7024,-2.7063,-2.7775,-2.828,-2.8338,-2.905,-2.9448,-2.966,-3.0,-3.0404,-3.0308,-2.9871,-2.9525,-2.9569,-3.0038,-3.0385,-3.0404,-3.0365,-3.0377,-3.0353,-3.038,-3.0527,-3.0625,-3.0222,-2.9823,-2.9566,-2.8251,-2.7419,-2.6973,-2.6289,-2.5703,-2.5703,-2.5703,-2.5703,-2.5703,-2.5703,-2.6035,-2.6914,-2.7383,-2.8281,-2.9199,-3.0019,-3.0605,-3.0801,-3.0918,-3.0918,-3.0918,-3.0918,-3.0918,-3.0918,-3.0918,-3.0918,-3.0918,-3.0918,-3.0918,-4.0391,-4.1016,-4.1172,-4.1016,-4.0859,-4.0195,-3.9902,-3.9766,-3.9082,-3.8887,-3.8965,-3.8769,-3.9277,-3.9785,-3.9922,-4.0351,-4.0723,-4.0215,-3.9902,-3.998,-4.0644,-4.0996,-4.0976,-4.0918,-4.0547,-3.9863,-3.904,-3.8231,-3.7552,-3.7214,-3.664,-3.5862,-3.5033,-3.4528,-3.4387,-3.2769,-3.185,-3.1308,-3.0074,-2.9203,-2.9082,-2.8291,-2.7486,-2.6717,-2.6596,-2.6269,-2.5481,-2.5404,-2.5423,-2.55,-2.6173,-2.7005,-2.7467,-2.7024,-2.6948,-2.7428,-2.7024,-2.7063,-2.7659,-2.7813,-2.789,-2.8005,-2.8646,-2.9102,-2.9242,-2.9813,-3.0269,-3.0269,-3.0327,-3.0404,-3.0404,-3.0308,-3.0269,-3.0365,-3.0365,-3.0385,-3.0404,-3.0404,-3.0427,-3.0493,-3.055,-3.0621,-3.071,-3.065,-3.0369,-2.9701,-2.8877,-2.8005,-2.7305,-2.6484,-2.5859,-2.5703,-2.5703,-2.5703,-2.5703,-2.5742,-2.623,-2.6719,-2.7012,-2.7578,-2.8594,-2.9453,-3.0078,-3.0391,-3.084,-3.0859,-3.0918,-3.0918,-3.0918,-3.0918,-3.0918,-3.0918,-3.0918,-3.0918,-3.0918,-4.0957,-4.1191,-4.1191,-4.1191,-4.1172,-4.0898,-4.0801,-4.0762,-4.0488,-4.0391,-4.0391,-4.0391,-4.0547,-4.0723,-4.0801,-4.0937,-4.1172,-4.0918,-4.0781,-4.082,-4.1055,-4.1191,-4.1191,-4.1191,-4.1035,-4.0622,-3.9836,-3.9295,-3.8836,-3.7829,-3.6992,-3.6585,-3.5784,-3.502,-3.4429,-3.3246,-3.2373,-3.1651,-3.0626,-2.9776,-2.9195,-2.8882,-2.8338,-2.7607,-2.7486,-2.7351,-2.7082,-2.6519,-2.6212,-2.6217,-2.7024,-2.7621,-2.7794,-2.7664,-2.7626,-2.7818,-2.7664,-2.7568,-2.789,-2.8409,-2.8742,-2.8876,-2.9506,-2.9923,-3.0006,-3.0212,-3.0404,-3.0404,-3.0404,-3.0404,-3.0404,-3.0404,-3.0404,-3.0404,-3.0404,-3.0404,-3.039,-3.0402,-3.0417,-3.0504,-3.0554,-3.0625,-3.069,-3.0748,-3.0663,-3.0366,-2.9639,-2.8806,-2.8008,-2.709,-2.6309,-2.5879,-2.5801,-2.5703,-2.5703,-2.5703,-2.5957,-2.6309,-2.6582,-2.6953,-2.793,-2.8887,-2.9512,-3.0195,-3.0625,-3.0859,-3.0898,-3.0918,-3.0918,-3.0918,-3.0918,-3.0918,-3.0918,-3.0918,-3.0918,-4.1191,-4.1191,-4.1191,-4.1191,-4.1191,-4.1191,-4.1191,-4.1191,-4.1191,-4.1191,-4.1191,-4.1191,-4.1191,-4.1191,-4.1191,-4.1191,-4.1191,-4.1191,-4.1191,-4.1191,-4.1191,-4.1191,-4.1191,-4.1191,-4.1151,-4.103,-4.0536,-4.0109,-3.9733,-3.8699,-3.7774,-3.7048,-3.643,-3.572,-3.4836,-3.3931,-3.3022,-3.217,-3.133,-3.0466,-2.9761,-2.9583,-2.9179,-2.8492,-2.8357,-2.8203,-2.7934,-2.7621,-2.739,-2.7294,-2.789,-2.8453,-2.8736,-2.8563,-2.8467,-2.8717,-2.8563,-2.8467,-2.8813,-2.9352,-2.9583,-2.9679,-3.0096,-3.0365,-3.0404,-3.0404,-3.0404,-3.0404,-3.0404,-3.0404,-3.0404,-3.0404,-3.0404,-3.0404,-3.0404,-3.039,-3.0402,-3.0422,-3.046,-3.0545,-3.0601,-3.0661,-3.0697,-3.0756,-3.0784,-3.0679,-3.0108,-2.9509,-2.8691,-2.7715,-2.6914,-2.623,-2.5937,-2.582,-2.5723,-2.5703,-2.5703,-2.5918,-2.6152,-2.6582,-2.7266,-2.8301,-2.9101,-3.0137,-3.0781,-3.0859,-3.0918,-3.0918,-3.0918,-3.0918,-3.0918,-3.0918,-3.0918,-3.0918,-3.0918,-4.1191,-4.1191,-4.1191,-4.1191,-4.1191,-4.1191,-4.1191,-4.1191,-4.1191,-4.1191,-4.1191,-4.1191,-4.1191,-4.1191,-4.1191,-4.1191,-4.1191,-4.1191,-4.1191,-4.1191,-4.1191,-4.1191,-4.1191,-4.1191,-4.1152,-4.1108,-4.1023,-4.0633,-4.002,-3.9597,-3.8859,-3.7472,-3.6999,-3.648,-3.5595,-3.4711,-3.3692,-3.2838,-3.2063,-3.1198,-3.0365,-3.0327,-3.0006,-2.9217,-2.9165,-2.889,-2.8467,-2.8761,-2.8761,-2.8261,-2.8819,-2.9486,-3.0019,-2.9602,-2.9525,-3.0096,-2.9563,-2.9621,-3.0135,-3.0192,-3.0288,-3.0269,-3.0327,-3.0404,-3.0404,-3.0404,-3.0404,-3.0404,-3.0404,-3.0404,-3.0404,-3.0404,-3.0404,-3.0385,-3.039,-3.0402,-3.0398,-3.0465,-3.052,-3.0578,-3.066,-3.0695,-3.0714,-3.0769,-3.079,-3.0681,-3.0187,-2.9841,-2.9297,-2.8379,-2.7383,-2.6777,-2.6289,-2.5957,-2.5859,-2.5703,-2.5762,-2.625,-2.6367,-2.6641,-2.7129,-2.8105,-2.916,-3.0176,-3.0801,-3.0879,-3.0918,-3.0918,-3.0918,-3.0918,-3.0918,-3.0918,-3.0918,-3.0918,-3.0918,-4.1191,-4.1191,-4.1191,-4.1191,-4.1191,-4.1191,-4.1191,-4.1191,-4.1191,-4.1191,-4.1191,-4.1191,-4.1191,-4.1191,-4.1191,-4.1191,-4.1191,-4.1191,-4.1191,-4.1191,-4.1191,-4.1191,-4.1191,-4.1191,-4.1171,-4.1107,-4.1098,-4.0935,-4.0626,-4.0,-3.9388,-3.8884,-3.7483,-3.6761,-3.6311,-3.4969,-3.3795,-3.2948,-3.2128,-3.1327,-3.0596,-3.0442,-3.0308,-3.0115,-3.0038,-2.9923,-2.975,-2.9923,-3.0,-2.9788,-2.9923,-3.0115,-3.0346,-3.0154,-3.0121,-3.0269,-3.0212,-3.0096,-3.0327,-3.0404,-3.0404,-3.0404,-3.0404,-3.0404,-3.0404,-3.0404,-3.0404,-3.0404,-3.0404,-3.0404,-3.0404,-3.0404,-3.0396,-3.04,-3.0406,-3.0417,-3.0474,-3.0535,-3.0588,-3.0607,-3.0661,-3.0694,-3.0716,-3.076,-3.0798,-3.0744,-3.0598,-3.0293,-2.9746,-2.9277,-2.8379,-2.7344,-2.6719,-2.6289,-2.5977,-2.5781,-2.5957,-2.6602,-2.6855,-2.6973,-2.7598,-2.8418,-2.9531,-3.0644,-3.0801,-3.0898,-3.0918,-3.0918,-3.0918,-3.0918,-3.0918,-3.0918,-3.0918,-3.0918,-3.0918,-4.1191,-4.1191,-4.1191,-4.1191,-4.1191,-4.1191,-4.1191,-4.1191,-4.1191,-4.1191,-4.1191,-4.1191,-4.1191,-4.1191,-4.1191,-4.1191,-4.1191,-4.1191,-4.1191,-4.1191,-4.1191,-4.1191,-4.1191,-4.1191,-4.1171,-4.1107,-4.1116,-4.1048,-4.0916,-4.0412,-3.9995,-3.9333,-3.8098,-3.7199,-3.6691,-3.5489,-3.4314,-3.3545,-3.291,-3.2199,-3.1064,-3.0942,-3.0692,-3.0519,-3.0404,-3.0404,-3.0385,-3.0385,-3.0404,-3.0385,-3.0385,-3.0404,-3.0404,-3.0404,-3.0404,-3.0404,-3.0404,-3.0385,-3.0404,-3.0404,-3.0404,-3.0404,-3.0404,-3.0404,-3.0404,-3.0404,-3.0404,-3.0404,-3.0404,-3.0404,-3.0385,-3.0396,-3.0419,-3.0453,-3.0474,-3.0514,-3.0535,-3.0574,-3.0606,-3.0625,-3.0676,-3.0707,-3.0737,-3.0778,-3.0788,-3.0807,-3.0834,-3.0565,-3.0254,-2.9863,-2.9355,-2.832,-2.7598,-2.7246,-2.7051,-2.6894,-2.6875,-2.7402,-2.7949,-2.7949,-2.8301,-2.9004,-2.9746,-3.0605,-3.0781,-3.0918,-3.0918,-3.0918,-3.0918,-3.0918,-3.0918,-3.0918,-3.0918,-3.0918,-3.0918,-4.1191,-4.1191,-4.1191,-4.1191,-4.1191,-4.1191,-4.1191,-4.1191,-4.1191,-4.1191,-4.1191,-4.1191,-4.1191,-4.1191,-4.1191,-4.1191,-4.1191,-4.1191,-4.1191,-4.1191,-4.1191,-4.1191,-4.1191,-4.1191,-4.1151,-4.1107,-4.1115,-4.1066,-4.0971,-4.0874,-4.0476,-3.9677,-3.8658,-3.7726,-3.6974,-3.5983,-3.5045,-3.4257,-3.3987,-3.3179,-3.2006,-3.1635,-3.1256,-3.0769,-3.0442,-3.0404,-3.0404,-3.0404,-3.0404,-3.0404,-3.0404,-3.0404,-3.0404,-3.0404,-3.0404,-3.0404,-3.0404,-3.0404,-3.0404,-3.0404,-3.0404,-3.0404,-3.0404,-3.0481,-3.0596,-3.0673,-3.075,-3.0962,-3.0692,-3.0891,-3.0916,-3.0785,-3.0921,-3.1035,-3.0946,-3.0757,-3.0732,-3.0673,-3.0633,-3.0671,-3.0707,-3.0756,-3.0789,-3.0799,-3.0803,-3.083,-3.0875,-3.078,-3.0566,-3.0293,-2.9883,-2.9336,-2.8769,-2.8359,-2.8223,-2.8105,-2.8164,-2.8418,-2.916,-2.9414,-2.9414,-2.9883,-3.0195,-3.0586,-3.082,-3.0918,-3.0918,-3.0918,-3.0918,-3.0918,-3.0918,-3.0918,-3.0918,-3.0918,-3.0918,-4.1191,-4.1191,-4.1191,-4.1191,-4.1191,-4.1191,-4.1191,-4.1191,-4.1191,-4.1191,-4.1191,-4.1191,-4.1191,-4.1191,-4.1191,-4.1191,-4.1191,-4.1191,-4.1191,-4.1191,-4.1191,-4.1191,-4.1191,-4.1152,-4.113,-4.1105,-4.1109,-4.1059,-4.0987,-4.0917,-4.0786,-4.0355,-3.8896,-3.8009,-3.763,-3.6221,-3.5058,-3.4359,-3.4225,-3.3757,-3.2776,-3.2122,-3.1718,-3.1308,-3.0788,-3.0423,-3.0404,-3.0404,-3.0404,-3.0404,-3.0404,-3.0404,-3.0404,-3.0404,-3.0404,-3.0404,-3.0404,-3.0404,-3.0423,-3.0481,-3.0442,-3.0558,-3.0654,-3.0692,-3.1385,-3.141,-3.1731,-3.216,-3.2372,-3.223,-3.2216,-3.2386,-3.2309,-3.2202,-3.1922,-3.1637,-3.1569,-3.1076,-3.071,-3.0707,-3.0759,-3.0801,-3.0788,-3.0809,-3.0825,-3.0872,-3.0898,-3.0918,-3.0781,-3.0625,-3.0312,-2.9922,-2.9687,-2.9238,-2.9023,-2.8984,-2.9121,-2.9258,-2.9922,-3.0351,-3.0371,-3.043,-3.0605,-3.0742,-3.0859,-3.0918,-3.0918,-3.0918,-3.0918,-3.0918,-3.0918,-3.0918,-3.0918,-3.0918,-3.1094,-4.1191,-4.1191,-4.1191,-4.1191,-4.1191,-4.1172,-4.1132,-4.1152,-4.1151,-4.1151,-4.1171,-4.1152,-4.1171,-4.1171,-4.1191,-4.1191,-4.1191,-4.1191,-4.1191,-4.1191,-4.1191,-4.1191,-4.1191,-4.1131,-4.1108,-4.1105,-4.1108,-4.1054,-4.1007,-4.0937,-4.0864,-4.0652,-3.9006,-3.817,-3.7842,-3.6407,-3.5372,-3.4968,-3.4795,-3.4391,-3.3545,-3.3122,-3.2333,-3.1833,-3.1231,-3.0865,-3.0442,-3.0404,-3.0404,-3.0404,-3.0423,-3.0404,-3.0404,-3.0404,-3.0404,-3.0404,-3.0404,-3.0654,-3.0865,-3.1038,-3.1218,-3.1525,-3.1564,-3.1808,-3.2141,-3.2275,-3.2429,-3.2776,-3.2872,-3.2923,-3.2979,-3.297,-3.304,-3.302,-3.2787,-3.2567,-3.2414,-3.1514,-3.071,-3.0739,-3.0791,-3.0792,-3.0809,-3.0881,-3.0869,-3.0895,-3.0898,-3.0918,-3.0918,-3.0762,-3.0684,-3.043,-3.0332,-3.0098,-2.9824,-2.9785,-2.9961,-3.0117,-3.0449,-3.0684,-3.0703,-3.0781,-3.0879,-3.0918,-3.0918,-3.0918,-3.0918,-3.0918,-3.0918,-3.0918,-3.0918,-3.0918,-3.1055,-3.1289,-3.1484,-4.1191,-4.1191,-4.1191,-4.1191,-4.1191,-4.1132,-4.1111,-4.1111,-4.1108,-4.1108,-4.1108,-4.111,-4.1131,-4.1112,-4.1152,-4.1191,-4.1191,-4.1191,-4.1191,-4.1191,-4.1191,-4.1191,-4.1172,-4.113,-4.1108,-4.1106,-4.1104,-4.1072,-4.1007,-4.0937,-4.0864,-4.053,-3.9193,-3.8363,-3.7777,-3.6606,-3.5615,-3.5423,-3.5327,-3.5103,-3.443,-3.4148,-3.3276,-3.2256,-3.191,-3.1621,-3.1154,-3.1,-3.0885,-3.0788,-3.0788,-3.0769,-3.075,-3.0615,-3.0596,-3.0654,-3.0865,-3.1288,-3.1737,-3.191,-3.216,-3.2872,-3.2833,-3.2949,-3.3026,-3.3141,-3.3295,-3.3391,-3.3545,-3.3564,-3.3389,-3.3618,-3.3636,-3.3582,-3.355,-3.3437,-3.319,-3.206,-3.1481,-3.1322,-3.1344,-3.1261,-3.1098,-3.1067,-3.0992,-3.0918,-3.0918,-3.0918,-3.0918,-3.0898,-3.0801,-3.0762,-3.0644,-3.0586,-3.0351,-3.0254,-3.0469,-3.0566,-3.084,-3.0879,-3.0918,-3.0918,-3.0918,-3.0918,-3.0918,-3.0918,-3.0918,-3.0918,-3.0918,-3.0918,-3.0957,-3.0996,-3.1289,-3.168,-3.1971,-4.1191,-4.1191,-4.1191,-4.1172,-4.1132,-4.1111,-4.111,-4.1108,-4.1106,-4.1107,-4.1107,-4.1108,-4.1109,-4.1111,-4.1112,-4.1152,-4.1191,-4.1191,-4.1191,-4.1191,-4.1191,-4.1191,-4.1191,-4.113,-4.1108,-4.1101,-4.1101,-4.1064,-4.0984,-4.0917,-4.0864,-4.0583,-3.9676,-3.8858,-3.797,-3.7011,-3.6038,-3.5577,-3.55,-3.5327,-3.5084,-3.4564,-3.3853,-3.2814,-3.2699,-3.2545,-3.2449,-3.2429,-3.2487,-3.2487,-3.2487,-3.2429,-3.2237,-3.1775,-3.1577,-3.1577,-3.1948,-3.2314,-3.2641,-3.2718,-3.2756,-3.2872,-3.3064,-3.341,-3.3795,-3.4032,-3.4237,-3.468,-3.4872,-3.4995,-3.5136,-3.4901,-3.5148,-3.5107,-3.4715,-3.4361,-3.4186,-3.3613,-3.2973,-3.2942,-3.2459,-3.1859,-3.175,-3.152,-3.1287,-3.1152,-3.0996,-3.0957,-3.0918,-3.0918,-3.0879,-3.0879,-3.0879,-3.0859,-3.0801,-3.0742,-3.0781,-3.0762,-3.0879,-3.0879,-3.0918,-3.0918,-3.0918,-3.0918,-3.0918,-3.0918,-3.0918,-3.0918,-3.1035,-3.1133,-3.1132,-3.1131,-3.1794,-3.2417,-3.2705,-4.1132,-4.1131,-4.1151,-4.113,-4.1109,-4.1105,-4.1101,-4.1099,-4.1111,-4.1106,-4.1109,-4.1115,-4.11,-4.1104,-4.111,-4.1132,-4.1191,-4.1191,-4.1191,-4.1191,-4.1191,-4.1191,-4.1191,-4.1133,-4.1106,-4.1099,-4.1094,-4.1061,-4.1007,-4.0932,-4.0864,-4.0583,-3.987,-3.8974,-3.8086,-3.7138,-3.6334,-3.5692,-3.55,-3.55,-3.55,-3.5007,-3.443,-3.3814,-3.3532,-3.3353,-3.2929,-3.2891,-3.2891,-3.2872,-3.2872,-3.2891,-3.291,-3.2968,-3.2776,-3.2526,-3.2737,-3.316,-3.3494,-3.3603,-3.3757,-3.4218,-3.4218,-3.441,-3.4737,-3.493,-3.5038,-3.5334,-3.5489,-3.5515,-3.5514,-3.562,-3.5672,-3.5712,-3.5418,-3.5262,-3.5166,-3.4887,-3.4688,-3.4443,-3.3586,-3.2925,-3.2633,-3.2284,-3.1777,-3.1426,-3.1172,-3.1055,-3.1016,-3.0918,-3.0918,-3.0918,-3.0918,-3.0918,-3.0918,-3.0918,-3.0918,-3.0918,-3.0937,-3.0937,-3.1035,-3.1074,-3.0996,-3.0918,-3.0918,-3.1211,-3.0937,-3.0957,-3.1152,-3.1403,-3.1598,-3.1909,-3.259,-3.3113,-3.3437,-4.111,-4.1107,-4.1106,-4.1105,-4.1103,-4.1111,-4.1103,-4.1117,-4.1079,-4.1069,-4.1089,-4.1092,-4.1103,-4.1112,-4.1106,-4.1132,-4.1191,-4.1191,-4.1191,-4.1191,-4.1191,-4.1191,-4.1172,-4.1149,-4.1104,-4.1114,-4.1107,-4.1075,-4.1,-4.0932,-4.0864,-4.0649,-3.996,-3.9218,-3.8388,-3.7555,-3.6591,-3.5962,-3.5538,-3.55,-3.55,-3.5462,-3.5212,-3.4545,-3.4468,-3.4141,-3.3699,-3.3641,-3.3622,-3.3622,-3.3564,-3.3506,-3.3545,-3.4064,-3.4103,-3.3564,-3.341,-3.3833,-3.4218,-3.4468,-3.4699,-3.5154,-3.5404,-3.5462,-3.5442,-3.5346,-3.5442,-3.5494,-3.5502,-3.5515,-3.5583,-3.5615,-3.5684,-3.5743,-3.579,-3.5822,-3.5806,-3.5718,-3.5672,-3.523,-3.4471,-3.3984,-3.3652,-3.3027,-3.248,-3.2187,-3.1934,-3.1543,-3.1445,-3.0996,-3.0918,-3.0918,-3.0918,-3.0918,-3.0918,-3.0918,-3.0918,-3.0918,-3.0976,-3.1016,-3.1172,-3.1328,-3.1328,-3.1543,-3.1719,-3.1933,-3.1464,-3.1247,-3.1674,-3.2043,-3.2238,-3.2701,-3.3413,-3.3911,-3.4254,-4.1108,-4.1107,-4.1101,-4.1116,-4.1109,-4.109,-4.1113,-4.1081,-4.1025,-4.1016,-4.1016,-4.1078,-4.1098,-4.1103,-4.1105,-4.1111,-4.1132,-4.1172,-4.1191,-4.1191,-4.1191,-4.1172,-4.1131,-4.1109,-4.1101,-4.1108,-4.1098,-4.1064,-4.1002,-4.092,-4.0844,-4.0703,-4.0482,-3.9976,-3.8984,-3.8222,-3.743,-3.6615,-3.5885,-3.5519,-3.55,-3.55,-3.5404,-3.5327,-3.525,-3.5154,-3.4885,-3.4846,-3.4904,-3.4981,-3.5077,-3.5135,-3.5212,-3.525,-3.5327,-3.5231,-3.5212,-3.5231,-3.5231,-3.5192,-3.5212,-3.5462,-3.5481,-3.55,-3.55,-3.5488,-3.5494,-3.5496,-3.549,-3.5534,-3.5604,-3.5664,-3.5721,-3.5772,-3.5849,-3.5914,-3.5965,-3.598,-3.601,-3.5974,-3.5214,-3.4922,-3.4629,-3.3906,-3.3242,-3.2969,-3.2656,-3.2266,-3.1758,-3.1269,-3.0918,-3.0918,-3.0918,-3.0918,-3.0918,-3.0918,-3.1113,-3.1055,-3.1172,-3.1309,-3.1719,-3.209,-3.2402,-3.2598,-3.2714,-3.2712,-3.2475,-3.2394,-3.2526,-3.2774,-3.3119,-3.3651,-3.4278,-3.4679,-3.4964,-4.1099,-4.1103,-4.1099,-4.1111,-4.11,-4.1061,-4.1039,-4.1032,-4.0976,-4.0949,-4.0972,-4.102,-4.1061,-4.1101,-4.1104,-4.111,-4.1112,-4.1172,-4.1191,-4.1191,-4.1191,-4.1172,-4.1131,-4.1108,-4.1101,-4.1099,-4.1091,-4.1049,-4.098,-4.0917,-4.0842,-4.0738,-4.0604,-4.013,-3.9444,-3.8953,-3.8257,-3.7469,-3.6635,-3.5981,-3.5615,-3.55,-3.55,-3.55,-3.55,-3.55,-3.55,-3.55,-3.55,-3.55,-3.55,-3.5481,-3.5481,-3.5481,-3.5481,-3.5519,-3.5962,-3.5923,-3.5577,-3.5538,-3.5596,-3.5538,-3.5538,-3.55,-3.55,-3.5565,-3.5559,-3.5502,-3.5527,-3.5595,-3.5657,-3.5704,-3.5756,-3.582,-3.5858,-3.5933,-3.5977,-3.6008,-3.6014,-3.6015,-3.5976,-3.5625,-3.5273,-3.4707,-3.416,-3.3945,-3.3398,-3.2734,-3.207,-3.1348,-3.1074,-3.0918,-3.0918,-3.0918,-3.0918,-3.0937,-3.1445,-3.1562,-3.1797,-3.2031,-3.2598,-3.3008,-3.3261,-3.3298,-3.3197,-3.3233,-3.3346,-3.33,-3.3214,-3.3612,-3.4066,-3.4513,-3.494,-3.5207,-3.5441,-4.1067,-4.105,-4.1056,-4.1092,-4.1058,-4.1016,-4.0984,-4.0971,-4.0911,-4.0863,-4.0896,-4.0961,-4.1045,-4.1095,-4.1117,-4.1108,-4.1111,-4.1152,-4.1191,-4.1191,-4.1191,-4.1172,-4.113,-4.1106,-4.1115,-4.1109,-4.1075,-4.1009,-4.0948,-4.0873,-4.0804,-4.0707,-4.0622,-4.0277,-3.9772,-3.9299,-3.8738,-3.7892,-3.7046,-3.6385,-3.5942,-3.5596,-3.5519,-3.55,-3.55,-3.55,-3.55,-3.55,-3.55,-3.55,-3.55,-3.5577,-3.5827,-3.5923,-3.6122,-3.6327,-3.6827,-3.6827,-3.65,-3.6353,-3.6161,-3.6135,-3.6115,-3.6365,-3.6276,-3.6142,-3.6169,-3.637,-3.6394,-3.6267,-3.6037,-3.6114,-3.6025,-3.5985,-3.5892,-3.5944,-3.5984,-3.5992,-3.6016,-3.6016,-3.6016,-3.6016,-3.5664,-3.5351,-3.5059,-3.4902,-3.4258,-3.332,-3.25,-3.1699,-3.1328,-3.1172,-3.1016,-3.1133,-3.1387,-3.1445,-3.1816,-3.2148,-3.2383,-3.2851,-3.3476,-3.3808,-3.4002,-3.394,-3.3873,-3.4231,-3.463,-3.4234,-3.3912,-3.446,-3.4943,-3.5172,-3.5482,-3.5682,-3.5733,-4.0972,-4.0921,-4.0979,-4.1018,-4.1019,-4.0935,-4.0903,-4.0893,-4.0828,-4.0804,-4.0849,-4.0943,-4.1036,-4.1089,-4.1108,-4.1103,-4.1108,-4.1152,-4.1191,-4.1191,-4.1191,-4.1152,-4.1128,-4.1101,-4.1108,-4.1096,-4.1039,-4.0984,-4.0912,-4.0832,-4.0776,-4.0707,-4.0621,-4.0526,-4.02,-3.9708,-3.9053,-3.8238,-3.745,-3.6949,-3.6488,-3.6045,-3.5622,-3.5565,-3.5526,-3.55,-3.55,-3.5584,-3.5654,-3.5673,-3.5827,-3.6077,-3.6538,-3.6615,-3.6892,-3.7334,-3.7719,-3.7777,-3.7661,-3.7507,-3.77,-3.7777,-3.7661,-3.7462,-3.7373,-3.7723,-3.7854,-3.7643,-3.7473,-3.7392,-3.7124,-3.6923,-3.6748,-3.6348,-3.6206,-3.6111,-3.6105,-3.6012,-3.6016,-3.6016,-3.6016,-3.6016,-3.6016,-3.5664,-3.5586,-3.543,-3.4785,-3.3887,-3.3125,-3.2363,-3.1816,-3.1504,-3.123,-3.1426,-3.2031,-3.2305,-3.2559,-3.2969,-3.3301,-3.3828,-3.4453,-3.4667,-3.4782,-3.5028,-3.5114,-3.5502,-3.5651,-3.5054,-3.4842,-3.5405,-3.5751,-3.5636,-3.5579,-3.5664,-3.5674,-4.093,-4.0898,-4.0883,-4.0907,-4.0927,-4.0873,-4.0812,-4.0773,-4.0756,-4.0784,-4.0853,-4.0943,-4.1048,-4.1081,-4.1103,-4.1102,-4.1108,-4.1171,-4.1191,-4.1191,-4.1172,-4.1131,-4.1106,-4.1116,-4.1099,-4.1083,-4.1036,-4.0956,-4.0898,-4.0792,-4.07,-4.0641,-4.0612,-4.0549,-4.0339,-4.0131,-3.9546,-3.8957,-3.8419,-3.8111,-3.7427,-3.6773,-3.6298,-3.6305,-3.5689,-3.5579,-3.5586,-3.6054,-3.6194,-3.6372,-3.6719,-3.7096,-3.7411,-3.7469,-3.7719,-3.8142,-3.8527,-3.8757,-3.8661,-3.8373,-3.8007,-3.8007,-3.7969,-3.8065,-3.8207,-3.8127,-3.8099,-3.8099,-3.8307,-3.8228,-3.7998,-3.7886,-3.7684,-3.7017,-3.6614,-3.6453,-3.6265,-3.6151,-3.6016,-3.6016,-3.6016,-3.6016,-3.6016,-3.5976,-3.5957,-3.5898,-3.5176,-3.4473,-3.373,-3.3125,-3.2637,-3.2266,-3.2031,-3.2207,-3.2832,-3.3086,-3.3281,-3.375,-3.4219,-3.4668,-3.5156,-3.5467,-3.5619,-3.594,-3.596,-3.5831,-3.5699,-3.5532,-3.5546,-3.5698,-3.5739,-3.5713,-3.5683,-3.5635,-3.5612,-4.0262,-4.0483,-4.0422,-4.0596,-4.0807,-4.079,-4.0724,-4.0694,-4.0668,-4.0738,-4.0862,-4.0945,-4.1015,-4.1053,-4.1076,-4.1099,-4.1126,-4.1151,-4.1171,-4.1152,-4.1132,-4.1109,-4.1102,-4.1108,-4.1083,-4.1064,-4.1011,-4.0941,-4.0883,-4.0769,-4.0675,-4.0614,-4.0583,-4.0539,-4.0504,-4.0458,-4.0208,-3.9785,-3.9323,-3.9107,-3.8373,-3.7667,-3.7192,-3.7148,-3.673,-3.653,-3.6601,-3.6935,-3.7126,-3.7298,-3.7572,-3.8027,-3.8257,-3.8411,-3.8507,-3.8854,-3.9227,-3.9631,-3.9457,-3.9188,-3.8757,-3.895,-3.8911,-3.89,-3.8787,-3.8796,-3.9083,-3.9058,-3.9082,-3.8991,-3.8895,-3.8796,-3.8468,-3.7835,-3.7172,-3.691,-3.656,-3.6367,-3.6152,-3.6016,-3.6016,-3.6016,-3.6016,-3.6016,-3.6016,-3.6016,-3.5723,-3.5059,-3.4414,-3.3906,-3.3574,-3.3262,-3.3047,-3.334,-3.373,-3.3887,-3.4082,-3.4746,-3.5137,-3.5312,-3.5702,-3.5953,-3.5984,-3.5967,-3.5921,-3.5841,-3.5739,-3.5589,-3.5618,-3.5693,-3.5684,-3.5665,-3.5643,-3.5602,-3.5559,-3.8875,-3.9487,-3.9526,-3.9946,-4.0545,-4.0681,-4.0675,-4.0609,-4.0602,-4.0688,-4.0798,-4.0883,-4.0945,-4.1016,-4.1064,-4.1111,-4.1105,-4.111,-4.1111,-4.1111,-4.111,-4.1104,-4.1091,-4.1087,-4.1059,-4.1003,-4.096,-4.0913,-4.0872,-4.0739,-4.0648,-4.06,-4.0561,-4.0523,-4.0496,-4.0496,-4.0477,-4.0362,-3.9688,-3.9422,-3.9143,-3.8509,-3.8125,-3.8035,-3.7771,-3.7559,-3.7617,-3.788,-3.8052,-3.8115,-3.8272,-3.8707,-3.9188,-3.9246,-3.9515,-4.0131,-4.0246,-4.0381,-4.04,-4.0381,-4.0208,-4.0054,-3.9854,-4.0004,-4.0311,-4.0393,-4.0255,-4.0011,-4.0355,-4.0203,-3.9984,-3.9675,-3.9228,-3.8687,-3.8039,-3.74,-3.7069,-3.666,-3.6484,-3.6094,-3.6016,-3.6016,-3.6016,-3.6016,-3.6016,-3.6016,-3.6016,-3.5625,-3.5019,-3.4766,-3.4492,-3.4355,-3.416,-3.4316,-3.4609,-3.4648,-3.4941,-3.5605,-3.5898,-3.5878,-3.5875,-3.5965,-3.5991,-3.5951,-3.5875,-3.5827,-3.5741,-3.5665,-3.5654,-3.5637,-3.5618,-3.561,-3.5591,-3.5688,-3.5798,-3.8353,-3.8569,-3.8582,-3.873,-3.9116,-4.0183,-4.0612,-4.0598,-4.0607,-4.0662,-4.079,-4.0864,-4.0917,-4.099,-4.1057,-4.1106,-4.1101,-4.1107,-4.1108,-4.1108,-4.1103,-4.1114,-4.1095,-4.1044,-4.1007,-4.0957,-4.0888,-4.0842,-4.0756,-4.0668,-4.0633,-4.0583,-4.0546,-4.0496,-4.0496,-4.0496,-4.0496,-4.0466,-4.0269,-4.0164,-4.0046,-3.9398,-3.8981,-3.8994,-3.8569,-3.8344,-3.8383,-3.8742,-3.8921,-3.8996,-3.9153,-3.965,-3.9977,-4.0015,-4.0169,-4.0477,-4.0496,-4.0496,-4.0496,-4.0458,-4.0477,-4.0496,-4.0496,-4.0531,-4.0588,-4.0633,-4.0694,-4.0769,-4.0844,-4.0671,-4.0604,-4.0593,-4.0258,-3.9674,-3.9,-3.8241,-3.7734,-3.7246,-3.6855,-3.6289,-3.6016,-3.6016,-3.6016,-3.6016,-3.6016,-3.6016,-3.6016,-3.6016,-3.5566,-3.5586,-3.5469,-3.5449,-3.5371,-3.541,-3.5449,-3.5332,-3.5449,-3.5976,-3.6092,-3.5973,-3.5987,-3.6286,-3.6111,-3.6163,-3.5979,-3.5788,-3.5708,-3.5643,-3.5575,-3.5547,-3.5701,-3.574,-3.5727,-3.6022,-3.6393,-3.7443,-3.7642,-3.7636,-3.7834,-3.8211,-3.9278,-3.9721,-3.9767,-4.0014,-4.0243,-4.0383,-4.0684,-4.0937,-4.1007,-4.1072,-4.1103,-4.1117,-4.11,-4.1102,-4.11,-4.1106,-4.1092,-4.1047,-4.0994,-4.0964,-4.0887,-4.0839,-4.0787,-4.07,-4.0635,-4.0591,-4.0554,-4.0531,-4.0496,-4.0496,-4.0496,-4.0496,-4.0504,-4.0442,-4.048,-4.0361,-4.0107,-3.985,-3.9792,-3.9527,-3.9173,-3.9264,-3.9496,-3.9783,-3.9909,-4.0142,-4.0496,-4.0496,-4.0496,-4.0496,-4.0496,-4.0496,-4.0496,-4.0496,-4.0496,-4.0496,-4.0496,-4.0496,-4.0539,-4.0603,-4.0647,-4.0745,-4.0809,-4.0888,-4.0937,-4.0997,-4.1079,-4.0855,-4.0247,-3.9763,-3.9003,-3.8555,-3.8066,-3.7207,-3.6621,-3.6055,-3.6035,-3.6016,-3.6016,-3.6016,-3.6016,-3.6016,-3.6035,-3.6035,-3.6016,-3.6074,-3.6094,-3.6035,-3.5918,-3.5859,-3.582,-3.6035,-3.6406,-3.6461,-3.6458,-3.6935,-3.7349,-3.6855,-3.6406,-3.6409,-3.6282,-3.5785,-3.562,-3.5772,-3.5907,-3.6067,-3.6047,-3.5923,-3.6442,-3.7103,-3.6055,-3.6709,-3.6748,-3.7189,-3.7829,-3.7942,-3.8033,-3.8141,-3.898,-3.9386,-3.9495,-4.032,-4.0536,-4.0776,-4.0928,-4.0957,-4.1015,-4.1034,-4.1109,-4.1103,-4.1083,-4.1059,-4.1003,-4.0937,-4.0906,-4.0835,-4.079,-4.0725,-4.0675,-4.0607,-4.0554,-4.0531,-4.0496,-4.0496,-4.0496,-4.0496,-4.0496,-4.0516,-4.0531,-4.0557,-4.0504,-4.0544,-4.0456,-4.0449,-4.0384,-4.0346,-4.0378,-4.0442,-4.0447,-4.0463,-4.0496,-4.0512,-4.0496,-4.0496,-4.0496,-4.0496,-4.0496,-4.0496,-4.0496,-4.0496,-4.0496,-4.0496,-4.0496,-4.0542,-4.0593,-4.0668,-4.0745,-4.0862,-4.095,-4.1018,-4.107,-4.1092,-4.108,-4.0678,-4.037,-3.9883,-3.9492,-3.8769,-3.7793,-3.7031,-3.6328,-3.6094,-3.6035,-3.6016,-3.6016,-3.6016,-3.6055,-3.625,-3.6211,-3.6035,-3.6133,-3.6367,-3.6309,-3.625,-3.6289,-3.6621,-3.6855,-3.7324,-3.7336,-3.7409,-3.7941,-3.8168,-3.7681,-3.7279,-3.7104,-3.6866,-3.6565,-3.6318,-3.6196,-3.6381,-3.6848,-3.686,-3.6904,-3.7488,-3.8046,-3.5669,-3.5867,-3.5886,-3.6026,-3.6199,-3.6247,-3.6909,-3.8054,-3.8415,-3.8528,-3.8656,-3.8965,-3.9326,-3.9254,-3.9877,-4.0136,-4.0437,-4.0751,-4.1035,-4.1098,-4.1048,-4.0993,-4.0929,-4.0897,-4.0839,-4.0784,-4.0725,-4.0668,-4.0626,-4.0565,-4.0531,-4.0496,-4.0496,-4.0496,-4.0496,-4.0496,-4.0496,-4.0496,-4.0531,-4.0557,-4.06,-4.0628,-4.0707,-4.0759,-4.0797,-4.0797,-4.0759,-4.0674,-4.0621,-4.0581,-4.0534,-4.0496,-4.0496,-4.0496,-4.0496,-4.0496,-4.0496,-4.0496,-4.0496,-4.0496,-4.0496,-4.0496,-4.0496,-4.0542,-4.06,-4.0675,-4.0763,-4.0877,-4.0967,-4.1032,-4.1078,-4.1095,-4.1099,-4.0932,-4.0684,-4.0469,-4.0078,-3.9473,-3.8457,-3.7246,-3.6562,-3.6172,-3.6113,-3.6016,-3.6016,-3.6016,-3.6152,-3.6445,-3.6523,-3.6387,-3.6543,-3.6816,-3.6953,-3.7012,-3.75,-3.7891,-3.8027,-3.8178,-3.8193,-3.8258,-3.8545,-3.8625,-3.8344,-3.8065,-3.7768,-3.7638,-3.7527,-3.7261,-3.6951,-3.756,-3.8015,-3.793,-3.8007,-3.8546,-3.8919,-3.5489,-3.5481,-3.55,-3.5488,-3.5515,-3.5528,-3.6209,-3.7095,-3.7461,-3.7691,-3.7841,-3.8248,-3.8426,-3.8614,-3.9085,-3.947,-3.9889,-4.0285,-4.066,-4.1042,-4.1002,-4.0932,-4.0878,-4.0848,-4.0767,-4.0726,-4.0681,-4.0633,-4.0588,-4.0531,-4.0496,-4.0496,-4.0496,-4.0496,-4.0496,-4.0496,-4.0496,-4.0523,-4.0539,-4.0583,-4.0619,-4.0654,-4.0707,-4.0784,-4.0797,-4.0797,-4.079,-4.0694,-4.0647,-4.0588,-4.0542,-4.0523,-4.0523,-4.0496,-4.0496,-4.0496,-4.0496,-4.0496,-4.0496,-4.0496,-4.0496,-4.0496,-4.0496,-4.0542,-4.0607,-4.0655,-4.0775,-4.0883,-4.0956,-4.1026,-4.1067,-4.1117,-4.1115,-4.1087,-4.1016,-4.0937,-4.0547,-4.0098,-3.8945,-3.7598,-3.6875,-3.6426,-3.6211,-3.6113,-3.6211,-3.6523,-3.6836,-3.7148,-3.7187,-3.7051,-3.7324,-3.7715,-3.7812,-3.791,-3.8476,-3.8866,-3.8884,-3.8939,-3.9048,-3.9109,-3.9268,-3.9393,-3.9396,-3.8937,-3.8353,-3.8228,-3.8096,-3.7978,-3.7861,-3.8488,-3.8938,-3.8911,-3.9027,-3.9457,-3.9746,-3.525,-3.5257,-3.5391,-3.5406,-3.5522,-3.5572,-3.5659,-3.5709,-3.6513,-3.6846,-3.7059,-3.7763,-3.8033,-3.7959,-3.8291,-3.8768,-3.9256,-3.9706,-4.0285,-4.0889,-4.0948,-4.0869,-4.0787,-4.0744,-4.072,-4.068,-4.0639,-4.061,-4.0561,-4.0531,-4.0496,-4.0496,-4.0496,-4.0496,-4.0496,-4.0504,-4.0523,-4.0531,-4.0546,-4.0576,-4.06,-4.064,-4.0668,-4.079,-4.0803,-4.0803,-4.079,-4.0746,-4.0687,-4.0633,-4.0591,-4.0565,-4.0523,-4.0496,-4.0496,-4.0496,-4.0496,-4.0496,-4.0496,-4.0496,-4.0496,-4.0496,-4.0496,-4.0534,-4.0593,-4.0662,-4.0782,-4.0877,-4.0952,-4.1036,-4.1078,-4.1099,-4.1099,-4.1127,-4.1094,-4.1074,-4.0898,-4.0351,-3.9414,-3.8262,-3.7715,-3.7285,-3.6992,-3.6973,-3.7129,-3.7324,-3.75,-3.7832,-3.8086,-3.7969,-3.8184,-3.8613,-3.8672,-3.8828,-3.9199,-3.953,-3.9566,-3.9658,-3.9785,-4.0012,-4.0178,-4.0377,-4.0562,-3.9907,-3.9219,-3.878,-3.8582,-3.8657,-3.8892,-3.9207,-3.9592,-3.9777,-4.0035,-4.0227,-4.0265,-3.3564,-3.366,-3.4314,-3.4968,-3.5525,-3.5574,-3.5599,-3.5689,-3.5921,-3.6054,-3.6149,-3.6378,-3.6615,-3.6857,-3.7381,-3.7835,-3.8122,-3.919,-3.9763,-4.0276,-4.0577,-4.0832,-4.075,-4.0707,-4.0673,-4.0631,-4.0588,-4.0573,-4.0531,-4.0496,-4.0496,-4.0496,-4.0496,-4.0496,-4.0523,-4.0531,-4.0573,-4.0573,-4.0571,-4.0593,-4.0621,-4.0668,-4.072,-4.0784,-4.0808,-4.0808,-4.0776,-4.0739,-4.0707,-4.0687,-4.0624,-4.0573,-4.0496,-4.0496,-4.0496,-4.0496,-4.0496,-4.0496,-4.0496,-4.0496,-4.0496,-4.0496,-4.0496,-4.0546,-4.0591,-4.068,-4.0764,-4.0872,-4.0954,-4.1022,-4.1073,-4.1097,-4.1121,-4.1147,-4.1172,-4.1191,-4.1191,-4.0508,-3.9766,-3.918,-3.8613,-3.8242,-3.793,-3.7891,-3.8086,-3.8203,-3.8262,-3.8574,-3.918,-3.9316,-3.9258,-3.9551,-3.9551,-3.9726,-4.0019,-4.0172,-4.0206,-4.0351,-4.0508,-4.0786,-4.1009,-4.0844,-4.0654,-4.0565,-4.0149,-3.9663,-3.9499,-3.9888,-4.0092,-4.0054,-4.0054,-4.015,-4.0227,-4.04,-4.0439,-3.296,-3.306,-3.3547,-3.4038,-3.4444,-3.452,-3.455,-3.46,-3.4665,-3.4911,-3.5321,-3.5672,-3.5951,-3.6011,-3.6549,-3.7033,-3.7377,-3.86,-3.9312,-3.9816,-4.0306,-4.0665,-4.0713,-4.0654,-4.0605,-4.0573,-4.0546,-4.0531,-4.0496,-4.0496,-4.0496,-4.0496,-4.0496,-4.0504,-4.0531,-4.058,-4.0583,-4.0598,-4.0609,-4.0636,-4.0642,-4.0688,-4.0739,-4.0781,-4.0798,-4.0804,-4.0798,-4.0761,-4.0732,-4.0694,-4.0639,-4.0615,-4.0539,-4.0523,-4.0496,-4.0496,-4.0496,-4.0496,-4.0496,-4.0496,-4.0496,-4.0496,-4.0496,-4.0539,-4.0569,-4.066,-4.0707,-4.0815,-4.0897,-4.0964,-4.1039,-4.1066,-4.1094,-4.1126,-4.115,-4.1152,-4.1172,-4.0879,-4.0215,-3.9629,-3.918,-3.8906,-3.8594,-3.8262,-3.8535,-3.9121,-3.918,-3.9492,-4.0059,-4.0293,-4.0351,-4.0371,-4.0293,-4.041,-4.0643,-4.0775,-4.0843,-4.1021,-4.1072,-4.0993,-4.092,-4.0801,-4.0688,-4.0595,-4.0526,-4.0411,-4.0427,-4.0496,-4.0496,-4.0342,-4.0362,-4.0458,-4.0496,-4.0496,-4.0496,-3.2698,-3.2863,-3.2935,-3.3039,-3.3141,-3.3213,-3.3277,-3.3285,-3.333,-3.3852,-3.4691,-3.5424,-3.5791,-3.598,-3.6045,-3.6522,-3.711,-3.7876,-3.8641,-3.9407,-4.0162,-4.0468,-4.061,-4.0598,-4.0561,-4.0539,-4.0504,-4.0496,-4.0496,-4.0496,-4.0496,-4.0496,-4.0504,-4.0531,-4.058,-4.0591,-4.0619,-4.0641,-4.0668,-4.0732,-4.0718,-4.0718,-4.0779,-4.0807,-4.0804,-4.0804,-4.0804,-4.0798,-4.0776,-4.0732,-4.0668,-4.0624,-4.0588,-4.0565,-4.0523,-4.0523,-4.0496,-4.0496,-4.0496,-4.0496,-4.0496,-4.0496,-4.0496,-4.0531,-4.0561,-4.0619,-4.0668,-4.0761,-4.0849,-4.0929,-4.1007,-4.1072,-4.1085,-4.1104,-4.1129,-4.1152,-4.1152,-4.1152,-4.0644,-4.0078,-3.9883,-3.9609,-3.9375,-3.9023,-3.9277,-3.9863,-4.0234,-4.0605,-4.0859,-4.0801,-4.0781,-4.0801,-4.0762,-4.0935,-4.111,-4.1102,-4.1108,-4.1059,-4.1022,-4.0925,-4.0844,-4.0732,-4.0661,-4.0617,-4.0573,-4.0531,-4.0516,-4.0496,-4.0496,-4.0496,-4.0496,-4.0496,-4.0496,-4.0496,-4.0496,-3.1419,-3.2102,-3.213,-3.2492,-3.3082,-3.3164,-3.3223,-3.3278,-3.3256,-3.3821,-3.4413,-3.4805,-3.5277,-3.6001,-3.602,-3.6226,-3.6419,-3.7141,-3.7837,-3.8578,-3.9528,-4.0089,-4.0428,-4.0506,-4.0546,-4.0531,-4.0496,-4.0496,-4.0496,-4.0496,-4.0496,-4.0496,-4.0546,-4.0588,-4.0603,-4.0633,-4.0681,-4.0719,-4.0779,-4.0828,-4.0863,-4.0863,-4.0863,-4.0888,-4.0878,-4.0882,-4.0887,-4.0887,-4.0874,-4.0837,-4.0732,-4.0668,-4.0605,-4.0588,-4.0565,-4.0531,-4.0523,-4.0496,-4.0496,-4.0496,-4.0496,-4.0496,-4.0496,-4.0496,-4.0554,-4.0598,-4.0655,-4.0725,-4.0814,-4.0913,-4.0997,-4.1069,-4.1103,-4.1124,-4.1131,-4.1172,-4.1191,-4.1191,-4.0976,-4.0801,-4.0742,-4.0625,-4.0586,-4.041,-4.0449,-4.0859,-4.0937,-4.125,-4.1289,-4.125,-4.1269,-4.1171,-4.1149,-4.1106,-4.1102,-4.1115,-4.1095,-4.1061,-4.0983,-4.0888,-4.0784,-4.0675,-4.0607,-4.0588,-4.0539,-4.0516,-4.0496,-4.0496,-4.0496,-4.0496,-4.0496,-4.0496,-4.0496,-4.0496,-4.0496]},{"header":{"parameterUnit":"m.s-1","parameterCategory":1,"la1":31.0,"la2":29.5877,"lo1":-88.7671,"lo2":-86.6584,"dy":0.0162,"dx":0.0185,"nx":115,"ny":88,"refTime":"2024-02-25T12:00:00:Z","depth":0,"parameterNumber":3,"parameterNumberName":"V-component_of_WINDS"},"data":[0.0,0.0,0.0,0.0,0.0,0.0,0.0,0.0,0.0,0.0,0.0,0.0,0.0,0.0,0.0,0.0,0.0,0.0,0.0,0.0,0.0,0.0,0.0,0.0,0.0,0.0,0.0,0.0,0.0,0.0,0.0,0.0,0.0,0.0,0.0,0.0,0.0,0.0,0.0,0.0,0.0,0.0,0.0,0.0,0.0,0.0,0.0,0.0,0.0,0.0,0.0,0.0,0.0,0.0,0.0,0.0,0.0,0.0,0.0,0.0,0.0,0.0,0.0,0.0,0.0,0.0,0.0,0.0,0.0,0.0,0.0,0.0,0.0,0.0,0.0,0.0,0.0,0.0,0.0,0.0,0.0,0.0,0.0,0.0,0.0,0.0,0.0,0.0,0.0,0.0,0.0,0.0,0.0,0.0,0.0,0.0,0.0,0.0,0.0,0.0,0.0,0.0,0.0,0.0,0.0,0.0,0.0,0.0,0.0,0.0,0.0,0.0,0.0,0.0,0.0,0.0,0.0,0.0,0.0,0.0,0.0,0.0,0.0,0.0,0.0,0.0,0.0,0.0,0.0,0.0,0.0,0.0,0.0,0.0,0.0,0.0,0.0,0.0,0.0,0.0,0.0,0.0,0.0,0.0,0.0,0.0,0.0,0.0,0.0,0.0,0.0,0.0,0.0,0.0,0.0,0.0,0.0,0.0,0.0,0.0,0.0,0.0,0.0,0.0,0.0,0.0,0.0,0.0,0.0,0.0,0.0,0.0,0.0,0.0,0.0,0.0,0.0,0.0,0.0,0.0,0.0,0.0,0.0,0.0,0.0,0.0,0.0,0.0,0.0,0.0,0.0,0.0,0.0,0.0,0.0,0.0,0.0,0.0,0.0,0.0,0.0,0.0,0.0,0.0,0.0,0.0,0.0,0.0,0.0,0.0,0.0,0.0,0.0,0.0,0.0,0.0,0.0,0.0,0.0,0.0,0.0,0.0,0.0,0.0,0.0,0.0,0.0,0.0,0.0,0.0,0.0,0.0,0.0,0.0,0.0,0.0,0.0,0.0,0.0,0.0,0.0,0.0,0.0,0.0,0.0,0.0,0.0,0.0,0.0,0.0,0.0,0.0,0.0,0.0,0.0,0.0,0.0,0.0,0.0,0.0,0.0,0.0,0.0,0.0,0.0,0.0,0.0,0.0,0.0,0.0,0.0,0.0,0.0,0.0,0.0,0.0,0.0,0.0,0.0,0.0,0.0,0.0,0.0,0.0,0.0,0.0,0.0,0.0,0.0,0.0,0.0,0.0,0.0,0.0,0.0,0.0,0.0,0.0,0.0,0.0,0.0,0.0,0.0,0.0,0.0,0.0,0.0,0.0,0.0,0.0,0.0,0.0,0.0,0.0,0.0,0.0,0.0,0.0,0.0,0.0,0.0,0.0,0.0,0.0,0.0,0.0,0.0,0.0,0.0,0.0,0.0,0.0,0.0,0.0,0.0,0.0,0.0,0.0,0.0,0.0,0.0,0.0,0.0,0.0,0.0,0.0,0.0,0.0,0.0,0.0,0.0,0.0,0.0,0.0,0.0,0.0,0.0,0.0,0.0,0.0,0.0,0.0,0.0,0.0,0.0,0.0,0.0,0.0,0.0,0.0,0.0,0.0,0.0,0.0,0.0,0.0,0.0,0.0,0.0,0.0,0.0,0.0,0.0,0.0,0.0,0.0,0.0,0.0,0.0,0.0,0.0,0.0,0.0,0.0,0.0,0.0,0.0,0.0,0.0,0.0,0.0,0.0,0.0,0.0,0.0,0.0,0.0,0.0,0.0,0.0,0.0,0.0,0.0,0.0,0.0,0.0,0.0,0.0,0.0,0.0,0.0,0.0,0.0,0.0,0.0,0.0,0.0,0.0,0.0,0.0,0.0,0.0,0.0,0.0,0.0,0.0,0.0,0.0,0.0,0.0,0.0,0.0,0.0,0.0,0.0,0.0,0.0,0.0,0.0,0.0,0.0,0.0,0.0,0.0,0.0,0.0,0.0,0.0,0.0,0.0,0.0,0.0,0.0,0.0,0.0,0.0,0.0,0.0,0.0,0.0,0.0,0.0,0.0,0.0,0.0,0.0,0.0,0.0,0.0,0.0,0.0,0.0,0.0,0.0,0.0,0.0,0.0,0.0,0.0,0.0,0.0,0.0,0.0,0.0,0.0,0.0,0.0,0.0,0.0,0.0,0.0,0.0,0.0,0.0,0.0,0.0,0.0,0.0,0.0,0.0,0.0,0.0,0.0,0.0,0.0,0.0,0.0,0.0,0.0,0.0,0.0,0.0,0.0,0.0,0.0,0.0,0.0,0.0,0.0,0.0,0.0,0.0,0.0,0.0,0.0,0.0,0.0,0.0,0.0,0.0,0.0,0.0,0.0,0.0,0.0,0.0,0.0,0.0,0.0,0.0,0.0,0.0,0.0,0.0,0.0,0.0,0.0,0.0,0.0,0.0,0.0,0.0,0.0,0.0,0.0,0.0,0.0,0.0,0.0,0.0,0.0,0.0,0.0,0.0,0.0,0.0,0.0,0.0,0.0,0.0,0.0,0.0,0.0,0.0,0.0,0.0,0.0,0.0,0.0,0.0,0.0,0.0,0.0,0.0,0.0,0.0,0.0,0.0,0.0,0.0,0.0,0.0,0.0,0.0,0.0,0.0,0.0,0.0,0.0,0.0,0.0,0.0,0.0,0.0,0.0,0.0,0.0,0.0,0.0,0.0,0.0,0.0,0.0,0.0,0.0,0.0,0.0,0.0,0.0,0.0,0.0,0.0,0.0,0.0,0.0,0.0,0.0,0.0,0.0,0.0,0.0,0.0,0.0,0.0,0.0,0.0,0.0,0.0,0.0,0.0,0.0,0.0,0.0,0.0,0.0,0.0,0.0,0.0,0.0,0.0,0.0,0.0,0.0,0.0,0.0,0.0,0.0,0.0,0.0,0.0,0.0,0.0,0.0,0.0,0.0,0.0,0.0,0.0,0.0,0.0,0.0,0.0,0.0,0.0,0.0,0.0,0.0,0.0,0.0,0.0,0.0,0.0,0.0,0.0,0.0,0.0,0.0,0.0,0.0,0.0,0.0,0.0,0.0,0.0,0.0,0.0,0.0,0.0,0.0,0.0,0.0,0.0,0.0,0.0,0.0,0.0,0.0,0.0,0.0,0.0,0.0,0.0,0.0,0.0,0.0,0.0,0.0,0.0,0.0,0.0,0.0,0.0,0.0,0.0,0.0,0.0,0.0,0.0,0.0,0.0,0.0,0.0,0.0,0.0,0.0,0.0,0.0,0.0,0.0,0.0,0.0,0.0,0.0,0.0,0.0,0.0,0.0,0.0,0.0,0.0,0.0,0.0,0.0,0.0,0.0,0.0,0.0,0.0,0.0,0.0,0.0,0.0,0.0,0.0,0.0,0.0,0.0,0.0,0.0,0.0,0.0,0.0,0.0,0.0,0.0,0.0,0.0,0.0,0.0,0.0,0.0,0.0,0.0,0.0,0.0,0.0,0.0,0.0,0.0,0.0,0.0,0.0,0.0,0.0,0.0,0.0,0.0,0.0,0.0,0.0,0.0,0.0,0.0,0.0,0.0,0.0,0.0,0.0,0.0,0.0,0.0,0.0,0.0,0.0,0.0,0.0,0.0,0.0,0.0,0.0,0.0,0.0,0.0,0.0,0.0,0.0,0.0,0.0,0.0,0.0,0.0,0.0,0.0,0.0,0.0,0.0,0.0,0.0,0.0,0.0,0.0,0.0,0.0,0.0,0.0,0.0,0.0,0.0,0.0,0.0,0.0,0.0,0.0,0.0,0.0,0.0,0.0,0.0,0.0,0.0,0.0,0.0,0.0,0.0,0.0,0.0,0.0,0.0,0.0,0.0,0.0,0.0,0.0,0.0,0.0,0.0,0.0,0.0,0.0,0.0,0.0,0.0,0.0,0.0,0.0,0.0,0.0,0.0,0.0,0.0,0.0,0.0,0.0,0.0,0.0,0.0,0.0,0.0,0.0,0.0,0.0,0.0,0.0,0.0,0.0,0.0,0.0,0.0,0.0,0.0,0.0,0.0,0.0,0.0,0.0,0.0,0.0,0.0,0.0,0.0,0.0,0.0,0.0,0.0,0.0,0.0,0.0,0.0,0.0,0.0,0.0,0.0,0.0,0.0,0.0,0.0,0.0,0.0,0.0,0.0,0.0,0.0,0.0,0.0,0.0,0.0,0.0,0.0,0.0,0.0,0.0,0.0,0.0,0.0,0.0,0.0,0.1776,0.0,0.0,0.0,0.0,0.0,0.0,0.0,0.0,0.0,0.0,0.0,0.0,0.0,0.0,0.0,0.0,0.0,0.0,0.0,0.0,0.0,0.0,0.0,0.0,0.0,0.0,0.0,0.0,0.0,0.0,0.0,0.0,0.0,0.0,0.0,0.0,0.0,0.0,0.0,0.0,0.0,0.0,0.0,0.0,0.0,0.0,0.0,0.0,0.0,0.0,0.0,0.0,0.0,0.0,0.0,0.0,0.0,0.0,0.0,0.0,0.0,0.0,0.0,0.0,0.0,0.0,0.0,0.0,0.0,0.0,0.0,0.0,0.0,0.0,0.0,0.0,0.0,0.0,0.0,0.0,0.0,0.0,0.0,0.0,0.0,0.0,0.0,0.0,0.0,0.0,0.0,0.0,0.0,0.0,0.0,0.0,0.0,0.0,0.0,0.0,0.0,0.0,0.0,0.0,0.0,0.0,0.0,0.0,0.0,0.0,0.0415,0.0892,0.1263,0.161,0.196,0.0,0.0,0.0,0.0,0.0,0.0,0.0,0.0,0.0,0.0,0.0,0.0,0.0,0.0,0.0,0.0,0.0,0.0,0.0,0.0,0.0,0.0,0.0,0.0,0.0,0.0,0.0,0.0,0.0,0.0,0.0,0.0,0.0,0.0,0.0,0.0,0.0,0.0,0.0,0.0,0.0,0.0,0.0,0.0,0.0,0.0,0.0,0.0,0.0,0.0,0.0,0.0,0.0,0.0,0.0,0.0,0.0,0.0,0.0,0.0,0.0,0.0,0.0,0.0,0.0,0.0,0.0,0.0,0.0,0.0,0.0,0.0,0.0,0.0,0.0,0.0,0.0,0.0,0.0,0.0,0.0,0.0,0.0,0.0,0.0,0.0,0.0,0.0,0.0,0.0,0.0,0.0,0.0,0.0,0.0,0.0,0.0,0.0,0.0,0.0,0.0,0.0,0.0,0.0,0.0,0.0,0.0,0.0,0.0,0.0,0.0,0.0,0.1379,0.1807,0.2266,0.0,0.0,0.0,0.0,0.0,0.0,0.0,0.0,0.0,0.0,0.0,0.0,0.0,0.0,0.0,0.0,0.0,0.0,0.0,0.0,0.0,0.0,0.0,0.0,0.0,0.0,0.0,0.0,0.0,0.0,0.0,0.0,0.0,0.0,0.0,0.0,0.0,0.0,0.0,0.0,0.0,0.0,0.0,0.0,0.0,0.0,0.0,0.0,0.0,0.0,0.0,0.0,0.0,0.0,0.0,0.0,0.0,0.0,0.0,0.0,0.0,0.0,0.0,0.0,0.0,0.0,0.0,0.0,0.0,0.0,0.0,0.0,0.0,0.0,0.0,0.0,0.0,0.0,0.0,0.0,0.0,0.0,0.0,0.0,0.0,0.0,0.0,0.0,0.0,0.0,0.0,0.0,0.0,0.0,0.0,0.0,0.0,0.0,0.0,0.0,0.0,0.0,0.0,0.0,0.0,0.0,0.0,0.0,0.0,0.0,0.0639,0.1155,0.1618,0.0,0.2771,0.0,0.0,0.0,0.0,0.0,0.0,0.0,0.0,0.0,0.0,0.0,0.0,0.0,0.0,0.0,0.0,0.0,0.0,0.0,0.0,0.0,0.0,0.0,0.0,0.0,0.0,0.0,0.0,0.0,0.0,0.0,0.0,0.0,0.0,0.0,0.0,0.0,0.0,0.0,0.0,0.0,0.0,0.0,0.0,0.0,0.0,0.0,0.0,0.0,0.0,0.0,0.0,0.0,0.0,0.0,0.0,0.0,0.0,0.0,0.0,0.0,0.0,0.0,0.0,0.0,0.0,0.0,0.0,0.0,0.0,0.0,0.0,0.0,0.0,0.0,0.0,0.0,0.0,0.0,0.0,0.0,0.0,0.0,0.0,0.0,0.0,0.0,0.0,0.0,0.0,0.0,0.0,0.0,0.0,0.0,0.0,0.0,0.0,0.0,0.0,0.0,0.0,0.0,0.0,0.0,0.0,0.0,0.0,0.0,0.0,0.0634,0.1121,0.1894,0.2427,0.0,0.0,0.0,0.0,0.0,0.0,0.0,0.0,0.0,0.0,0.0,0.0,0.0,0.0,0.0,0.0,0.0,0.0,0.0,0.0,0.0,0.0,0.0,0.0,0.0,0.0,0.0,0.0,0.0,0.0,0.0,0.0,0.0,0.0,0.0,0.0,0.0,0.0,0.0,0.0,0.0,0.0,0.0,0.0,0.0,0.0,0.0,0.0,0.0,0.0,0.0,0.0,0.0,0.0,0.0,0.0,0.0,0.0,0.0,0.0,0.0,0.0,0.0,0.0,0.0,0.0,0.0,0.0,0.0,0.0,0.0,0.0,0.0,0.0,0.0,0.0,0.0,0.0,0.0,0.0,0.0,0.0,0.0,0.0,0.0,0.0,0.0,0.0,0.0,0.0,0.0,0.0,0.0,0.0,0.0,0.0,0.0,0.0,0.0,0.0,0.0,0.0,0.0,0.0,0.0,0.0,0.0,0.0,0.0,0.0,0.0122,0.0678,0.134,0.2142,0.2566,0.2598,0.0,0.0,0.0,0.0,0.0,0.0,0.0,0.0,0.0,0.0,0.0,0.0,0.0,0.0,0.0,0.0,0.0,0.0,0.0,0.0,0.0,0.0,0.0,0.0,0.0,0.0,0.0,0.0,0.0,0.0,0.0,0.0,0.0,0.0,0.0,0.0,0.0,0.0,0.0,0.0,0.0,0.0,0.0,0.0,0.0,0.0,0.0,0.0,0.0,0.0,0.0,0.0,0.0,0.0,0.0,0.0,0.0,0.0,0.0,0.0,0.0,0.0,0.0,0.0,0.0,0.0,0.0,0.0,0.0,0.0,0.0,0.0,0.0,0.0,0.0,0.0,0.0,0.0,0.0,0.0,0.0,0.0,0.0,0.0,0.0,0.0,0.0,0.0,0.0,0.0,0.0,0.0,0.0,0.0,0.0,0.0,0.0,0.0,0.0,0.0,0.0,0.0,0.0,0.0,0.0,0.0,0.0,0.0,-0.0389,0.0063,0.0832,0.1913,0.2312,0.2582,0.0,0.0,0.0,0.0,0.0,0.0,0.0,0.0,0.0,0.0,0.0,0.0,0.0,0.0,0.0,0.0,0.0,0.0,0.0,0.0,0.0,0.0,0.0,0.0,0.0,0.0,0.0,0.0,0.0,0.0,0.0,0.0,0.0,0.0,0.0,0.0,0.0,0.0,0.0,0.0,0.0,0.0,0.0,0.0,0.0,0.0,0.0,0.0,0.0,0.0,0.0,0.0,0.0,0.0,0.0,0.0,0.0,0.0,0.0,0.0,0.0,0.0,0.0,0.0,0.0,0.0,0.0,0.0,0.0,0.0,0.0,0.0,0.0,0.0,0.0,0.0,0.0,0.0,0.0,0.0,0.0,0.0,0.0,0.0,0.0,0.0,0.0,0.0,0.0,0.0,0.0,0.0,0.0,0.0,0.0,0.0,0.0,0.0,0.0,0.0,0.0,0.0,0.0,0.0,0.0,0.0,0.0,0.0,0.0,-0.0506,0.022,0.0989,0.1765,0.2145,0.2393,0.0,0.0,0.0,0.0,0.0,0.0,0.0,0.0,0.0,0.0,0.0,0.0,0.0,0.0,0.0,0.0,0.0,0.0,0.0,0.0,0.0,0.0,0.0,0.0,0.0,0.0,0.0,0.0,0.0,0.0,0.0,0.0,0.0,0.0,0.0,0.0,0.0,0.0,0.0,0.0,0.0,0.0,0.0,0.0,0.0,0.0,0.0,0.0,0.0,0.0,0.0,0.0,0.0,0.0,0.0,0.0,0.0,0.0,0.0,0.0,0.0,0.0,0.0,0.0,0.0,0.0,0.0,0.0,0.0,0.0,0.0,0.0,0.0,0.0,0.0,0.0,0.0,0.0,0.0,0.0,0.0,0.0,0.0,0.0,0.0,0.0,0.0,0.0,0.0,0.0,0.0,0.0,0.0,0.0,0.0,0.0,0.0,0.0,0.0,0.0,0.0,0.0,0.0,0.0,0.0,0.0,0.0,0.0,0.0,-0.046,0.0,0.1065,0.1671,0.2034,0.2281,0.0,0.0,0.0,0.0,0.0,0.0,0.0,0.0,0.0,0.0,0.0,0.0,0.0,0.0,0.0,0.0,0.0,0.0,0.0,0.0,0.0,0.0,0.0,0.0,0.0,0.0,0.0,0.0,0.0,0.0,0.0,0.0,0.0,0.0,0.0,0.0,0.0,0.0,0.0,0.0,0.0,0.0,0.0,0.0,0.0,0.0,0.0,0.0,0.0,0.0,0.0,0.0,0.0,0.0,0.0,0.0,0.0,0.0,0.0,0.0,0.0,0.0,0.0,0.0,0.0,0.0,0.0,0.0,0.0,0.0,0.0,0.0,0.0,0.0,0.0,0.0,0.0,0.0,0.0,0.0,0.0,0.0,0.0,0.0,0.0,0.0,0.0,0.0,0.0,0.0,0.0,0.0,0.0,0.0,0.0,0.0,0.0,0.0,0.0,0.0,0.0,0.0,0.0,0.0,0.0,0.0,0.0,0.0,-0.1014,-0.0214,0.0374,0.1021,0.1676,0.2098,0.2336,0.0,0.0,0.0,0.0,0.0,0.0,0.0,0.0,0.0,0.0,0.0,0.0,0.0,0.0,0.0,0.0,0.0,0.0,0.0,0.0,0.0,0.0,0.0,0.0,0.0,0.0,0.0,0.0,0.0,0.0,0.0,0.0,0.0,0.0,0.0,0.0,0.0,0.0,0.0,0.0,0.0,0.0,0.0,0.0,0.0,0.0,0.0,0.0,0.0,0.0,0.0,0.0,0.0,0.0,0.0,0.0,0.0,0.0,0.0,0.0,0.0,0.0,0.0,0.0,0.0,0.0,0.0,0.0,0.0,0.0,0.0,0.0,0.0,0.0,0.0,0.0,0.0,0.0,0.0,0.0,0.0,0.0,0.0,0.0,0.0,0.0,0.0,0.0,0.0,0.0,0.0,0.0,0.0,0.0,0.0,0.0,0.0,0.0,0.0,0.0,0.0,0.0,0.0,0.0,0.0,0.0,0.0,0.0,0.0,-0.02,0.0392,0.1025,0.1673,0.2034,0.2278,0.0,0.0,0.0,0.0,0.0,0.0,0.0,0.0,0.0,0.0,0.0,0.0,0.0,0.0,0.0,0.0,0.0,0.0,0.0,0.0,0.0,0.0,0.0,0.0,0.0,0.0,0.0,0.0,0.0,0.0,0.0,0.0,0.0,0.0,0.0,0.0,0.0,0.0,0.0,0.0,0.0,0.0,0.0,0.0,0.0,0.0,0.0,0.0,0.0,0.0,0.0,0.0,0.0,0.0,0.0,0.0,0.0,0.0,0.0,0.0,0.0,0.0,0.0,0.0,0.0,0.0,0.0,0.0,0.0,0.0,0.0,0.0,0.0,0.0,0.0,0.0,0.0,0.0,0.0,0.0,0.0,0.0,0.0,0.0,0.0,0.0,0.0,0.0,0.0,0.0,0.0,0.0,0.0,0.0,0.0,0.0,0.0,0.0,0.0,0.0,0.0,0.0,0.0,0.0,0.0,0.0,0.0,0.0,0.0,0.0,0.0516,0.1092,0.1792,0.2138,0.2377,0.2549,0.0,0.0,0.0,0.0,0.0,0.0,0.0,0.0,0.0,0.0,0.0,0.0,0.0,0.0,0.0,0.0,0.0,0.0,0.0,0.0,0.0,0.0,0.0,0.0,0.0,0.0,0.0,0.0,0.0,0.0,0.0,0.0,0.0,0.0,0.0,0.0,0.0,0.0,0.0,0.0,0.0,0.0,0.0,0.0,0.0,0.0,0.0,0.0,0.0,0.0,0.0,0.0,0.0,0.0,0.0,0.0,0.0,0.0,0.0,0.0,0.0,0.0,0.0,0.0,0.0,0.0,0.0,0.0,0.0,0.0,0.0,0.0,0.0,0.0,0.0,0.0,0.0,0.0,0.0,0.0,0.0,0.0,0.0,0.0,0.0,0.0,0.0,0.0,0.0,0.0,0.0,0.0,0.0,0.0,0.0,0.0,0.0,0.0,0.0,0.0,0.0,0.0,0.0,0.0,0.0,0.0,0.0,0.0,0.0434,0.0798,0.1321,0.201,0.2373,0.2647,0.0,0.0,0.0,0.0,0.0,0.0,0.0,0.0,0.0,0.0,0.0,0.0,0.0,0.0,0.0,0.0,0.0,0.0,0.0,0.0,0.0,0.0,0.0,0.0,0.0,0.0,0.0,0.0,0.0,0.0,0.0,0.0,0.0,0.0,0.0,0.0,0.0,0.0,0.0,0.0,0.0,0.0,0.0,0.0,0.0,0.0,0.0,0.0,0.0,0.0,0.0,0.0,0.0,0.0,0.0,0.0,0.0,0.0,0.0,0.0,0.0,0.0,0.0,0.0,0.0,0.0,0.0,0.0,0.0,0.0,0.0,0.0,0.0,0.0,0.0,0.0,0.0,0.0,0.0,0.0,0.0,0.0,0.0,0.0,0.0,0.0,0.0,0.0,0.0,0.0,0.0,0.0,0.0,0.0,0.0,0.0,0.0,0.0,0.0,0.0,0.0,0.0,0.0,0.0,0.0,0.0,0.0,0.0,0.0,0.0816,0.1542,0.2089,0.2443,0.2863,0.3073,0.0,0.0,0.0,0.0,0.0,0.0,0.0,0.0,0.0,0.0,0.0,0.0,0.0,0.0,0.0,0.0,0.0,0.0,0.0,0.0,0.0,0.0,0.0,0.0,0.0,0.0,0.0,0.0,0.0,0.0,0.0,0.0,0.0,0.0,0.0,0.0,0.0,0.0,0.0,0.0,0.0,0.0,0.0,0.0,0.0,0.0,0.0,0.0,0.0,0.0,0.0,0.0,0.0,0.0,0.0,0.0,0.0,0.0,0.0,0.0,0.0,0.0,0.0,0.0,0.0,0.0,0.0,0.0,0.0,0.0,0.0,0.0,0.0,0.0,0.0,0.0,0.0,0.0,0.0,0.0,0.0,0.0,0.0,0.0,0.0,0.0,0.0,0.0,0.0,0.0,0.0,0.0,0.0,0.0,0.0,0.0,0.0,0.0,0.0,0.0,0.0,0.0,0.0,0.0,0.0,0.0,0.0,0.0,0.0202,0.1289,0.2158,0.2798,0.322,0.3407,0.35,0.0,0.0,0.0,0.0,0.0,0.0,0.0,0.0,0.0,0.0,0.0,0.0,0.0,0.0,0.0,0.0,0.0,0.0,0.0,0.0,0.0,0.0,0.0,0.0,0.0,0.0,0.0,0.0,0.0,0.0,0.0,0.0,0.0,0.0,0.0,0.0,0.0,0.0,0.0,0.0,0.0,0.0,0.0,0.0,0.0,0.0,0.0,0.0,0.0,0.0,0.0,0.0,0.0,0.0,0.0,0.0,0.0,0.0,0.0,0.0,0.0,0.0,0.0,0.0,0.0,0.0,0.0,0.0,0.0,0.0,0.0,0.0,0.0,0.0,0.0,0.0,0.0,0.0,0.0,0.0,0.0,0.0,0.0,0.0,0.0,0.0,0.0,0.0,0.0,0.0,0.0,0.0,0.0,0.0,0.0,0.0,0.0,0.0,0.0,0.0,0.0,0.0,0.0,0.0,0.0,0.0,0.0,0.0,0.0559,0.1711,0.2589,0.3389,0.414,0.3956,0.3908,0.0,0.0,0.0,0.0,0.0,0.0,0.0,0.0,0.0,0.0,0.0,0.0,0.0,0.0,0.0,0.0,0.0,0.0,0.0,0.0,0.0,0.0,0.0,0.0,0.0,0.0,0.0,0.0,0.0,0.0,0.0,0.0,0.0,0.0,0.0,0.0,0.0,0.0,0.0,0.0,0.0,0.0,0.0,0.0,0.0,0.0,0.0,0.0,0.0,0.0,0.0,0.0,0.0,0.0,0.0,0.0,0.0,0.0,0.0,0.0,0.0,0.0,0.0,0.0,0.0,0.0,0.0,0.0,0.0,0.0,0.0,0.0,0.0,0.0,0.0,0.0,0.0,0.0,0.0,0.0,0.0,0.0,0.0,0.0,0.0,0.0,0.0,0.0,0.0,0.0,0.0,0.0,0.0,0.0,0.0,0.0,0.0,0.0,0.0,0.0,0.0,0.0,0.0,0.0,0.0,0.0,0.0,0.0,0.0707,0.1989,0.2876,0.3727,0.4621,0.435,0.4178,0.0,0.0,0.0,0.0,0.0,0.0,0.0,0.0,0.0,0.0,0.0,0.0,0.0,0.0,0.0,0.0,0.0,0.0,0.0,0.0,0.0,0.0,0.0,0.0,0.0,0.0,0.0,0.0,0.0,0.0,0.0,0.0,0.0,0.0,0.0,0.0,0.0,0.0,0.0,0.0,0.0,0.0,0.0,0.0,0.0,0.0,0.0,0.0,0.2562,0.0,0.0,0.0,0.0,0.0,0.0,0.0,0.0,0.0,0.0,0.0,0.0,0.0,0.0,0.0,0.0,0.0,0.0,0.0,0.0,0.0,0.0,0.0,0.0,0.0,0.0,0.0,0.0,0.0,0.0,0.0,0.0,0.0,0.0,0.0,0.0,0.0,0.0,0.0,0.0,0.0,0.0,0.0,0.0,0.0,0.0,0.0,0.0,0.0,0.0,0.0,0.0,0.0,0.0,0.0,0.0,0.0,0.0,0.0,0.0919,0.2017,0.3002,0.386,0.4555,0.4489,0.4441,0.0,0.0,0.0,0.0,0.0,0.0,0.0,0.0,0.0,0.0,0.0,0.0,0.0,0.0,0.0,0.0,0.0,0.0,0.0,0.0,0.0,0.0,0.0,0.0,0.0,0.0,0.0,0.0,0.0,0.0,0.0,0.0,0.0,0.0,0.0,0.0,0.0,0.0,0.0,0.0,0.0,0.0,0.0,0.0,0.0,0.0,0.0,0.0,0.0,0.0,0.0,0.0,0.0,0.0,0.0,0.0,0.0,0.0,0.0,0.0,0.0,0.0,0.0,0.0,0.0,0.0,0.0,0.0,0.0,0.0,0.0,0.0,0.0,0.0,0.0,0.0,0.0,0.0,0.0,0.0,0.0,0.0,0.0,0.0,0.0,0.0,0.0,0.0,0.0,0.0,0.0,0.0,0.0,0.0,0.0,0.0,0.0,0.0,0.0,0.0,0.0,0.0,0.0,0.0,0.0,0.0,0.0,0.0222,0.1096,0.2015,0.3021,0.3818,0.4366,0.4498,0.4568,0.4619,0.0,0.0,0.0,0.0,0.0,0.0,0.0,0.0,0.0,0.0,0.0,0.0,0.0,0.0,0.0,0.0,0.0,0.0,0.0,0.0,0.0,0.0,0.0,0.0,0.0,0.0,0.0,0.0,0.0,0.0,0.0,0.0,0.0,0.0,0.0,0.0,0.0,0.0,0.0375,0.0412,0.0,0.0,0.0,0.0,0.0,0.0,0.0,0.0,0.2555,0.0,0.0,0.0,0.0,0.0,0.0,0.0,0.0,0.0,0.0,0.0,0.0,0.0,0.0,0.0,0.0,0.0,0.0,0.0,0.0,0.0,0.0,0.0,0.0,0.0,0.0,0.0,0.0,0.0,0.0,0.0,0.0,0.0,0.0,0.0,0.0,0.0,0.0,0.0,0.0,0.0,0.0,0.0,0.0,0.0,0.0,0.0,0.0,0.0,0.0,0.0,0.0,0.0,0.0,0.0,0.0,-0.0523,0.0181,0.1025,0.2062,0.2916,0.3684,0.4352,0.4364,0.4355,0.4363,0.0,0.0,0.0,0.0,0.0,0.0,0.0,0.0,0.0,0.0,0.0,0.0,0.0,0.0,0.0,0.0,0.0,0.0,0.0,0.0,0.0,0.0,0.0,0.0,0.0,0.0,0.0,0.0,0.0,0.0,0.0,0.0,0.0,0.0,0.0,0.0,0.0,0.0,0.0,0.0241,0.0309,0.0,0.0,0.0,0.0,0.0,0.0,0.0,0.0,0.2834,0.0,0.0,0.0,0.0,0.0,0.0,0.0,0.0,0.0,0.0,0.0,0.0,0.0,0.0,0.0,0.0,0.0,0.0,0.0,0.0,0.0,0.0,0.0,0.0,0.0,0.0,0.0,0.0,0.0,0.0,0.0,0.0,0.0,0.0,0.0,0.0,0.0,0.0,0.0,0.0,0.0,0.0,0.0,0.0,0.0,0.0,0.0,0.0,0.0,0.0,0.0,0.0,0.0,0.0,0.0,-0.0395,0.0265,0.1023,0.1876,0.2743,0.3428,0.3911,0.4146,0.4185,0.0,0.0,0.0,0.0,0.0,0.0,0.0,0.0,0.0,0.0,0.0,0.0,0.0,0.0,0.0,0.0,0.0,0.0,0.0,0.0,0.0,0.0,0.0,0.0,0.0,0.0,0.0,0.0,0.0,0.0,0.0,0.0,0.0,0.0,0.0,0.0,0.0,0.0,0.0,0.0,0.0016,0.0136,0.0227,0.0,0.0,0.0,0.0,0.0,0.0,0.2572,0.2733,0.0,0.0,0.0,0.0,0.0,0.0,0.0,0.0,0.0,0.0,0.0,0.0,0.0,0.0,0.0,0.0,0.0,0.0,0.0,0.0,0.0,0.0,0.0,0.0,0.0,0.0,0.0,0.0,0.0,0.0,0.0,0.0,0.0,0.0,0.0,0.0,0.0,0.0,0.0,0.0,0.0,0.0,0.0,0.0,0.0,0.0,0.0,0.0,0.0,0.0,0.0,0.0,0.0,0.0,0.0,-0.0279,0.0372,0.1029,0.1709,0.2566,0.3178,0.3492,0.3864,0.3959,0.0,0.0,0.0,0.0,0.0,0.0,0.0,0.0,0.0,0.0,0.0,0.0,0.0,0.0,0.0,0.0,0.0,0.0,0.0,0.0,0.0,0.0,0.0,0.0,0.0,0.0,0.0,0.0,0.0,0.0,0.0,0.0,0.0,0.0,0.0,0.0,0.0,0.0,0.0,0.0,0.0,-0.0055,0.0,0.0306,0.0,0.0,0.0,0.0,0.2187,0.2366,0.0,0.0,0.0,0.0,0.0,0.0,0.0,0.0,0.0,0.0,0.0,0.0,0.0,0.0,0.0,0.0,0.0,0.0,0.0,0.0,0.0,0.0,0.0,0.0,0.0,0.0,0.0,0.0,0.0,0.0,0.0,0.0,0.0,0.0,0.0,0.0,0.0,0.0,0.0,0.0,0.0,0.0,0.0,0.0,0.0,0.0,0.0,0.0,0.0,0.0,0.0,0.0,0.0,0.0,0.0,0.0,-0.0209,0.0388,0.1029,0.1686,0.2376,0.2976,0.3483,0.3604,0.3691,0.0,0.0,0.0,0.0,0.0,0.0,0.0,0.0,0.0,0.0,0.0,0.0,0.0,0.0,0.0,0.0,0.0,0.0,0.0,0.0,0.0,0.0,0.0,0.0,0.0,0.0,0.0,0.0,0.0,0.0,0.0,0.0,0.0,0.0,0.0,0.0,0.0,0.0,0.0,0.0,0.0,-0.0278,-0.0039,0.0176,0.0471,0.0,0.0,0.1644,0.1978,0.2204,0.0,0.0,0.0,0.0,0.0,0.0,0.0,0.0,0.0,0.0,0.0,0.0,0.0,0.0,0.0,0.0,0.0,0.0,0.0,0.0,0.0,0.0,0.0,0.0,0.0,0.0,0.0,0.0,0.0,0.0,0.0,0.0,0.0,0.0,0.0,0.0,0.0,0.0,0.0,0.0,0.0,0.0,0.0,0.0,0.0,0.0,0.0,0.0,0.0,0.0,0.0,0.0,0.0,0.0,0.0,-0.0586,-0.0181,0.0387,0.1012,0.1638,0.2258,0.2808,0.3274,0.3434,0.3536,0.0,0.0,0.0,0.0,0.0,0.0,0.0,0.0,0.0,0.0,0.0,0.0,0.0,0.0,0.0,0.0,0.0,0.0,0.0,0.0,0.0,0.0,0.0,0.0,0.0,0.0,0.0,0.0,0.0,0.0,0.0,0.0,0.0,0.0,0.0,0.0,0.0,0.0,0.0,0.0,0.0,0.0,-0.0315,-0.0043,0.0,0.0,0.0,0.1424,0.1787,0.0,0.0,0.0,0.0,0.0,0.0,0.0,0.0,0.0,0.0,0.0,0.0,0.0,0.0,0.0,0.0,0.0,0.0,0.0,0.0,0.0,0.0,0.0,0.0,0.0,0.0,0.0,0.0,0.0,0.0,0.0,0.0,0.0,0.0,0.0,0.0,0.0,0.0,0.0,0.0,0.0,0.0,0.0,0.0,0.0,0.0,0.0,0.0,0.0,0.0,0.0,0.0,0.0,0.0,0.0,0.0,0.0,-0.0139,0.0417,0.0998,0.1605,0.2175,0.2676,0.3093,0.3335,0.0,0.0,0.0,0.0,0.0,0.0,0.0,0.0,0.0,0.0,0.0,0.0,0.0,0.0,0.0,0.0,0.0,0.0,0.0,0.0,0.0,0.0,0.0,0.0,0.0,0.0,0.0,0.065,0.0,0.0,0.0,0.0,0.0,0.0,0.0,0.0,0.0,0.0,0.0,0.0,0.0,0.0,-0.0723,-0.0586,-0.0281,0.0024,0.0,0.0,0.1224,0.1505,0.1684,0.1818,0.0,0.0,0.0,0.0,0.0,0.0,0.0,0.0,0.0,0.0,0.0,0.0,0.0,0.0,0.0,0.0,0.0,0.0,0.0,0.0,0.0,0.0,0.0,0.0,0.0,0.0,0.0,0.0,0.0,0.0,0.0,0.0,0.0,0.0,0.0,0.0,0.0,0.0,0.0,0.0,0.0,0.0,0.0,0.0,0.0,0.0,0.0,0.0,0.0,0.0,0.0,0.0,0.0,0.0,0.0,0.0,0.0462,0.1031,0.1671,0.2159,0.2639,0.3089,0.3229,0.3315,0.0,0.0,0.0,0.0,0.0,0.0,0.0,0.0,0.0,0.0,0.0,0.0,0.0,0.0,0.0,0.0,0.0,0.0,0.0,0.0,0.0,0.0,0.0,0.0,0.0,0.0,0.0,0.0,0.0,0.0,0.0,0.0,0.0,0.0,0.0,0.0,0.0,0.0,0.0,0.0,0.0,-0.1122,-0.0821,-0.0546,-0.0241,0.0,0.0,0.0957,0.1106,0.1363,0.1475,0.1279,0.0,0.0,0.0,0.0,0.0,0.0,0.0,0.0,0.0,0.0,0.0,0.0,0.0,0.0,0.0,0.0,0.0,0.0,0.0,0.0,0.0,0.0,0.0,0.0,0.0,0.0,0.0,0.0,0.0,0.0,0.0,0.0,0.0,0.0,0.0,0.0,0.0,0.0,0.0,0.0,0.0,0.0,0.0,0.0,0.0,0.0,0.0,0.0,0.0,0.0,0.0,0.0,0.0,-0.0334,0.0059,0.0536,0.1068,0.1692,0.2181,0.263,0.2957,0.3177,0.3292,0.0,0.0,0.0,0.0,0.0,0.0,0.0,0.0,0.0,0.0,0.0,0.0,0.0,0.0,0.0,0.0,0.0,0.0,0.0,0.0,0.0,0.0,0.0,0.0,0.0,0.0,0.0,0.0,0.0826,0.0885,0.0895,0.0,0.0,0.0,0.0,0.0,0.0,0.0,0.0,0.0,0.0,-0.1307,-0.1123,-0.088,0.0,0.0,0.0189,0.0508,0.0655,0.0825,0.0901,0.0775,0.0472,0.0,0.0,0.0,0.0,0.0,0.0,0.0,0.0,0.0,0.0,0.0,0.0,0.0,0.0,0.0,0.0,0.0,0.0,0.0,0.0,0.0,0.0,0.0,0.0,0.0,0.0,0.0,0.0,0.0,0.0,0.0,0.0,0.0,0.0,0.0,0.0,0.0,0.0,0.0,0.0,0.0,0.0,0.0,0.0,0.0,0.0,0.0,0.0,0.0,0.0,0.0,0.0,-0.0191,0.0185,0.0696,0.1221,0.1806,0.2316,0.2754,0.3024,0.3273,0.3365,0.0,0.0,0.0,0.0,0.0,0.0,0.0,0.0,0.0,0.0,0.0,0.0,0.0,0.0,0.0,0.0,0.0,0.0,0.0,0.0,0.0,0.0,0.0,0.0,0.0,0.0,0.0,0.0,0.0768,0.0781,0.0628,0.0,0.0,0.0,0.0,0.0,0.0,0.0,0.0,0.0,0.0,-0.1504,-0.1421,-0.1206,-0.0917,-0.0642,-0.0308,-0.0028,0.0054,0.0188,0.0235,0.0149,0.0,0.0,0.0,0.0,0.0,0.0,0.0,0.0,0.0,0.0,0.0,0.0,0.0,0.0,0.0,0.0,0.0,0.0,0.0,0.0,0.0,0.0,0.0,0.0,0.0,0.0,0.0,0.0,0.0,0.0,-0.0419,0.0,0.0,0.0,0.0,0.0,0.0,0.0,0.0,0.0,0.0,0.0,0.0,0.0,0.0,0.0,0.0,0.0,0.0,0.0,0.0,0.0,0.0,-0.0077,0.0386,0.0982,0.1541,0.2076,0.2555,0.2966,0.3364,0.3521,0.3557,0.3488,0.0,0.0,0.0,0.0,0.0,0.0,0.0,0.0,0.0,0.0,0.0,0.0,0.0,0.0,0.0,0.0,0.0,0.0,0.0,0.0,0.0,0.0,0.0,0.0,0.0,0.0,0.0771,0.0743,0.0618,0.0,0.0,0.0,0.0,0.0,0.0,0.0,0.0,0.0,0.0,-0.1855,-0.1837,-0.1712,-0.1465,-0.1243,-0.1088,-0.0841,-0.0673,-0.0672,-0.0545,-0.0533,0.0,0.0,0.0,0.0,0.0,0.0,0.0,0.0,0.0,0.0,0.0,0.0,0.0,0.0,0.0,0.0,0.0,0.0,0.0,0.0,0.0,0.0,0.0,0.0,0.0,0.0,0.0,-0.1394,-0.1062,0.0,0.0,0.0,0.0,0.0,0.0,0.0,0.0,0.0,0.0,0.0,-0.0861,-0.0716,0.0,0.0,0.0,0.0,0.0,0.0,0.0,0.0,0.0,0.0,0.0,0.0,0.0083,0.0589,0.1052,0.1624,0.2275,0.2683,0.3032,0.3324,0.3481,0.3502,0.3418,0.0,0.0,0.0,0.0,0.0,0.0,0.0,0.0,0.0,0.0,0.0,0.0,0.0,0.0,0.0,0.0,0.0,0.0,0.0,0.0,0.0,0.0,0.0,0.0,0.0,0.0712,0.0,0.0,0.0,0.0,0.0,0.0,0.0,0.0,0.0,0.0,0.0,-0.1764,-0.2027,-0.2067,-0.2114,-0.209,-0.1821,-0.1608,0.0,0.0,0.0,0.0,0.0,0.0,0.0,0.0,0.0,0.0,0.0,0.0,0.0,0.0,-0.1802,-0.1854,-0.1867,-0.1912,-0.2019,0.0,0.0,0.0,0.0,0.0,0.0,0.0,0.0,0.0,0.0,0.0,0.0,0.0,0.0,0.0,0.0,-0.1131,0.0,0.0,0.0,0.0,0.0,0.0,0.0,0.0,-0.1142,-0.101,-0.0785,-0.0702,-0.0539,0.0,-0.0314,-0.0315,0.0,0.0,0.0,0.0,0.0,0.0,0.0,0.0,0.0326,0.0806,0.1276,0.1805,0.2449,0.2808,0.313,0.3425,0.3533,0.3528,0.3502,0.3151,0.2912,0.0,0.0,0.0,0.0,0.0,0.0,0.0,0.0,0.0,0.0,0.0,0.0,0.0,0.0,0.0,0.0,0.0,0.0,0.0,0.0,0.0,0.0,0.0,0.0824,0.0,0.0,0.0,0.0,0.0,0.0,0.0,0.0,0.0,-0.1339,-0.1581,-0.1846,-0.2162,-0.2223,-0.2262,-0.2372,0.0,0.0,0.0,0.0,0.0,0.0,0.0,-0.1331,-0.1303,-0.1423,-0.1545,-0.1491,-0.166,-0.1827,-0.1914,0.0,0.0,-0.1782,-0.1748,-0.1732,-0.1802,-0.1826,-0.1834,-0.1859,-0.1852,-0.1869,0.0,0.0,0.0,0.0,0.0,0.0,0.0,0.0,-0.2255,-0.194,0.0,-0.1404,0.0,0.0,0.0,0.0,0.0,-0.0946,0.0,0.0,-0.0996,-0.0878,-0.0635,-0.0729,-0.0579,-0.0226,-0.0257,-0.0225,-0.0112,-0.029,0.0,0.0,0.0,0.0,0.0,0.0,0.0591,0.1006,0.1586,0.2126,0.2587,0.2995,0.3366,0.3668,0.3701,0.3686,0.3678,0.3427,0.315,0.2841,0.2736,0.0,0.0,0.0,0.0,0.0,0.0,0.0,0.0,0.0,0.0,0.0,0.0,0.0,0.0,0.0,0.0,0.0,0.0,0.0,0.0,0.0876,0.0,0.0,0.0,0.0,0.0,0.0,0.0,0.0,0.0,0.0,-0.1412,-0.1663,-0.1898,-0.2146,0.0,0.0,0.0,0.0,-0.2015,-0.1987,-0.1878,-0.1798,-0.1801,-0.1817,-0.1824,-0.1622,0.0,0.0,-0.1421,-0.1392,-0.1393,-0.1394,-0.1391,-0.1473,-0.1723,-0.1596,-0.1506,-0.1504,-0.1481,-0.1494,-0.1565,-0.1556,-0.1545,-0.3733,0.0,0.0,0.0,0.0,-0.307,-0.3002,-0.2833,-0.2681,-0.2438,-0.2146,-0.1809,0.0,0.0,0.0,0.0,0.0,0.0,-0.101,-0.1065,-0.0906,-0.083,-0.0734,-0.0474,-0.0328,-0.0201,-0.0123,-0.0073,-0.0024,-0.0072,-0.0178,-0.0335,0.0,0.0,0.0,0.0,0.066,0.1218,0.1724,0.2201,0.268,0.302,0.3328,0.3619,0.3621,0.3622,0.364,0.3427,0.3266,0.3158,0.2778,0.0,0.0,0.0,0.0,0.0,0.0,0.0,0.0,0.0,0.0,0.0,0.0,0.0,0.0,0.0,0.0,0.0,0.0,0.0,0.1079,0.1178,0.1187,0.0,0.0,0.0,0.0,0.0,0.0,0.0,0.0,0.0,-0.1054,-0.1465,-0.1808,0.0,0.0,-0.2207,-0.2284,-0.2127,-0.2015,-0.2015,0.0,0.0,0.0,-0.167,-0.1634,-0.1488,-0.1499,-0.1494,-0.1368,-0.1328,-0.1314,-0.1214,-0.1066,-0.1011,-0.1049,-0.1197,-0.1288,-0.1288,-0.1171,-0.1085,-0.1095,-0.1098,-0.11,-0.3775,-0.3419,-0.3522,-0.3509,-0.3419,-0.3418,-0.3377,-0.3219,-0.3034,-0.2773,-0.2457,-0.2119,-0.1732,-0.1337,-0.1067,0.0,0.0,0.0,-0.0833,-0.0829,-0.0709,-0.0618,-0.0542,-0.0314,-0.0184,-0.0132,-0.0052,0.0,0.0,0.0,-0.0072,-0.0176,0.0,0.0,0.0153,0.0419,0.0826,0.1428,0.1927,0.2373,0.2817,0.3118,0.3345,0.3504,0.3471,0.3442,0.3442,0.3335,0.3219,0.3185,0.2882,0.2596,0.0,0.0,0.0,0.0,0.0,0.0,0.0,0.0,0.0,0.0,0.0,0.0695,0.0612,0.0,0.0,0.0,0.0989,0.1201,0.1342,0.1444,0.0,0.0,0.0,0.0,0.0,0.0,0.0,0.0064,-0.0292,-0.0564,-0.0692,-0.1122,-0.1547,-0.1906,-0.1964,-0.2022,-0.212,0.0,-0.1849,-0.1849,-0.171,-0.1583,-0.1499,-0.1537,-0.1494,-0.1303,-0.1167,-0.1082,-0.0984,-0.0999,-0.0942,-0.0873,-0.0764,-0.069,-0.069,-0.0777,-0.0856,-0.0869,-0.0803,-0.0712,-0.0721,-0.0755,-0.0725,-0.3568,-0.3409,-0.3711,-0.3857,-0.3856,-0.3828,-0.3737,-0.358,-0.3337,-0.2985,-0.2641,-0.2358,-0.1917,-0.1374,-0.0963,0.0,-0.0607,-0.0583,-0.0532,-0.0407,-0.0395,-0.0321,-0.0214,-0.0193,-0.014,0.0,0.0,0.0,0.0,0.0,0.0,0.0,0.0,0.0147,0.0402,0.0657,0.1047,0.1588,0.2141,0.2593,0.3038,0.3281,0.3384,0.3395,0.3277,0.3226,0.3214,0.3214,0.3141,0.3004,0.2989,0.2749,0.2256,0.0,0.0,0.0,0.0,0.0,0.0,0.0,0.0,0.0,0.0,0.0,0.0,0.0,0.0,0.0,0.1351,0.0,0.1628,0.1641,0.0,0.0,0.0,0.1239,0.0999,0.0854,0.0674,0.0497,0.0,0.0,-0.0317,0.0,-0.1096,-0.1526,-0.1703,-0.179,-0.1931,-0.1738,-0.1572,-0.1543,-0.1431,-0.1292,-0.1249,-0.1312,-0.1294,-0.1061,-0.0741,-0.0539,-0.0505,-0.0505,-0.0506,-0.0472,-0.0472,-0.0438,-0.0438,-0.037,-0.0299,-0.0378,-0.0374,-0.0408,-0.0451,-0.0454,-0.0457,-0.3397,-0.3332,-0.342,-0.3466,-0.3525,-0.3675,-0.3692,-0.3668,-0.3456,-0.3293,-0.3182,-0.2653,-0.2039,-0.1394,-0.0878,-0.0631,-0.0605,-0.0473,-0.0427,-0.041,-0.0304,-0.0222,-0.0194,-0.0084,-0.0028,0.0,0.0,0.0,0.0,0.0,0.0,0.0,0.0,0.0129,0.0403,0.065,0.1074,0.1591,0.2141,0.2693,0.3293,0.3367,0.3377,0.3375,0.3365,0.3298,0.3198,0.3214,0.3133,0.3013,0.2862,0.2624,0.2368,0.2053,0.0,0.0,0.0,0.0,0.0,0.0,0.0,0.0,0.0,0.0879,0.089,0.0,0.1219,0.0,0.1696,0.1921,0.1836,0.1984,0.0,0.0,0.1703,0.1576,0.153,0.1372,0.1265,0.1105,0.0736,0.0418,0.0239,-0.0136,-0.0471,-0.0693,-0.1115,-0.1429,-0.1458,-0.143,-0.1318,-0.1206,-0.1178,-0.1076,-0.0901,-0.0799,-0.0743,-0.067,-0.0539,-0.0472,-0.0337,-0.0337,-0.0304,-0.0169,-0.0101,-0.0135,0.0,-0.0101,0.0,-0.0099,-0.0099,-0.0099,-0.01,0.0,0.0,-0.2916,-0.2812,-0.2817,-0.2901,-0.3036,-0.3448,-0.3597,-0.3523,-0.352,-0.3368,-0.314,-0.2434,-0.1847,-0.1289,-0.0834,-0.057,-0.0428,-0.0342,-0.0288,-0.0234,-0.0146,-0.0117,-0.0117,-0.0029,0.0,0.0,0.0,0.0,0.0,0.0,0.0,0.0,0.0,0.0135,0.0397,0.0703,0.1119,0.1692,0.2378,0.2932,0.3381,0.3381,0.3343,0.322,0.3188,0.3077,0.2887,0.2884,0.286,0.2768,0.2669,0.2518,0.2329,0.2116,0.1839,0.0,0.0,0.0,0.0,0.0,0.0,0.0,0.0,0.0,0.0,0.0,0.1495,0.0,0.2088,0.231,0.2266,0.2403,0.2463,0.2319,0.2219,0.2127,0.2076,0.194,0.1827,0.1701,0.1315,0.0964,0.0734,0.0333,0.0,-0.0196,-0.0561,-0.0869,-0.101,-0.0954,-0.0869,-0.0785,-0.0785,-0.0766,-0.0616,-0.046,-0.0384,-0.0395,-0.0334,-0.0236,-0.0169,-0.0169,-0.0135,0.0,0.0,0.0,0.0,0.0,0.0,0.0,0.0,0.0,0.0,0.0,0.0,-0.2208,-0.2118,-0.2146,-0.226,-0.2422,-0.3042,-0.3292,-0.3271,-0.3434,-0.3257,-0.277,-0.2055,-0.1526,-0.115,-0.0808,-0.0496,-0.0216,-0.0185,-0.0093,0.0,0.0,0.0,0.0,0.0,0.0,0.0,0.0,0.0,0.0,0.0,0.0,0.0,0.0,0.0141,0.0395,0.0737,0.1224,0.1902,0.2685,0.319,0.3385,0.3425,0.3281,0.3018,0.2951,0.2791,0.2533,0.2504,0.2482,0.2479,0.2479,0.2393,0.2193,0.2166,0.2006,0.0,0.1564,0.0,0.0,0.0,0.0,0.0,0.0,0.0,0.0,0.1623,0.1856,0.2169,0.2495,0.272,0.2773,0.2894,0.2923,0.2823,0.2785,0.2741,0.2612,0.2494,0.2403,0.2268,0.1876,0.152,0.1228,0.0785,0.0393,0.014,-0.0056,-0.0308,-0.0533,-0.0505,-0.0449,-0.0364,-0.0336,-0.0397,-0.0381,-0.0272,-0.0188,-0.0225,-0.0132,0.0,0.0,0.0,0.0,0.0,0.0,0.0,0.0,0.0,0.0,0.0,0.0,0.0,0.0,0.0,0.0,-0.1731,-0.1654,-0.1796,-0.1845,-0.1878,-0.211,-0.2532,-0.3066,-0.31,-0.2826,-0.2318,-0.2019,-0.157,-0.1026,-0.0672,-0.0442,-0.0185,-0.0093,-0.0031,0.0,0.0,0.0,0.0,0.0,0.0,0.0,0.0,0.0,0.0,0.0,0.0,0.0,0.0,0.0117,0.0408,0.0,0.0,0.0,0.2854,0.3188,0.3385,0.3506,0.3388,0.2998,0.2995,0.0,0.2516,0.2504,0.2457,0.2346,0.2346,0.0,0.0,0.0,0.0,0.0,0.0,0.0,0.0,0.0,0.0,0.0,0.218,0.2089,0.1832,0.2181,0.2505,0.274,0.2996,0.3159,0.3183,0.3307,0.3374,0.3352,0.3282,0.3211,0.308,0.3155,0.3057,0.2662,0.2413,0.2142,0.1709,0.1262,0.0869,0.0589,0.0308,0.0056,-0.0112,-0.0308,-0.0364,-0.0252,-0.0168,-0.0085,-0.0088,0.0,0.0,-0.0032,-0.0033,0.0,0.0,0.0,0.0,0.0,0.0,0.0,0.0,0.0,0.0,0.0,0.0,0.0,0.0,0.0,0.0,-0.1092,0.0,-0.1142,-0.1241,0.0,-0.1446,-0.1773,-0.2236,-0.2483,-0.2388,-0.2018,-0.1681,-0.1302,-0.0889,-0.0561,-0.0295,-0.0097,-0.0032,0.0,0.0,0.0,0.0,0.0,0.0,0.0,0.0,0.0,0.0,0.0,0.0,0.0,0.0,0.0,0.015,0.0412,0.1026,0.168,0.2352,0.2854,0.3132,0.3246,0.3499,0.3441,0.3108,0.0,0.0,0.0,0.0,0.0,0.0,0.0,0.0,0.0,0.0,0.0,0.214,0.2203,0.2244,0.2249,0.2298,0.2449,0.2682,0.2838,0.2825,0.2506,0.2761,0.3019,0.3188,0.3425,0.3536,0.3539,0.3649,0.374,0.3746,0.372,0.365,0.3601,0.3545,0.3416,0.3165,0.28,0.2439,0.2048,0.1598,0.1206,0.0841,0.0505,0.0252,0.0112,-0.0084,-0.0168,-0.0112,-0.0056,0.0,0.0,0.0,0.0,0.0,0.0,0.0,0.0,0.0,0.0,0.0,0.0,0.0,0.0,0.0,0.0,0.0,0.0,0.0,0.0,0.0,0.0,-0.055,-0.0549,-0.0576,-0.0686,-0.0837,-0.0964,-0.1099,-0.1273,0.0,0.0,0.0,-0.1297,-0.0955,-0.0716,-0.041,-0.0171,0.0,0.0,0.0,0.0,0.0,0.0,0.0,0.0,0.0,0.0,0.0,0.0,0.0,0.0,0.0,0.0,0.0,0.0153,0.0531,0.1346,0.1942,0.2268,0.2798,0.3105,0.316,0.3444,0.3471,0.3216,0.3095,0.2943,0.2742,0.2632,0.2584,0.2586,0.2582,0.2561,0.2561,0.2584,0.2629,0.2675,0.272,0.2786,0.2828,0.2862,0.298,0.3215,0.3448,0.3504,0.3251,0.3327,0.3439,0.3567,0.3766,0.3856,0.3882,0.4008,0.4076,0.4076,0.4076,0.4076,0.4021,0.386,0.3697,0.3583,0.3137,0.2661,0.2296,0.1877,0.1459,0.101,0.0617,0.0336,0.0196,0.0056,0.0,0.0,0.0,0.0,0.0,0.0,0.0,0.0,0.0,0.0,0.0,0.0,0.0,0.0,0.0,0.0,0.0,0.0,0.0,0.0,0.0,0.0,0.0,0.0,0.0,-0.0354,-0.0353,-0.0548,-0.0625,-0.0624,-0.0685,-0.0669,-0.0692,-0.1447,-0.1551,-0.1225,-0.1117,-0.0829,-0.036,-0.0324,-0.018,0.0,0.0,0.0,0.0,0.0,0.0,0.0,0.0,0.0,0.0,0.0,0.0,0.0,0.0,0.0,0.0,0.0,0.0281,0.0858,0.1493,0.2016,0.2439,0.2882,0.3188,0.3357,0.353,0.3498,0.3221,0.3195,0.3084,0.2881,0.2859,0.283,0.283,0.2854,0.2854,0.283,0.2967,0.3044,0.3044,0.3243,0.3378,0.3398,0.35,0.3604,0.3701,0.3842,0.3863,0.3719,0.3707,0.3785,0.3923,0.406,0.4161,0.4165,0.4312,0.4408,0.4408,0.4436,0.4353,0.419,0.4138,0.3971,0.3641,0.3444,0.3079,0.2547,0.2071,0.1624,0.1149,0.0701,0.0308,0.0084,0.0028,0.0,0.0,0.0,0.0,0.0,0.0,0.0,0.0,0.0,0.0,0.0,0.0,0.0,0.0,0.0,0.0,0.0,0.0,0.0,0.0,0.0,0.0,0.0,0.0,0.0,-0.0157,-0.0157,-0.0236,-0.0275,-0.0275,-0.0388,-0.0499,-0.0608,-0.095,-0.0972,-0.0802,-0.0692,-0.051,-0.0291,-0.0182,-0.0073,0.0,0.0,0.0,0.0,0.0,0.0,0.0,0.0,0.0,0.0,0.0,0.0,0.0,0.0,0.0,0.0,0.0165,0.0573,0.1114,0.1556,0.2072,0.2672,0.2962,0.3218,0.3499,0.3635,0.3688,0.3631,0.3566,0.3475,0.3396,0.336,0.3327,0.3327,0.3327,0.3327,0.3352,0.3374,0.3453,0.3488,0.3599,0.3709,0.3758,0.3897,0.3978,0.401,0.4176,0.4244,0.4176,0.4064,0.4093,0.4263,0.4328,0.4356,0.4353,0.4463,0.4491,0.4491,0.4491,0.4463,0.4353,0.4249,0.411,0.3858,0.3638,0.3302,0.277,0.2294,0.1877,0.1402,0.0813,0.0308,0.0,0.0,0.0,0.0,0.0,0.0,0.0,0.0,0.0,0.0,0.0,0.0,0.0,0.0,0.0,0.0,0.0,0.0,0.0,0.0,0.0,0.0,0.0,0.0,0.0,0.0,0.0,0.0,0.0,0.0,0.0,0.0,-0.0157,-0.0314,-0.0471,-0.0471,-0.0423,-0.0372,-0.0334,-0.0259,-0.0222,-0.0074,0.0,0.0,0.0,0.0,0.0,0.0,0.0,0.0,0.0,0.0,0.0,0.0,0.0,0.0,0.0,0.0,0.0105,0.0368,0.0779,0.1287,0.1649,0.2161,0.2755,0.2984,0.3269,0.3638,0.3744,0.3852,0.3987,0.3893,0.3835,0.3829,0.3796,0.377,0.377,0.377,0.377,0.3766,0.3795,0.3839,0.3876,0.3915,0.4015,0.4119,0.419,0.4273,0.4276,0.4408,0.4491,0.4487,0.4356,0.4328,0.4463,0.4491,0.4491,0.4491,0.4491,0.4491,0.4491,0.4491,0.4491,0.4487,0.4356,0.419,0.4024,0.3802,0.3469,0.2963,0.249,0.1961,0.1402,0.0813,0.0308,0.0,0.0,0.0,0.0,0.0,0.0,0.0,0.0,0.0,0.0,0.0,0.0,0.0,0.0,0.0,0.0,0.0,0.0,0.0,0.0,0.0,0.0,0.0,0.0,0.0,0.0,0.0,0.0,0.0,0.0,0.0,0.0,0.0,0.0,0.0,0.0,0.0,0.0,-0.0234,-0.0195,-0.0039,0.0,0.0,0.0,0.0,0.0,0.0,0.0,0.0,0.0,0.0,0.0,0.0,0.0,0.0,0.0,0.0,0.0108,0.028,0.0409,0.0795,0.1288,0.1716,0.2178,0.2788,0.3013,0.3325,0.3741,0.3796,0.3852,0.3993,0.3981,0.3975,0.3993,0.3963,0.3984,0.396,0.3978,0.3981,0.3981,0.4094,0.4155,0.4165,0.433,0.4453,0.4436,0.446,0.4463,0.4463,0.446,0.4491,0.4491,0.4494,0.4463,0.4498,0.4494,0.4491,0.4491,0.4498,0.4505,0.4515,0.4515,0.4491,0.4511,0.4463,0.4353,0.4049,0.3912,0.3547,0.3039,0.2503,0.1825,0.1015,0.0646,0.028,0.0,0.0,0.0,0.0,0.0,0.0,0.0,0.0,0.0,0.0,0.0,0.0,0.0,0.0,0.0,0.0,0.0,0.0,0.0,0.0,0.0,0.0,0.0,0.0,0.0,0.0,0.0,0.0,0.0,0.0,0.0,0.0,0.0,0.0,0.0,0.0,0.0,0.0,-0.0079,-0.0079,0.0,0.0,0.0,0.0,0.0,0.0,0.0,0.0,0.0,0.0,0.0,0.0,0.0,0.0,0.0,0.0,0.0113,0.0329,0.0632,0.0797,0.1122,0.1654,0.1992,0.2432,0.2959,0.3222,0.3537,0.3891,0.3907,0.4021,0.427,0.4298,0.4298,0.4298,0.4298,0.4298,0.4298,0.4294,0.4298,0.4298,0.4356,0.438,0.4384,0.4463,0.4491,0.4491,0.4491,0.4491,0.4491,0.4491,0.4491,0.4494,0.4545,0.4624,0.4614,0.4542,0.4491,0.4501,0.4573,0.4627,0.4638,0.4677,0.4728,0.476,0.4728,0.4643,0.4438,0.4256,0.3957,0.3362,0.2563,0.1762,0.1007,0.0626,0.0309,0.0,0.0,0.0,0.0,0.0,0.0,0.0,0.0,0.0,0.0,0.0,0.0,0.0,0.0,0.0,0.0,0.0,0.0,0.0,0.0,0.0,0.0,0.0,0.0,0.0,0.0,0.0,0.0,0.0,0.0,0.0,0.0,0.0,0.0,0.0,0.0,0.0,0.0,0.0,0.0,0.0,0.0,0.0,0.0,0.0,0.0,0.0,0.0,0.0,0.0,0.0,0.0,0.0,0.0,0.0,0.0118,0.0345,0.0631,0.097,0.1165,0.1492,0.1971,0.2269,0.2679,0.3144,0.345,0.3745,0.4032,0.407,0.419,0.446,0.4491,0.4491,0.4491,0.4491,0.4491,0.4491,0.4491,0.4491,0.4491,0.4491,0.4491,0.4491,0.4491,0.4491,0.4491,0.4491,0.4491,0.4494,0.4525,0.4552,0.458,0.4663,0.4748,0.4748,0.4679,0.4624,0.4627,0.4687,0.4748,0.4762,0.486,0.4918,0.4911,0.4918,0.4847,0.4698,0.4484,0.4144,0.3521,0.2592,0.1694,0.1087,0.0664,0.0311,0.0,0.0,0.0,0.0,0.0,0.0,0.0,0.0,0.0,0.0,0.0,0.0,0.0,0.0,0.0,0.0,0.0,0.0,0.0,0.0,0.0,0.0,0.0,0.0,0.0,0.0,0.0,0.0,0.0,0.0,0.0,0.0,0.0,0.0,0.0,0.0,0.0,0.0,0.0,0.0,0.0,0.0,0.0,0.0,0.0,0.0,0.0,0.0,0.0,0.0,0.0,0.0,0.0,0.0,0.0121,0.0354,0.0691,0.0984,0.1204,0.1549,0.186,0.2222,0.2624,0.2963,0.3316,0.3646,0.3931,0.414,0.4176,0.4311,0.4491,0.4491,0.4491,0.4491,0.4491,0.4491,0.4491,0.4491,0.4491,0.4491,0.4491,0.4491,0.4491,0.4491,0.4491,0.4491,0.4498,0.4501,0.4515,0.4606,0.468,0.4716,0.4819,0.4901,0.4908,0.4904,0.4867,0.4894,0.4897,0.4908,0.4877,0.4891,0.4942,0.4904,0.4965,0.486,0.4721,0.455,0.4036,0.3182,0.2461,0.1763,0.1165,0.0708,0.0349,0.0,0.0,0.0,0.0,0.0,0.0,0.0,0.0,0.0,0.0,0.0,0.0,0.0,0.0,0.0,0.0,0.0,0.0,0.0,0.0,0.0,0.0,0.0,0.0,0.0,0.0,0.0,0.0,0.0,0.0,0.0,0.0,0.0,0.0,0.0,0.0,0.0,0.0,0.0,0.0,0.0,0.0,0.0,0.0,0.0,0.0,0.0,0.0,0.0,0.0,0.0,0.0,0.0,0.0208,0.0493,0.0924,0.1099,0.1383,0.1816,0.2194,0.2503,0.2809,0.3192,0.3507,0.3803,0.4018,0.4215,0.4387,0.4467,0.4512,0.4498,0.4491,0.4491,0.4491,0.4491,0.4491,0.4491,0.4491,0.4491,0.4491,0.4491,0.4491,0.4491,0.4491,0.4491,0.4501,0.4583,0.4638,0.4648,0.4748,0.4836,0.486,0.4935,0.5022,0.5036,0.5152,0.5231,0.5182,0.5114,0.5019,0.5032,0.5138,0.5221,0.5203,0.5235,0.5203,0.5071,0.4678,0.403,0.3234,0.2503,0.1801,0.1186,0.0725,0.0382,0.0,0.0,0.0,0.0,0.0,0.0,0.0,0.0,0.0,0.0,0.0,0.0,0.0,0.0,0.0,0.0,0.0,0.0,0.0,0.0,0.0,0.0,0.0,0.0,0.0,0.0,0.0,0.0,0.0,0.0,0.0,0.0,0.0,0.0,0.0,0.0,0.0,0.0,0.0,0.0,0.0,0.0,0.0,0.0,0.0,0.0,0.0,0.0,0.0,0.0,0.0,0.0,0.0,0.0338,0.0749,0.1263,0.1521,0.1882,0.2376,0.2773,0.3126,0.3385,0.3741,0.4041,0.421,0.4411,0.4556,0.4637,0.473,0.4691,0.459,0.4563,0.4539,0.4494,0.4491,0.4491,0.4494,0.4535,0.4586,0.4631,0.459,0.4586,0.4627,0.4593,0.459,0.4641,0.4707,0.4765,0.4772,0.4897,0.4955,0.4965,0.509,0.5192,0.523,0.5324,0.5395,0.5378,0.5267,0.5206,0.5181,0.533,0.5392,0.5395,0.5388,0.5322,0.5113,0.4574,0.3951,0.3286,0.2578,0.1889,0.1194,0.0771,0.0389,0.0,0.0,0.0,0.0,0.0,0.0,0.0,0.0,0.0,0.0,0.0,0.0,0.0,0.0,0.0,0.0,0.0,0.0,0.0,0.0,0.0,0.0,0.0,0.0,0.0,0.0,0.0,0.0,0.0,0.0,0.0,0.0,0.0,0.0,0.0,0.0,0.0,0.0,0.0,0.0,0.0,0.0,0.0,0.0,0.0,0.0,0.0,0.0,0.0,0.0,0.0,0.0,0.0,0.0511,0.0918,0.1393,0.195,0.2402,0.2862,0.3373,0.3705,0.3918,0.4278,0.4512,0.4574,0.4763,0.4887,0.4899,0.4893,0.4847,0.4711,0.472,0.4662,0.4522,0.4508,0.4511,0.4525,0.4644,0.4762,0.4843,0.4765,0.4752,0.4836,0.4765,0.4772,0.4877,0.4904,0.4918,0.4938,0.5019,0.5131,0.5123,0.5257,0.5371,0.5371,0.5382,0.5395,0.5395,0.5378,0.5371,0.5388,0.5388,0.5392,0.5395,0.5395,0.5263,0.4864,0.4361,0.3828,0.3228,0.2614,0.1924,0.1232,0.0756,0.0367,0.0,0.0,0.0,0.0,0.0,0.0,0.0,0.0,0.0,0.0,0.0,0.0,0.0,0.0,0.0,0.0,0.0,0.0,0.0,0.0,0.0,0.0,0.0,0.0,0.0,0.0,0.0,0.0,0.0,0.0,0.0,0.0,0.0,0.0,0.0,0.0,0.0,0.0,0.0,0.0,0.0,0.0,0.0,0.0,0.0,0.0,0.0,0.0,0.0,0.0,0.0,0.0179,0.0487,0.0782,0.1286,0.1993,0.2479,0.2952,0.3563,0.4077,0.4378,0.4533,0.482,0.4983,0.5048,0.5022,0.5016,0.5049,0.5028,0.4965,0.4837,0.4847,0.4823,0.4775,0.4706,0.4651,0.4623,0.4765,0.487,0.4901,0.4847,0.484,0.4874,0.4847,0.483,0.4918,0.5009,0.5036,0.5059,0.5203,0.531,0.5291,0.5361,0.5395,0.5395,0.5395,0.5395,0.5395,0.5395,0.5395,0.5395,0.5395,0.5395,0.5359,0.5292,0.509,0.4797,0.4328,0.3794,0.3226,0.2622,0.1909,0.1226,0.0744,0.0377,0.0,0.0,0.0,0.0,0.0,0.0,0.0,0.0,0.0,0.0,0.0,0.0,0.0,0.0,0.0,0.0,0.0,0.0,0.0,0.0,0.0,0.0,0.0,0.0,0.0,0.0,0.0,0.0,0.0,0.0,0.0,0.0,0.0,0.0,0.0,0.0,0.0,0.0,0.0,0.0,0.0,0.0,0.0,0.0,0.0,0.0,0.0,0.0,0.0,0.0,0.0,0.0269,0.0671,0.0929,0.1488,0.2387,0.2918,0.3429,0.4017,0.4594,0.4901,0.5012,0.526,0.5378,0.5383,0.5313,0.5269,0.5214,0.5216,0.5145,0.4992,0.4968,0.4941,0.4894,0.487,0.483,0.4813,0.4918,0.4985,0.5067,0.5036,0.502,0.5064,0.5036,0.502,0.5081,0.5176,0.5216,0.5233,0.5341,0.5388,0.5395,0.5395,0.5395,0.5395,0.5395,0.5395,0.5395,0.5395,0.5395,0.5395,0.5395,0.5359,0.5292,0.5057,0.4824,0.4531,0.4131,0.3663,0.3159,0.2522,0.1849,0.1205,0.0756,0.0386,0.0,0.0,0.0,0.0,0.0,0.0,0.0,0.0,0.0,0.0,0.0,0.0,0.0,0.0,0.0,0.0,0.0,0.0,0.0,0.0,0.0,0.0,0.0,0.0,0.0,0.0,0.0,0.0,0.0,0.0,0.0,0.0,0.0,0.0,0.0,0.0,0.0,0.0,0.0,0.0,0.0,0.0,0.0,0.0,0.0,0.0,0.0,0.0,0.0,0.0,0.0,0.0,0.0673,0.0985,0.1596,0.2492,0.3203,0.3784,0.4269,0.4912,0.5249,0.5359,0.5575,0.5638,0.5532,0.5545,0.5501,0.5388,0.5382,0.5291,0.5152,0.511,0.5094,0.502,0.5039,0.5039,0.4951,0.5049,0.5199,0.5327,0.522,0.5206,0.5341,0.5213,0.5223,0.5347,0.5358,0.5375,0.5371,0.5382,0.5395,0.5395,0.5395,0.5395,0.5395,0.5395,0.5395,0.5395,0.5395,0.5395,0.5392,0.5359,0.5292,0.5087,0.4791,0.4561,0.4298,0.3832,0.3362,0.2991,0.2354,0.1748,0.1172,0.0725,0.0391,0.0,0.0,0.0,0.0,0.0,0.0,0.0,0.0,0.0,0.0,0.0,0.0,0.0,0.0,0.0,0.0,0.0,0.0,0.0,0.0,0.0,0.0,0.0,0.0,0.0,0.0,0.0,0.0,0.0,0.0,0.0,0.0,0.0,0.0,0.0,0.0,0.0,0.0,0.0,0.0,0.0,0.0,0.0,0.0,0.0,0.0,0.0,0.0,0.0,0.0,0.0,0.0225,0.0718,0.1121,0.1832,0.2796,0.3543,0.4183,0.4645,0.5268,0.5617,0.5711,0.5813,0.5845,0.5699,0.5629,0.5559,0.5429,0.5402,0.5378,0.5344,0.533,0.531,0.5279,0.531,0.5324,0.5286,0.531,0.5344,0.5385,0.5351,0.5311,0.5371,0.5361,0.5341,0.5382,0.5395,0.5395,0.5395,0.5395,0.5395,0.5395,0.5395,0.5395,0.5395,0.5395,0.5395,0.5395,0.5395,0.5326,0.519,0.5156,0.509,0.4861,0.4597,0.4367,0.4233,0.3663,0.3192,0.2755,0.2218,0.1614,0.104,0.0668,0.0,0.0,0.0,0.0,0.0,0.0,0.0,0.0,0.0,0.0,0.0,0.0,0.0,0.0,0.0,0.0,0.0,0.0,0.0,0.0,0.0,0.0,0.0,0.0,0.0,0.0,0.0,0.0,0.0,0.0,0.0,0.0,0.0,0.0,0.0,0.0,0.0,0.0,0.0,0.0,0.0,0.0,0.0,0.0,0.0,0.0,0.0,0.0,0.0,0.0,0.0,0.0,0.0225,0.0718,0.1166,0.1927,0.2861,0.3758,0.438,0.483,0.5524,0.585,0.5811,0.6018,0.6051,0.5915,0.5803,0.5677,0.5477,0.5491,0.5446,0.5416,0.5395,0.5395,0.5392,0.5392,0.5395,0.5392,0.5392,0.5395,0.5395,0.5395,0.5395,0.5395,0.5395,0.5392,0.5395,0.5395,0.5395,0.5395,0.5395,0.5395,0.5395,0.5395,0.5395,0.5395,0.5395,0.5395,0.5392,0.5326,0.5193,0.4994,0.4861,0.4731,0.4597,0.4331,0.4097,0.3794,0.336,0.2855,0.252,0.195,0.1412,0.0908,0.0572,0.03,0.0,0.0,0.0,0.0,0.0,0.0,0.0,0.0,0.0,0.0,0.0,0.0,0.0,0.0,0.0,0.0,0.0,0.0,0.0,0.0,0.0,0.0,0.0,0.0,0.0,0.0,0.0,0.0,0.0,0.0,0.0,0.0,0.0,0.0,0.0,0.0,0.0,0.0,0.0,0.0,0.0,0.0,0.0,0.0,0.0,0.0,0.0,0.0,0.0,0.0,0.0,0.0314,0.0718,0.1211,0.1973,0.291,0.3846,0.4477,0.4916,0.5605,0.5891,0.5897,0.6143,0.6179,0.604,0.5993,0.585,0.5644,0.5614,0.5511,0.546,0.5402,0.5395,0.5395,0.5395,0.5395,0.5395,0.5395,0.5395,0.5395,0.5395,0.5395,0.5395,0.5395,0.5395,0.5395,0.5395,0.5395,0.5395,0.5395,0.5409,0.5429,0.5443,0.5457,0.5494,0.5446,0.5447,0.5417,0.5255,0.5036,0.4811,0.4487,0.4288,0.4182,0.4038,0.3727,0.3224,0.2855,0.2522,0.2085,0.158,0.1042,0.0774,0.0472,0.0269,0.0,0.0,0.0,0.0,0.0,0.0,0.0,0.0,0.0,0.0,0.0,0.0,0.0,0.0,0.0,0.0,0.0,0.0,0.0,0.0,0.0,0.0,0.0,0.0,0.0,0.0,0.0,0.0,0.0,0.0,0.0,0.0,0.0,0.0,0.0,0.0,0.0,0.0,0.0,0.0,0.0,0.0,0.0,0.0,0.0,0.0,0.0,0.0,0.0,0.0,0.018,0.0449,0.0807,0.1391,0.2107,0.2956,0.3805,0.4512,0.5,0.5596,0.5978,0.6002,0.6143,0.6221,0.602,0.5996,0.5952,0.5779,0.5664,0.5593,0.5556,0.5463,0.5399,0.5395,0.5395,0.5395,0.5395,0.5395,0.5395,0.5395,0.5395,0.5395,0.5395,0.5395,0.5395,0.5399,0.5409,0.5402,0.5423,0.544,0.5446,0.5569,0.5538,0.5631,0.5671,0.5708,0.5611,0.5463,0.5274,0.5009,0.4669,0.4274,0.3885,0.3632,0.3472,0.3228,0.2855,0.2488,0.2188,0.1782,0.1379,0.0942,0.064,0.0,0.0,0.0,0.0,0.0,0.0,0.0,0.0,0.0,0.0,0.0,0.0,0.0,0.0,0.0,0.0,0.0,0.0,0.0,0.0,0.0,0.0,0.0,0.0,0.0,0.0,0.0,0.0,0.0,0.0,0.0,0.0,0.0,0.0,0.0135,0.0179,0.0224,0.0314,0.0314,0.0314,0.0224,0.018,0.018,0.0,0.0,0.0,0.0,0.0,0.0,0.0,0.0,0.0,0.0359,0.0628,0.0807,0.1436,0.2196,0.2957,0.3807,0.452,0.4991,0.5656,0.596,0.6036,0.6215,0.6237,0.6166,0.6135,0.6064,0.5915,0.584,0.5701,0.5613,0.5542,0.5477,0.5402,0.5395,0.5395,0.5395,0.5399,0.5395,0.5395,0.5395,0.5395,0.5395,0.5395,0.544,0.5477,0.5508,0.5504,0.5559,0.5566,0.5644,0.5667,0.5691,0.5718,0.5779,0.5796,0.5731,0.5519,0.5333,0.5012,0.4604,0.4135,0.3675,0.3264,0.3034,0.2822,0.2487,0.2052,0.1715,0.1379,0.1045,0.0775,0.0438,0.0,0.0,0.0,0.0,0.0,0.0,0.0,0.0,0.0,0.0,0.0,0.0,0.0,0.0,0.0,0.0,0.0,0.0,0.0,0.0,0.0,0.0,0.0,0.0,0.0,0.0,0.0,0.0,0.0,0.0,0.0,0.0,0.0,0.009,0.0314,0.0404,0.0448,0.0628,0.0628,0.0673,0.0493,0.0404,0.0359,0.018,0.0,0.0,0.0,0.0,0.0,0.0,0.0,0.0,0.0449,0.0673,0.0762,0.1525,0.2242,0.2957,0.3807,0.452,0.5021,0.5726,0.599,0.6068,0.6208,0.632,0.6286,0.6269,0.619,0.6071,0.5983,0.5867,0.5688,0.5627,0.5576,0.5528,0.5501,0.5481,0.5463,0.5463,0.546,0.5457,0.5433,0.5429,0.544,0.5477,0.5552,0.5596,0.5627,0.5671,0.5796,0.5789,0.581,0.5823,0.5844,0.5871,0.5888,0.5915,0.5805,0.555,0.5362,0.4989,0.4533,0.4008,0.3441,0.294,0.2629,0.227,0.2019,0.1643,0.1331,0.0984,0.0678,0.0473,0.0,0.0,0.0,0.0,0.0,0.0,0.0,0.0,0.0,0.0,0.0,0.0,0.0,0.0,0.0,0.0,0.0,0.0,0.0,0.0,0.0,0.0,0.0,0.0,0.0,0.0,0.0,0.0,0.0,0.0349,0.0,0.0,0.0,0.0135,0.0314,0.0404,0.0538,0.0628,0.0762,0.0718,0.0718,0.0673,0.0583,0.0448,0.0359,0.0224,0.0,0.0,0.0,0.0,0.0,0.0,0.0,0.0449,0.0673,0.0987,0.1615,0.2377,0.3001,0.3805,0.452,0.5073,0.5797,0.6111,0.6099,0.6276,0.6395,0.6313,0.63,0.6269,0.6186,0.6095,0.5969,0.5786,0.5766,0.5739,0.5722,0.5718,0.5728,0.5728,0.5728,0.5718,0.5684,0.5603,0.5603,0.5603,0.5633,0.5698,0.5755,0.5769,0.5776,0.5796,0.583,0.5891,0.5959,0.5963,0.6037,0.6115,0.6149,0.6013,0.5644,0.5372,0.4901,0.4311,0.361,0.3006,0.2503,0.1982,0.1512,0.133,0.1169,0.1008,0.0693,0.0447,0.0307,0.0204,0.0,0.0,0.0,0.0,0.0,0.0,0.0,0.0,0.0,0.0,0.0,0.0,0.0,0.0,0.0,0.0,0.0,0.0,0.0,0.0,0.0,0.0,0.0,0.0,0.0238,0.0306,0.0416,0.0566,0.0785,0.0269,0.0359,0.0359,0.0449,0.0583,0.0807,0.0987,0.1076,0.1346,0.148,0.1391,0.1211,0.1031,0.0852,0.0493,0.0269,0.0,0.0,0.0,0.0,0.0,0.0,0.0,0.0,0.0762,0.1076,0.1794,0.2422,0.2957,0.3851,0.452,0.5073,0.5825,0.6129,0.6117,0.634,0.6407,0.6334,0.63,0.63,0.63,0.6173,0.6071,0.5962,0.5875,0.5881,0.5806,0.58,0.58,0.5796,0.5796,0.58,0.5803,0.5813,0.5779,0.5735,0.5772,0.5847,0.5868,0.5925,0.5952,0.6034,0.6034,0.6067,0.6125,0.6159,0.6218,0.623,0.6138,0.5983,0.5625,0.5323,0.4815,0.4187,0.3449,0.2775,0.2189,0.1561,0.1136,0.0827,0.0696,0.0575,0.0498,0.0282,0.0208,0.0103,0.0,0.0,0.0,0.0,0.0,0.0,0.0,0.0,0.0,0.0,0.0,0.0,0.0,0.0,0.0,0.0,0.0,0.0,0.0,0.0,0.0,0.0,0.0,0.0411,0.0483,0.0557,0.0711,0.0903,0.1168,0.0538,0.0718,0.0762,0.0807,0.0897,0.1346,0.157,0.1705,0.2108,0.2287,0.2288,0.1839,0.157,0.1301,0.0762,0.0269,0.009,0.0,0.0,0.0,0.0,0.0,0.0,0.0494,0.0852,0.1256,0.193,0.2512,0.3047,0.3851,0.452,0.5171,0.5883,0.6212,0.6209,0.6453,0.6411,0.6381,0.6306,0.63,0.63,0.6293,0.6248,0.6091,0.6078,0.602,0.5942,0.5932,0.5928,0.5928,0.5918,0.5908,0.5915,0.6006,0.6013,0.5918,0.5891,0.5966,0.6034,0.6078,0.6118,0.6238,0.6282,0.6293,0.6289,0.6272,0.6289,0.6219,0.606,0.5744,0.5437,0.5085,0.4579,0.3915,0.3249,0.2623,0.1955,0.1325,0.0895,0.0576,0.0338,0.0,0.0,0.0,0.0,0.0,0.0,0.0,0.0,0.0,0.0,0.0,0.0,0.0,0.0,0.0,0.0,0.0,0.0,0.0,0.0,0.0,0.0,0.0,0.0,0.0139,0.024,0.0409,0.0587,0.0699,0.0739,0.0963,0.1276,0.1518,0.172,0.0673,0.0718,0.0987,0.1166,0.1391,0.1884,0.22,0.2423,0.2689,0.2823,0.2823,0.2467,0.2109,0.157,0.0807,0.0404,0.0269,0.0,0.0,0.0,0.0,0.0135,0.0359,0.0583,0.0987,0.1436,0.2109,0.2691,0.3272,0.3985,0.4699,0.5359,0.596,0.6421,0.6436,0.6611,0.66,0.6497,0.6368,0.6303,0.63,0.63,0.6282,0.6269,0.6255,0.6238,0.619,0.6184,0.6194,0.6207,0.6224,0.6235,0.6248,0.6255,0.6269,0.6252,0.6248,0.6252,0.6252,0.6245,0.6248,0.6293,0.6296,0.63,0.63,0.6257,0.6219,0.598,0.5899,0.5628,0.5162,0.4735,0.4109,0.3444,0.2782,0.2118,0.1492,0.106,0.0629,0.0392,0.0192,0.0,0.0,0.0,0.0,0.0,0.0,0.0,0.0,0.0,0.0,0.0,0.0,0.0,0.0,0.0,0.0,0.0,0.0,0.0,0.0,0.0,0.0,0.0,0.0214,0.0393,0.0567,0.0742,0.0923,0.1109,0.1301,0.1653,0.1984,0.2159,0.2292,0.166,0.157,0.166,0.184,0.2064,0.2422,0.278,0.3139,0.336,0.3448,0.3405,0.3048,0.2422,0.1615,0.0852,0.0493,0.0359,0.0135,0.0,0.0,0.0,0.0,0.0404,0.0628,0.0987,0.166,0.2243,0.2915,0.354,0.421,0.4879,0.5544,0.6068,0.6446,0.6645,0.6737,0.6746,0.6607,0.6501,0.6385,0.632,0.63,0.63,0.63,0.63,0.63,0.63,0.63,0.63,0.63,0.63,0.6296,0.6296,0.6296,0.6296,0.6303,0.6381,0.6375,0.6313,0.6306,0.6317,0.6306,0.6306,0.63,0.63,0.6271,0.619,0.5941,0.5667,0.5359,0.4932,0.4423,0.3798,0.3134,0.239,0.1765,0.1178,0.0746,0.0354,0.0196,0.0,0.0,0.0,0.0,0.0,0.0,0.0,0.0,0.0,0.0,0.0,0.0,0.0,0.0,0.0,0.0,0.0,0.0,0.0,0.0,0.0,0.0,0.0218,0.0436,0.0616,0.0798,0.0946,0.1163,0.1378,0.1651,0.1934,0.23,0.2635,0.2732,0.2984,0.2647,0.2601,0.2511,0.2558,0.2781,0.3093,0.3496,0.3855,0.4074,0.416,0.4028,0.3539,0.269,0.1749,0.1122,0.0673,0.0448,0.0135,0.0,0.0,0.0,0.0,0.0494,0.0762,0.1211,0.1885,0.2512,0.3183,0.3898,0.4612,0.5191,0.5766,0.6207,0.6514,0.67,0.6797,0.6831,0.6681,0.6532,0.6457,0.6378,0.6317,0.6303,0.63,0.63,0.63,0.63,0.63,0.63,0.63,0.63,0.6313,0.6358,0.6375,0.6369,0.6446,0.6535,0.6535,0.6477,0.641,0.6376,0.6412,0.6409,0.6453,0.6396,0.6373,0.6215,0.5964,0.5561,0.5218,0.4744,0.4115,0.3469,0.2793,0.2156,0.153,0.0942,0.055,0.0,0.0,0.0,0.0,0.0,0.0,0.0,0.0,0.0,0.0,0.0,0.0,0.0,0.0,0.0,0.0,0.0,0.0,0.0,0.0,0.0,0.0,0.0,0.0184,0.0334,0.0592,0.0961,0.1345,0.1626,0.1719,0.1889,0.2221,0.2597,0.2923,0.3182,0.3357,0.3638,0.3405,0.376,0.3315,0.3318,0.3544,0.4032,0.4344,0.4614,0.4832,0.4875,0.4654,0.3942,0.3094,0.2288,0.1436,0.0897,0.0628,0.0224,0.0,0.0,0.0,0.0,0.0628,0.0987,0.1436,0.2154,0.278,0.3496,0.4255,0.4968,0.5549,0.6038,0.6343,0.6691,0.6862,0.6957,0.6842,0.6742,0.6603,0.6515,0.6434,0.6356,0.6281,0.6271,0.6264,0.63,0.63,0.6274,0.6327,0.633,0.6358,0.6402,0.6484,0.6497,0.6505,0.6583,0.6651,0.6661,0.6641,0.6614,0.6647,0.6661,0.6641,0.6648,0.659,0.6397,0.6207,0.592,0.5475,0.4923,0.4394,0.3718,0.3054,0.2382,0.1779,0.1261,0.0748,0.0471,0.0,0.0,0.0,0.0,0.0,0.0,0.0,0.0,0.0,0.0,0.0,0.0,0.0,0.0,0.0,0.0,0.0,0.0,0.0,0.0,0.0,0.0,0.0,0.0227,0.0455,0.0879,0.1265,0.1783,0.2259,0.2413,0.2627,0.2942,0.3246,0.3628,0.3975,0.4261,0.4499,0.4076,0.4389,0.4342,0.43,0.4302,0.4612,0.4966,0.5277,0.5411,0.5188,0.479,0.3942,0.3186,0.2423,0.157,0.0942,0.0673,0.0225,0.0,0.0,0.0,0.0404,0.0762,0.1166,0.166,0.2378,0.3094,0.3808,0.4569,0.528,0.5811,0.621,0.6523,0.6786,0.6977,0.7031,0.6973,0.6825,0.6731,0.6677,0.6389,0.6277,0.6156,0.5994,0.5892,0.5954,0.6035,0.6195,0.6301,0.6413,0.6474,0.6583,0.6597,0.6607,0.6651,0.6725,0.6793,0.6834,0.6817,0.6766,0.6702,0.6702,0.6695,0.6712,0.6694,0.6466,0.6162,0.5779,0.5299,0.4694,0.3952,0.3273,0.2594,0.198,0.1399,0.0915,0.0593,0.0315,0.0,0.0,0.0,0.0,0.0,0.0,0.0,0.0,0.0,0.0,0.0,0.0,0.0,0.0,0.0,0.0,0.0,0.0,0.0,0.0,0.0,0.0,0.0153,0.0387,0.0661,0.1098,0.1609,0.2192,0.2692,0.307,0.3344,0.3595,0.3954,0.4345,0.4737,0.5087,0.5243,0.4632,0.4926,0.5098,0.512,0.501,0.5144,0.5497,0.5855,0.5897,0.5544,0.4882,0.4123,0.3363,0.2556,0.1749,0.1076,0.0718,0.0314,0.018,0.018,0.0314,0.0583,0.0942,0.1436,0.2018,0.2691,0.3408,0.4168,0.4703,0.5458,0.5988,0.6387,0.67,0.6966,0.7051,0.7088,0.7045,0.697,0.6889,0.6764,0.6421,0.6261,0.614,0.5925,0.5817,0.5827,0.6002,0.6139,0.6296,0.6451,0.6583,0.6705,0.6746,0.6773,0.679,0.6851,0.6873,0.6943,0.6913,0.6866,0.6834,0.6868,0.6861,0.6815,0.6665,0.6492,0.619,0.5707,0.5102,0.4399,0.3617,0.2926,0.2269,0.1652,0.1055,0.0564,0.0399,0.0,0.0,0.0,0.0,0.0,0.0,0.0,0.0,0.0,0.0,0.0,0.0,0.0,0.0,0.0,0.0,0.0,0.0,0.0,0.0,0.0,0.0,0.0,0.0273,0.0549,0.0942,0.1452,0.2,0.2624,0.3166,0.3701,0.3979,0.4185,0.4579,0.5012,0.5168,0.544,0.5592,0.5032,0.5462,0.5467,0.557,0.5653,0.5672,0.5988,0.6296,0.634,0.5899,0.5235,0.4523,0.3717,0.2823,0.2017,0.1346,0.0807,0.0493,0.0404,0.0404,0.0538,0.0852,0.1345,0.1929,0.2466,0.3002,0.3764,0.4435,0.4792,0.568,0.6166,0.6476,0.6833,0.7054,0.7095,0.7095,0.7092,0.7071,0.6953,0.6774,0.655,0.6315,0.6124,0.5939,0.5856,0.5823,0.5958,0.6169,0.6325,0.6421,0.6662,0.6782,0.6866,0.6876,0.6923,0.7031,0.7051,0.7075,0.7078,0.7075,0.7045,0.7018,0.7027,0.6964,0.6791,0.6533,0.6151,0.5668,0.5,0.427,0.3498,0.2687,0.197,0.1351,0.0747,0.0408,0.0243,0.0,0.0,0.0,0.0,0.0,0.0,0.0,0.0,0.0,0.0,0.0,0.0,0.0,0.0,0.0,0.0,0.0,0.0,0.0,0.0,0.0,0.0157,0.0274,0.0548,0.0903,0.1335,0.1805,0.243,0.3056,0.3756,0.4419,0.4654,0.4929,0.5204,0.5521,0.5637,0.5772,0.595,0.539,0.5807,0.5852,0.5918,0.6108,0.6364,0.6523,0.6612,0.6432,0.5941,0.5144,0.452,0.3805,0.2911,0.2152,0.148,0.0987,0.0718,0.0628,0.0628,0.0897,0.1256,0.1749,0.2376,0.2957,0.3583,0.4297,0.4879,0.5411,0.6033,0.639,0.67,0.6922,0.7095,0.7095,0.7095,0.7095,0.7044,0.6919,0.6721,0.6477,0.6196,0.5956,0.5741,0.5678,0.573,0.5865,0.6093,0.6339,0.6482,0.6728,0.6947,0.7004,0.7011,0.7038,0.7092,0.7095,0.7095,0.7095,0.7088,0.7092,0.7095,0.7095,0.701,0.6792,0.639,0.5991,0.5458,0.4699,0.3916,0.3106,0.2394,0.167,0.1039,0.0553,0.0292,0.0,0.0,0.0,0.0,0.0,0.0,0.0,0.0,0.0,0.0,0.0,0.0,0.0,0.0,0.0,0.0,0.0,0.0,0.0,0.0,0.0,0.0,0.0315,0.051,0.0825,0.1267,0.1735,0.2212,0.2871,0.3485,0.4226,0.489,0.5356,0.567,0.5814,0.5941,0.6019,0.6149,0.6294,0.5679,0.6046,0.6087,0.6204,0.6437,0.6573,0.6647,0.661,0.6427,0.5835,0.5093,0.4545,0.3807,0.2957,0.2242,0.157,0.1122,0.1031,0.0942,0.1031,0.148,0.1839,0.2331,0.2867,0.3494,0.4117,0.4743,0.5324,0.5675,0.6254,0.6656,0.6877,0.701,0.7095,0.7095,0.7095,0.7095,0.7051,0.6949,0.6729,0.6483,0.6218,0.5956,0.5681,0.5599,0.5593,0.5781,0.6079,0.639,0.6589,0.6853,0.7095,0.7095,0.7095,0.7095,0.7095,0.7095,0.7095,0.7095,0.7095,0.7095,0.7095,0.7095,0.6966,0.6704,0.6302,0.5772,0.5146,0.4297,0.3582,0.2822,0.2108,0.1382,0.0746,0.0434,0.017,0.0,0.0,0.0,0.0,0.0,0.0,0.0,0.0,0.0,0.0,0.0,0.0,0.0,0.0,0.0,0.0,0.0,0.0,0.0,0.0,0.0,0.0,0.0517,0.0716,0.1169,0.159,0.2093,0.2666,0.3346,0.4014,0.4711,0.5323,0.5746,0.6009,0.6116,0.6234,0.6375,0.6467,0.6542,0.5832,0.6184,0.6191,0.639,0.6585,0.6392,0.6322,0.6383,0.6217,0.5755,0.5112,0.446,0.368,0.2896,0.2369,0.1788,0.1298,0.1299,0.1391,0.157,0.2018,0.2466,0.3002,0.3582,0.4119,0.4607,0.5144,0.5633,0.5852,0.6432,0.6877,0.701,0.7095,0.7095,0.7095,0.7095,0.7095,0.7098,0.701,0.6741,0.646,0.6331,0.6001,0.5775,0.5676,0.567,0.5855,0.6089,0.6316,0.659,0.6868,0.7007,0.7095,0.7095,0.7095,0.7095,0.7095,0.7095,0.7095,0.7095,0.7095,0.7095,0.7095,0.683,0.652,0.6169,0.5636,0.4882,0.4078,0.3318,0.2602,0.1839,0.1076,0.0666,0.0308,0.0,0.0,0.0,0.0,0.0,0.0,0.0,0.0,0.0,0.0,0.0,0.0,0.0,0.0,0.0,0.0,0.0,0.0,0.0,0.0,0.0,0.0,0.0,0.0733,0.098,0.1449,0.2042,0.2635,0.3262,0.3859,0.4567,0.5342,0.5793,0.6057,0.6251,0.6414,0.6458,0.6549,0.661,0.6709,0.6009,0.6244,0.6247,0.6352,0.6383,0.6106,0.6052,0.607,0.5913,0.5415,0.4575,0.4095,0.3397,0.253,0.2264,0.1796,0.1589,0.1557,0.1792,0.2109,0.2645,0.3136,0.3671,0.4208,0.4743,0.5188,0.5633,0.6033,0.6435,0.6925,0.701,0.7095,0.7095,0.7095,0.7095,0.7095,0.7095,0.7095,0.701,0.6741,0.6476,0.6299,0.6038,0.5819,0.5688,0.5688,0.5819,0.6124,0.6343,0.6473,0.6874,0.7095,0.7095,0.7095,0.7095,0.7095,0.7095,0.7095,0.7095,0.7095,0.7095,0.7095,0.7095,0.683,0.6476,0.5988,0.5502,0.4748,0.39,0.3139,0.2467,0.1749,0.1076,0.067,0.0,0.0,0.0,0.0,0.0,0.0,0.0,0.0,0.0,0.0,0.0,0.0,0.0,0.0,0.0,0.0,0.0,0.0,0.0,0.0,0.0,0.0,0.0,0.0625,0.0875,0.1336,0.1936,0.2574,0.3186,0.3875,0.4596,0.529,0.6028,0.6319,0.6391,0.6538,0.666,0.6688,0.6702,0.6797,0.6819,0.6138,0.6296,0.63,0.6257,0.6103,0.5906,0.5735,0.5627,0.5557,0.5046,0.4311,0.3809,0.3151,0.2446,0.2091,0.181,0.1611,0.1935,0.2264,0.2735,0.3272,0.3851,0.4387,0.4835,0.5322,0.5769,0.608,0.639,0.6792,0.701,0.7095,0.7095,0.7095,0.7095,0.7095,0.7095,0.7095,0.7054,0.6966,0.67,0.6479,0.6257,0.6038,0.5777,0.5688,0.5688,0.5733,0.6127,0.6302,0.6428,0.683,0.7054,0.7054,0.7095,0.7095,0.7095,0.7095,0.7095,0.7095,0.7095,0.7095,0.7095,0.7095,0.683,0.6432,0.5985,0.5413,0.4703,0.3808,0.2959,0.2332,0.1705,0.1211,0.0717,0.0,0.0,0.0,0.0,0.0,0.0,0.0,0.0,0.0,0.0,0.0,0.0,0.0,0.0,0.0,0.0,0.0,0.0,0.0,0.0,0.0,0.0254,0.0467,0.0722,0.1065,0.1579,0.2316,0.3057,0.3707,0.4522,0.539,0.5969,0.6418,0.6526,0.6633,0.6787,0.6822,0.6861,0.6881,0.6913,0.6964,0.6255,0.6217,0.624,0.6044,0.5825,0.5634,0.5329,0.4979,0.501,0.4728,0.41,0.3553,0.291,0.228,0.1923,0.1777,0.18,0.2168,0.264,0.3218,0.3898,0.4476,0.5008,0.55,0.5813,0.6216,0.6482,0.6659,0.6833,0.701,0.7095,0.7095,0.7095,0.7095,0.7095,0.7051,0.7054,0.701,0.6922,0.6745,0.6476,0.6346,0.6169,0.5733,0.5644,0.5644,0.5733,0.5908,0.6171,0.639,0.6656,0.6925,0.7054,0.7095,0.7095,0.7095,0.7095,0.7095,0.7095,0.7095,0.7095,0.7095,0.7095,0.6874,0.652,0.6077,0.5505,0.4748,0.3853,0.3094,0.2467,0.166,0.1076,0.0673,0.0,0.0,0.0,0.0,0.0,0.0,0.0,0.0,0.0,0.0,0.0,0.0,0.0,0.0,0.0,0.0,0.0,0.0,0.0,0.0,0.0,0.0345,0.0561,0.0865,0.1259,0.1922,0.2766,0.3488,0.4219,0.5121,0.5949,0.6229,0.6586,0.6729,0.6858,0.6869,0.6937,0.7014,0.7014,0.7048,0.7055,0.5805,0.5708,0.5704,0.5578,0.5428,0.5237,0.4924,0.454,0.4252,0.3949,0.36,0.3023,0.248,0.2053,0.1755,0.1652,0.1789,0.2311,0.2824,0.3524,0.4265,0.4968,0.5455,0.5902,0.626,0.6526,0.6792,0.6881,0.701,0.7095,0.7095,0.7095,0.7095,0.7095,0.7054,0.701,0.6881,0.6881,0.6653,0.652,0.6343,0.6169,0.5949,0.5641,0.5463,0.5463,0.5549,0.568,0.5902,0.6171,0.6571,0.6881,0.7095,0.7095,0.7095,0.7095,0.7095,0.7095,0.7095,0.7095,0.7095,0.7095,0.7095,0.6922,0.6656,0.6216,0.5638,0.4792,0.4034,0.3274,0.2557,0.1705,0.0987,0.0628,0.0,0.0,0.0,0.0,0.0,0.0,0.0,0.0,0.0,0.0,0.0,0.0,0.0,0.0,0.0,0.0,0.0,0.0,0.0,0.0,0.0262,0.0526,0.0833,0.1277,0.1769,0.245,0.3183,0.4158,0.5127,0.5791,0.6449,0.6637,0.6787,0.6944,0.7024,0.7018,0.7018,0.7034,0.7048,0.7078,0.7085,0.5516,0.5384,0.5313,0.5201,0.4994,0.4736,0.4357,0.3942,0.3529,0.3208,0.3013,0.2534,0.2159,0.1769,0.1556,0.1657,0.1836,0.2361,0.3094,0.3834,0.4592,0.5354,0.5858,0.6257,0.6567,0.6881,0.6922,0.701,0.7095,0.7095,0.7095,0.7095,0.7095,0.7051,0.701,0.6836,0.67,0.6612,0.6296,0.6118,0.6074,0.5899,0.568,0.5369,0.5235,0.5191,0.5235,0.5366,0.5589,0.5991,0.6482,0.6751,0.6966,0.7054,0.7095,0.7095,0.7095,0.7095,0.7095,0.7095,0.7095,0.7095,0.7095,0.6966,0.6789,0.6349,0.5902,0.5102,0.4208,0.3494,0.278,0.1973,0.1256,0.0763,0.0449,0.0,0.0,0.0,0.0,0.0,0.0,0.0,0.0,0.0,0.0,0.0,0.0,0.0,0.0,0.0,0.0,0.0,0.0,0.0176,0.031,0.0712,0.1159,0.1657,0.2242,0.3136,0.3985,0.5055,0.6035,0.6384,0.6691,0.6899,0.7037,0.7095,0.7095,0.7068,0.7071,0.7088,0.7095,0.7095,0.7095,0.5179,0.5132,0.4922,0.4754,0.4584,0.4188,0.3828,0.3388,0.2916,0.2516,0.2274,0.2128,0.1876,0.161,0.1456,0.1714,0.2067,0.2649,0.3381,0.4185,0.4976,0.5642,0.616,0.6612,0.6833,0.6966,0.7051,0.7095,0.7095,0.7095,0.7095,0.7095,0.7051,0.701,0.6836,0.6656,0.6479,0.621,0.5897,0.5589,0.5542,0.5542,0.5233,0.501,0.4875,0.4875,0.4875,0.4919,0.5097,0.5589,0.6169,0.6571,0.6792,0.6925,0.7054,0.7054,0.7095,0.7095,0.7095,0.7095,0.7095,0.7095,0.7095,0.701,0.6833,0.6479,0.6033,0.5366,0.4474,0.3671,0.2957,0.2242,0.1524,0.0852,0.0538,0.0,0.0,0.0,0.0,0.0,0.0,0.0,0.0,0.0,0.0,0.0,0.0,0.0,0.0,0.0,0.0,0.0,0.0,0.0402,0.0538,0.0942,0.1436,0.2107,0.2734,0.3715,0.4699,0.5589,0.6213,0.6615,0.6881,0.701,0.7098,0.7095,0.7095,0.7095,0.7095,0.7095,0.7095,0.7095,0.7095,0.4626,0.4404,0.4194,0.4133,0.4135,0.3779,0.3419,0.3058,0.2617,0.2106,0.1653,0.1634,0.1579,0.1572,0.1573,0.178,0.2188,0.2801,0.3602,0.4395,0.516,0.5813,0.6313,0.6688,0.6922,0.701,0.7095,0.7095,0.7095,0.7095,0.7095,0.7095,0.6922,0.6792,0.6704,0.639,0.5944,0.5677,0.5233,0.4832,0.4701,0.4701,0.4701,0.4478,0.4206,0.4162,0.4117,0.4117,0.4431,0.4924,0.5589,0.6169,0.6567,0.6792,0.6925,0.701,0.7054,0.7095,0.7095,0.7095,0.7095,0.7095,0.7095,0.7095,0.6877,0.6612,0.6121,0.5633,0.4786,0.3849,0.3092,0.2287,0.157,0.0852,0.0404,0.0,0.0,0.0,0.0,0.0,0.0,0.0,0.0,0.0,0.0,0.0,0.0,0.0,0.0,0.0,0.009,0.0269,0.0494,0.0762,0.0942,0.1211,0.1749,0.2422,0.327,0.4297,0.5188,0.5852,0.6432,0.6792,0.6966,0.7098,0.7095,0.7095,0.7095,0.7095,0.7095,0.7095,0.7095,0.7095,0.7095]}]]